<?xml version="1.0" encoding="UTF-8" standalone="no" ?>
<gpx xmlns="http://www.topografix.com/GPX/1/1" xmlns:xsi="http://www.w3.org/2001/XMLSchema-instance" xsi:schemaLocation="http://www.topografix.com/GPX/1/1 http://www.topografix.com/GPX/1/1/gpx.xsd" version="1.1" creator="VisuGPX - https://www.visugpx.com">
  <metadata>
    <name>Tour des petites roches</name>
    <desc><![CDATA[Parcours du GRP des Petites Roches, un beau parcours varié sous la Dent de Crolles avec vue sur Belledonne.]]></desc>
  </metadata>
  <trk>
    <name><![CDATA[Tour des petites roches sur TraceDeTrail.fr]]></name>
    <trkseg>
      <trkpt lat="45.29504" lon="5.86039">
        <ele>1052</ele>
        <time>2000-01-01T01:38:04.000Z</time>
      </trkpt>
      <trkpt lat="45.29541" lon="5.86012">
        <ele>1054</ele>
        <time>2000-01-01T01:38:14.000Z</time>
      </trkpt>
      <trkpt lat="45.29571" lon="5.85984">
        <ele>1065</ele>
        <time>2000-01-01T01:38:24.000Z</time>
      </trkpt>
      <trkpt lat="45.29594" lon="5.8597">
        <ele>1065</ele>
        <time>2000-01-01T01:38:34.000Z</time>
      </trkpt>
      <trkpt lat="45.29613" lon="5.8596">
        <ele>1072</ele>
        <time>2000-01-01T01:38:44.000Z</time>
      </trkpt>
      <trkpt lat="45.2962" lon="5.85942">
        <ele>1091.8</ele>
        <time>2000-01-01T01:38:54.000Z</time>
      </trkpt>
      <trkpt lat="45.29661" lon="5.85929">
        <ele>1086</ele>
        <time>2000-01-01T01:39:04.000Z</time>
      </trkpt>
      <trkpt lat="45.29698" lon="5.85907">
        <ele>1090</ele>
        <time>2000-01-01T01:39:14.000Z</time>
      </trkpt>
      <trkpt lat="45.29739" lon="5.85886">
        <ele>1099</ele>
        <time>2000-01-01T01:39:24.000Z</time>
      </trkpt>
      <trkpt lat="45.29774" lon="5.85875">
        <ele>1115</ele>
        <time>2000-01-01T01:39:34.000Z</time>
      </trkpt>
      <trkpt lat="45.2978" lon="5.85876">
        <ele>1138.6</ele>
        <time>2000-01-01T01:39:44.000Z</time>
      </trkpt>
      <trkpt lat="45.29783" lon="5.85885">
        <ele>1138.8</ele>
        <time>2000-01-01T01:39:54.000Z</time>
      </trkpt>
      <trkpt lat="45.29784" lon="5.85939">
        <ele>1129</ele>
        <time>2000-01-01T01:40:04.000Z</time>
      </trkpt>
      <trkpt lat="45.29788" lon="5.8596">
        <ele>1141.5</ele>
        <time>2000-01-01T01:40:14.000Z</time>
      </trkpt>
      <trkpt lat="45.29815" lon="5.85989">
        <ele>1146</ele>
        <time>2000-01-01T01:40:24.000Z</time>
      </trkpt>
      <trkpt lat="45.29854" lon="5.86009">
        <ele>1147</ele>
        <time>2000-01-01T01:40:34.000Z</time>
      </trkpt>
      <trkpt lat="45.29878" lon="5.86009">
        <ele>1147</ele>
        <time>2000-01-01T01:40:44.000Z</time>
      </trkpt>
      <trkpt lat="45.29908" lon="5.86004">
        <ele>1156</ele>
        <time>2000-01-01T01:40:54.000Z</time>
      </trkpt>
      <trkpt lat="45.29945" lon="5.86007">
        <ele>1170</ele>
        <time>2000-01-01T01:41:04.000Z</time>
      </trkpt>
      <trkpt lat="45.29954" lon="5.86016">
        <ele>1193.5</ele>
        <time>2000-01-01T01:41:14.000Z</time>
      </trkpt>
      <trkpt lat="45.29958" lon="5.86026">
        <ele>1171</ele>
        <time>2000-01-01T01:41:24.000Z</time>
      </trkpt>
      <trkpt lat="45.29958" lon="5.8604">
        <ele>1193.7</ele>
        <time>2000-01-01T01:41:34.000Z</time>
      </trkpt>
      <trkpt lat="45.29958" lon="5.86096">
        <ele>1172</ele>
        <time>2000-01-01T01:41:44.000Z</time>
      </trkpt>
      <trkpt lat="45.29964" lon="5.86122">
        <ele>1181</ele>
        <time>2000-01-01T01:41:54.000Z</time>
      </trkpt>
      <trkpt lat="45.29979" lon="5.86146">
        <ele>1182</ele>
        <time>2000-01-01T01:42:04.000Z</time>
      </trkpt>
      <trkpt lat="45.29993" lon="5.86157">
        <ele>1190.8</ele>
        <time>2000-01-01T01:42:14.000Z</time>
      </trkpt>
      <trkpt lat="45.3001" lon="5.86167">
        <ele>1187</ele>
        <time>2000-01-01T01:42:24.000Z</time>
      </trkpt>
      <trkpt lat="45.30036" lon="5.86196">
        <ele>1194</ele>
        <time>2000-01-01T01:42:34.000Z</time>
      </trkpt>
      <trkpt lat="45.30069" lon="5.86226">
        <ele>1194</ele>
        <time>2000-01-01T01:42:44.000Z</time>
      </trkpt>
      <trkpt lat="45.30079" lon="5.86229">
        <ele>1198.1</ele>
        <time>2000-01-01T01:42:54.000Z</time>
      </trkpt>
      <trkpt lat="45.30115" lon="5.86245">
        <ele>1195</ele>
        <time>2000-01-01T01:43:04.000Z</time>
      </trkpt>
      <trkpt lat="45.30143" lon="5.86267">
        <ele>1196</ele>
        <time>2000-01-01T01:43:14.000Z</time>
      </trkpt>
      <trkpt lat="45.3016" lon="5.8627">
        <ele>1196.4</ele>
        <time>2000-01-01T01:43:24.000Z</time>
      </trkpt>
      <trkpt lat="45.30196" lon="5.86268">
        <ele>1198</ele>
        <time>2000-01-01T01:43:34.000Z</time>
      </trkpt>
      <trkpt lat="45.30219" lon="5.86263">
        <ele>1199</ele>
        <time>2000-01-01T01:43:44.000Z</time>
      </trkpt>
      <trkpt lat="45.30253" lon="5.86247">
        <ele>1200</ele>
        <time>2000-01-01T01:43:54.000Z</time>
      </trkpt>
      <trkpt lat="45.30275" lon="5.86232">
        <ele>1225</ele>
        <time>2000-01-01T01:44:04.000Z</time>
      </trkpt>
      <trkpt lat="45.30297" lon="5.86217">
        <ele>1225</ele>
        <time>2000-01-01T01:44:14.000Z</time>
      </trkpt>
      <trkpt lat="45.30309" lon="5.86253">
        <ele>1224</ele>
        <time>2000-01-01T01:44:24.000Z</time>
      </trkpt>
      <trkpt lat="45.30306" lon="5.86286">
        <ele>1214</ele>
        <time>2000-01-01T01:44:34.000Z</time>
      </trkpt>
      <trkpt lat="45.30308" lon="5.86324">
        <ele>1214</ele>
        <time>2000-01-01T01:44:44.000Z</time>
      </trkpt>
      <trkpt lat="45.3031" lon="5.86348">
        <ele>1210.4</ele>
        <time>2000-01-01T01:44:54.000Z</time>
      </trkpt>
      <trkpt lat="45.30316" lon="5.8637">
        <ele>1210</ele>
        <time>2000-01-01T01:45:04.000Z</time>
      </trkpt>
      <trkpt lat="45.30322" lon="5.86386">
        <ele>1207.9</ele>
        <time>2000-01-01T01:45:14.000Z</time>
      </trkpt>
      <trkpt lat="45.30338" lon="5.86386">
        <ele>1205</ele>
        <time>2000-01-01T01:45:24.000Z</time>
      </trkpt>
      <trkpt lat="45.30346" lon="5.86397">
        <ele>1219.3</ele>
        <time>2000-01-01T01:45:34.000Z</time>
      </trkpt>
      <trkpt lat="45.30352" lon="5.86386">
        <ele>1206</ele>
        <time>2000-01-01T01:45:44.000Z</time>
      </trkpt>
      <trkpt lat="45.30347" lon="5.86377">
        <ele>1221.7</ele>
        <time>2000-01-01T01:45:54.000Z</time>
      </trkpt>
      <trkpt lat="45.30351" lon="5.8636">
        <ele>1207</ele>
        <time>2000-01-01T01:46:04.000Z</time>
      </trkpt>
      <trkpt lat="45.30347" lon="5.86333">
        <ele>1219</ele>
        <time>2000-01-01T01:46:14.000Z</time>
      </trkpt>
      <trkpt lat="45.30353" lon="5.86329">
        <ele>1236</ele>
        <time>2000-01-01T01:46:24.000Z</time>
      </trkpt>
      <trkpt lat="45.30354" lon="5.86308">
        <ele>1224</ele>
        <time>2000-01-01T01:46:34.000Z</time>
      </trkpt>
      <trkpt lat="45.30365" lon="5.86308">
        <ele>1241.1</ele>
        <time>2000-01-01T01:46:44.000Z</time>
      </trkpt>
      <trkpt lat="45.30364" lon="5.86288">
        <ele>1234</ele>
        <time>2000-01-01T01:46:54.000Z</time>
      </trkpt>
      <trkpt lat="45.30379" lon="5.8629">
        <ele>1245.2</ele>
        <time>2000-01-01T01:47:04.000Z</time>
      </trkpt>
      <trkpt lat="45.3037" lon="5.86265">
        <ele>1238</ele>
        <time>2000-01-01T01:47:14.000Z</time>
      </trkpt>
      <trkpt lat="45.30387" lon="5.86269">
        <ele>1250</ele>
        <time>2000-01-01T01:47:24.000Z</time>
      </trkpt>
      <trkpt lat="45.30382" lon="5.86248">
        <ele>1240</ele>
        <time>2000-01-01T01:47:34.000Z</time>
      </trkpt>
      <trkpt lat="45.304" lon="5.86231">
        <ele>1240</ele>
        <time>2000-01-01T01:47:44.000Z</time>
      </trkpt>
      <trkpt lat="45.30405" lon="5.86265">
        <ele>1240</ele>
        <time>2000-01-01T01:47:54.000Z</time>
      </trkpt>
      <trkpt lat="45.30411" lon="5.86269">
        <ele>1255.2</ele>
        <time>2000-01-01T01:48:04.000Z</time>
      </trkpt>
      <trkpt lat="45.30445" lon="5.86257">
        <ele>1224</ele>
        <time>2000-01-01T01:48:14.000Z</time>
      </trkpt>
      <trkpt lat="45.30471" lon="5.86248">
        <ele>1224</ele>
        <time>2000-01-01T01:48:24.000Z</time>
      </trkpt>
      <trkpt lat="45.30511" lon="5.86232">
        <ele>1248</ele>
        <time>2000-01-01T01:48:34.000Z</time>
      </trkpt>
      <trkpt lat="45.30529" lon="5.86217">
        <ele>1250</ele>
        <time>2000-01-01T01:48:44.000Z</time>
      </trkpt>
      <trkpt lat="45.30536" lon="5.86211">
        <ele>1298.5</ele>
        <time>2000-01-01T01:48:54.000Z</time>
      </trkpt>
      <trkpt lat="45.30546" lon="5.8622">
        <ele>1250</ele>
        <time>2000-01-01T01:49:04.000Z</time>
      </trkpt>
      <trkpt lat="45.30553" lon="5.86228">
        <ele>1298.7</ele>
        <time>2000-01-01T01:49:14.000Z</time>
      </trkpt>
      <trkpt lat="45.30565" lon="5.86251">
        <ele>1254</ele>
        <time>2000-01-01T01:49:24.000Z</time>
      </trkpt>
      <trkpt lat="45.3058" lon="5.86279">
        <ele>1262</ele>
        <time>2000-01-01T01:49:34.000Z</time>
      </trkpt>
      <trkpt lat="45.30583" lon="5.86307">
        <ele>1270</ele>
        <time>2000-01-01T01:49:44.000Z</time>
      </trkpt>
      <trkpt lat="45.30606" lon="5.8634">
        <ele>1275</ele>
        <time>2000-01-01T01:49:54.000Z</time>
      </trkpt>
      <trkpt lat="45.30627" lon="5.86341">
        <ele>1275</ele>
        <time>2000-01-01T01:50:04.000Z</time>
      </trkpt>
      <trkpt lat="45.30649" lon="5.86347">
        <ele>1275</ele>
        <time>2000-01-01T01:50:14.000Z</time>
      </trkpt>
      <trkpt lat="45.30656" lon="5.86352">
        <ele>1299.5</ele>
        <time>2000-01-01T01:50:24.000Z</time>
      </trkpt>
      <trkpt lat="45.30689" lon="5.86384">
        <ele>1276</ele>
        <time>2000-01-01T01:50:34.000Z</time>
      </trkpt>
      <trkpt lat="45.30718" lon="5.86388">
        <ele>1288</ele>
        <time>2000-01-01T01:50:44.000Z</time>
      </trkpt>
      <trkpt lat="45.3075" lon="5.86387">
        <ele>1298</ele>
        <time>2000-01-01T01:50:54.000Z</time>
      </trkpt>
      <trkpt lat="45.30757" lon="5.86388">
        <ele>1336</ele>
        <time>2000-01-01T01:51:04.000Z</time>
      </trkpt>
      <trkpt lat="45.30761" lon="5.86394">
        <ele>1334.3</ele>
        <time>2000-01-01T01:51:14.000Z</time>
      </trkpt>
      <trkpt lat="45.30765" lon="5.86409">
        <ele>1298</ele>
        <time>2000-01-01T01:51:24.000Z</time>
      </trkpt>
      <trkpt lat="45.3076" lon="5.86423">
        <ele>1320.2</ele>
        <time>2000-01-01T01:51:34.000Z</time>
      </trkpt>
      <trkpt lat="45.3076" lon="5.86445">
        <ele>1287</ele>
        <time>2000-01-01T01:51:44.000Z</time>
      </trkpt>
      <trkpt lat="45.30762" lon="5.86469">
        <ele>1323.6</ele>
        <time>2000-01-01T01:51:54.000Z</time>
      </trkpt>
      <trkpt lat="45.30764" lon="5.86486">
        <ele>1300</ele>
        <time>2000-01-01T01:52:04.000Z</time>
      </trkpt>
      <trkpt lat="45.30773" lon="5.86501">
        <ele>1322.5</ele>
        <time>2000-01-01T01:52:14.000Z</time>
      </trkpt>
      <trkpt lat="45.30771" lon="5.8651">
        <ele>1313</ele>
        <time>2000-01-01T01:52:24.000Z</time>
      </trkpt>
      <trkpt lat="45.30773" lon="5.86524">
        <ele>1326.6</ele>
        <time>2000-01-01T01:52:34.000Z</time>
      </trkpt>
      <trkpt lat="45.30773" lon="5.86538">
        <ele>1315</ele>
        <time>2000-01-01T01:52:44.000Z</time>
      </trkpt>
      <trkpt lat="45.30768" lon="5.8655">
        <ele>1327.9</ele>
        <time>2000-01-01T01:52:54.000Z</time>
      </trkpt>
      <trkpt lat="45.30749" lon="5.86603">
        <ele>1310</ele>
        <time>2000-01-01T01:53:04.000Z</time>
      </trkpt>
      <trkpt lat="45.30736" lon="5.86647">
        <ele>1312</ele>
        <time>2000-01-01T01:53:14.000Z</time>
      </trkpt>
      <trkpt lat="45.30727" lon="5.867">
        <ele>1315</ele>
        <time>2000-01-01T01:53:24.000Z</time>
      </trkpt>
      <trkpt lat="45.3072" lon="5.86738">
        <ele>1312</ele>
        <time>2000-01-01T01:53:34.000Z</time>
      </trkpt>
      <trkpt lat="45.30729" lon="5.86777">
        <ele>1313</ele>
        <time>2000-01-01T01:53:44.000Z</time>
      </trkpt>
      <trkpt lat="45.30744" lon="5.86804">
        <ele>1309</ele>
        <time>2000-01-01T01:53:54.000Z</time>
      </trkpt>
      <trkpt lat="45.30761" lon="5.86834">
        <ele>1305</ele>
        <time>2000-01-01T01:54:04.000Z</time>
      </trkpt>
      <trkpt lat="45.3078" lon="5.86868">
        <ele>1299</ele>
        <time>2000-01-01T01:54:14.000Z</time>
      </trkpt>
      <trkpt lat="45.30787" lon="5.86874">
        <ele>1310.9</ele>
        <time>2000-01-01T01:54:24.000Z</time>
      </trkpt>
      <trkpt lat="45.30799" lon="5.86884">
        <ele>1295</ele>
        <time>2000-01-01T01:54:34.000Z</time>
      </trkpt>
      <trkpt lat="45.30818" lon="5.86894">
        <ele>1300</ele>
        <time>2000-01-01T01:54:44.000Z</time>
      </trkpt>
      <trkpt lat="45.3083" lon="5.86897">
        <ele>1306.5</ele>
        <time>2000-01-01T01:54:54.000Z</time>
      </trkpt>
      <trkpt lat="45.3085" lon="5.86901">
        <ele>1305</ele>
        <time>2000-01-01T01:55:04.000Z</time>
      </trkpt>
      <trkpt lat="45.3086" lon="5.86915">
        <ele>1317</ele>
        <time>2000-01-01T01:55:14.000Z</time>
      </trkpt>
      <trkpt lat="45.30885" lon="5.86946">
        <ele>1302</ele>
        <time>2000-01-01T01:55:24.000Z</time>
      </trkpt>
      <trkpt lat="45.30905" lon="5.86971">
        <ele>1299</ele>
        <time>2000-01-01T01:55:34.000Z</time>
      </trkpt>
      <trkpt lat="45.30922" lon="5.86997">
        <ele>1299</ele>
        <time>2000-01-01T01:55:44.000Z</time>
      </trkpt>
      <trkpt lat="45.30945" lon="5.87011">
        <ele>1299</ele>
        <time>2000-01-01T01:55:54.000Z</time>
      </trkpt>
      <trkpt lat="45.30984" lon="5.8704">
        <ele>1299</ele>
        <time>2000-01-01T01:56:04.000Z</time>
      </trkpt>
      <trkpt lat="45.31009" lon="5.87059">
        <ele>1296</ele>
        <time>2000-01-01T01:56:14.000Z</time>
      </trkpt>
      <trkpt lat="45.31036" lon="5.87071">
        <ele>1297</ele>
        <time>2000-01-01T01:56:24.000Z</time>
      </trkpt>
      <trkpt lat="45.31067" lon="5.87089">
        <ele>1296</ele>
        <time>2000-01-01T01:56:34.000Z</time>
      </trkpt>
      <trkpt lat="45.31086" lon="5.87106">
        <ele>1296</ele>
        <time>2000-01-01T01:56:44.000Z</time>
      </trkpt>
      <trkpt lat="45.31119" lon="5.87129">
        <ele>1296</ele>
        <time>2000-01-01T01:56:54.000Z</time>
      </trkpt>
      <trkpt lat="45.3116" lon="5.87155">
        <ele>1296</ele>
        <time>2000-01-01T01:57:04.000Z</time>
      </trkpt>
      <trkpt lat="45.31175" lon="5.8717">
        <ele>1296.8</ele>
        <time>2000-01-01T01:57:14.000Z</time>
      </trkpt>
      <trkpt lat="45.31197" lon="5.87185">
        <ele>1301</ele>
        <time>2000-01-01T01:57:24.000Z</time>
      </trkpt>
      <trkpt lat="45.31217" lon="5.87207">
        <ele>1301</ele>
        <time>2000-01-01T01:57:34.000Z</time>
      </trkpt>
      <trkpt lat="45.31251" lon="5.87237">
        <ele>1302</ele>
        <time>2000-01-01T01:57:44.000Z</time>
      </trkpt>
      <trkpt lat="45.31274" lon="5.87258">
        <ele>1300</ele>
        <time>2000-01-01T01:57:54.000Z</time>
      </trkpt>
      <trkpt lat="45.31298" lon="5.87285">
        <ele>1299</ele>
        <time>2000-01-01T01:58:04.000Z</time>
      </trkpt>
      <trkpt lat="45.31303" lon="5.87297">
        <ele>1295.7</ele>
        <time>2000-01-01T01:58:14.000Z</time>
      </trkpt>
      <trkpt lat="45.31321" lon="5.87342">
        <ele>1295</ele>
        <time>2000-01-01T01:58:24.000Z</time>
      </trkpt>
      <trkpt lat="45.31336" lon="5.87364">
        <ele>1295</ele>
        <time>2000-01-01T01:58:34.000Z</time>
      </trkpt>
      <trkpt lat="45.31358" lon="5.87343">
        <ele>1295</ele>
        <time>2000-01-01T01:58:44.000Z</time>
      </trkpt>
      <trkpt lat="45.31375" lon="5.87315">
        <ele>1301</ele>
        <time>2000-01-01T01:58:54.000Z</time>
      </trkpt>
      <trkpt lat="45.31388" lon="5.87295">
        <ele>1303</ele>
        <time>2000-01-01T01:59:04.000Z</time>
      </trkpt>
      <trkpt lat="45.31407" lon="5.87275">
        <ele>1303</ele>
        <time>2000-01-01T01:59:14.000Z</time>
      </trkpt>
      <trkpt lat="45.31415" lon="5.87268">
        <ele>1301.9</ele>
        <time>2000-01-01T01:59:24.000Z</time>
      </trkpt>
      <trkpt lat="45.31423" lon="5.87263">
        <ele>1302.6</ele>
        <time>2000-01-01T01:59:34.000Z</time>
      </trkpt>
      <trkpt lat="45.31434" lon="5.87264">
        <ele>1300</ele>
        <time>2000-01-01T01:59:44.000Z</time>
      </trkpt>
      <trkpt lat="45.31461" lon="5.87273">
        <ele>1298</ele>
        <time>2000-01-01T01:59:54.000Z</time>
      </trkpt>
      <trkpt lat="45.315" lon="5.87291">
        <ele>1298</ele>
        <time>2000-01-01T02:00:04.000Z</time>
      </trkpt>
      <trkpt lat="45.31531" lon="5.87295">
        <ele>1309</ele>
        <time>2000-01-01T02:00:14.000Z</time>
      </trkpt>
      <trkpt lat="45.31567" lon="5.87293">
        <ele>1315</ele>
        <time>2000-01-01T02:00:24.000Z</time>
      </trkpt>
      <trkpt lat="45.31594" lon="5.87291">
        <ele>1317</ele>
        <time>2000-01-01T02:00:34.000Z</time>
      </trkpt>
      <trkpt lat="45.31613" lon="5.87287">
        <ele>1322</ele>
        <time>2000-01-01T02:00:44.000Z</time>
      </trkpt>
      <trkpt lat="45.31638" lon="5.8728">
        <ele>1321</ele>
        <time>2000-01-01T02:00:54.000Z</time>
      </trkpt>
      <trkpt lat="45.31663" lon="5.87281">
        <ele>1321</ele>
        <time>2000-01-01T02:01:04.000Z</time>
      </trkpt>
      <trkpt lat="45.31673" lon="5.87307">
        <ele>1309</ele>
        <time>2000-01-01T02:01:14.000Z</time>
      </trkpt>
      <trkpt lat="45.31688" lon="5.87338">
        <ele>1302</ele>
        <time>2000-01-01T02:01:24.000Z</time>
      </trkpt>
      <trkpt lat="45.3172" lon="5.87387">
        <ele>1301</ele>
        <time>2000-01-01T02:01:34.000Z</time>
      </trkpt>
      <trkpt lat="45.31725" lon="5.87391">
        <ele>1301.8</ele>
        <time>2000-01-01T02:01:44.000Z</time>
      </trkpt>
      <trkpt lat="45.31745" lon="5.874">
        <ele>1304</ele>
        <time>2000-01-01T02:01:54.000Z</time>
      </trkpt>
      <trkpt lat="45.31776" lon="5.87408">
        <ele>1297</ele>
        <time>2000-01-01T02:02:04.000Z</time>
      </trkpt>
      <trkpt lat="45.31794" lon="5.87414">
        <ele>1307.1</ele>
        <time>2000-01-01T02:02:14.000Z</time>
      </trkpt>
      <trkpt lat="45.31838" lon="5.87413">
        <ele>1291</ele>
        <time>2000-01-01T02:02:24.000Z</time>
      </trkpt>
      <trkpt lat="45.31861" lon="5.87405">
        <ele>1296</ele>
        <time>2000-01-01T02:02:34.000Z</time>
      </trkpt>
      <trkpt lat="45.31877" lon="5.87379">
        <ele>1294</ele>
        <time>2000-01-01T02:02:44.000Z</time>
      </trkpt>
      <trkpt lat="45.31889" lon="5.87351">
        <ele>1300</ele>
        <time>2000-01-01T02:02:54.000Z</time>
      </trkpt>
      <trkpt lat="45.3191" lon="5.87308">
        <ele>1298</ele>
        <time>2000-01-01T02:03:04.000Z</time>
      </trkpt>
      <trkpt lat="45.31936" lon="5.87329">
        <ele>1297</ele>
        <time>2000-01-01T02:03:14.000Z</time>
      </trkpt>
      <trkpt lat="45.31946" lon="5.87362">
        <ele>1287</ele>
        <time>2000-01-01T02:03:24.000Z</time>
      </trkpt>
      <trkpt lat="45.31954" lon="5.87371">
        <ele>1306.2</ele>
        <time>2000-01-01T02:03:34.000Z</time>
      </trkpt>
      <trkpt lat="45.31966" lon="5.87376">
        <ele>1278</ele>
        <time>2000-01-01T02:03:44.000Z</time>
      </trkpt>
      <trkpt lat="45.31986" lon="5.87374">
        <ele>1278</ele>
        <time>2000-01-01T02:03:54.000Z</time>
      </trkpt>
      <trkpt lat="45.32003" lon="5.87374">
        <ele>1319.6</ele>
        <time>2000-01-01T02:04:04.000Z</time>
      </trkpt>
      <trkpt lat="45.32024" lon="5.87381">
        <ele>1266</ele>
        <time>2000-01-01T02:04:14.000Z</time>
      </trkpt>
      <trkpt lat="45.32026" lon="5.87392">
        <ele>1318</ele>
        <time>2000-01-01T02:04:24.000Z</time>
      </trkpt>
      <trkpt lat="45.32013" lon="5.87446">
        <ele>1267</ele>
        <time>2000-01-01T02:04:34.000Z</time>
      </trkpt>
      <trkpt lat="45.3201" lon="5.87467">
        <ele>1295.3</ele>
        <time>2000-01-01T02:04:44.000Z</time>
      </trkpt>
      <trkpt lat="45.32008" lon="5.87507">
        <ele>1269</ele>
        <time>2000-01-01T02:04:54.000Z</time>
      </trkpt>
      <trkpt lat="45.32012" lon="5.87547">
        <ele>1270</ele>
        <time>2000-01-01T02:05:04.000Z</time>
      </trkpt>
      <trkpt lat="45.32019" lon="5.8757">
        <ele>1277.2</ele>
        <time>2000-01-01T02:05:14.000Z</time>
      </trkpt>
      <trkpt lat="45.32028" lon="5.87586">
        <ele>1272</ele>
        <time>2000-01-01T02:05:24.000Z</time>
      </trkpt>
      <trkpt lat="45.32038" lon="5.87597">
        <ele>1265.1</ele>
        <time>2000-01-01T02:05:34.000Z</time>
      </trkpt>
      <trkpt lat="45.32058" lon="5.87608">
        <ele>1266</ele>
        <time>2000-01-01T02:05:44.000Z</time>
      </trkpt>
      <trkpt lat="45.32071" lon="5.87609">
        <ele>1269.5</ele>
        <time>2000-01-01T02:05:54.000Z</time>
      </trkpt>
      <trkpt lat="45.32103" lon="5.87601">
        <ele>1261</ele>
        <time>2000-01-01T02:06:04.000Z</time>
      </trkpt>
      <trkpt lat="45.3211" lon="5.87602">
        <ele>1276.5</ele>
        <time>2000-01-01T02:06:14.000Z</time>
      </trkpt>
      <trkpt lat="45.32143" lon="5.87617">
        <ele>1265</ele>
        <time>2000-01-01T02:06:24.000Z</time>
      </trkpt>
      <trkpt lat="45.32166" lon="5.87604">
        <ele>1269</ele>
        <time>2000-01-01T02:06:34.000Z</time>
      </trkpt>
      <trkpt lat="45.32189" lon="5.8759">
        <ele>1272</ele>
        <time>2000-01-01T02:06:44.000Z</time>
      </trkpt>
      <trkpt lat="45.32211" lon="5.87574">
        <ele>1272</ele>
        <time>2000-01-01T02:06:54.000Z</time>
      </trkpt>
      <trkpt lat="45.32228" lon="5.87574">
        <ele>1299.4</ele>
        <time>2000-01-01T02:07:04.000Z</time>
      </trkpt>
      <trkpt lat="45.3224" lon="5.87576">
        <ele>1272</ele>
        <time>2000-01-01T02:07:14.000Z</time>
      </trkpt>
      <trkpt lat="45.32261" lon="5.87622">
        <ele>1264</ele>
        <time>2000-01-01T02:07:24.000Z</time>
      </trkpt>
      <trkpt lat="45.3227" lon="5.87658">
        <ele>1261</ele>
        <time>2000-01-01T02:07:34.000Z</time>
      </trkpt>
      <trkpt lat="45.32273" lon="5.87674">
        <ele>1267.8</ele>
        <time>2000-01-01T02:07:44.000Z</time>
      </trkpt>
      <trkpt lat="45.32284" lon="5.87689">
        <ele>1258</ele>
        <time>2000-01-01T02:07:54.000Z</time>
      </trkpt>
      <trkpt lat="45.32299" lon="5.877">
        <ele>1272</ele>
        <time>2000-01-01T02:08:04.000Z</time>
      </trkpt>
      <trkpt lat="45.32298" lon="5.87721">
        <ele>1249</ele>
        <time>2000-01-01T02:08:14.000Z</time>
      </trkpt>
      <trkpt lat="45.32295" lon="5.87739">
        <ele>1268.3</ele>
        <time>2000-01-01T02:08:24.000Z</time>
      </trkpt>
      <trkpt lat="45.32289" lon="5.87755">
        <ele>1250</ele>
        <time>2000-01-01T02:08:34.000Z</time>
      </trkpt>
      <trkpt lat="45.32283" lon="5.87769">
        <ele>1254</ele>
        <time>2000-01-01T02:08:44.000Z</time>
      </trkpt>
      <trkpt lat="45.32283" lon="5.87777">
        <ele>1253.7</ele>
        <time>2000-01-01T02:08:54.000Z</time>
      </trkpt>
      <trkpt lat="45.32309" lon="5.8781">
        <ele>1248</ele>
        <time>2000-01-01T02:09:04.000Z</time>
      </trkpt>
      <trkpt lat="45.32318" lon="5.87814">
        <ele>1257.2</ele>
        <time>2000-01-01T02:09:14.000Z</time>
      </trkpt>
      <trkpt lat="45.32332" lon="5.87823">
        <ele>1249</ele>
        <time>2000-01-01T02:09:24.000Z</time>
      </trkpt>
      <trkpt lat="45.32355" lon="5.87829">
        <ele>1248</ele>
        <time>2000-01-01T02:09:34.000Z</time>
      </trkpt>
      <trkpt lat="45.32361" lon="5.87837">
        <ele>1267</ele>
        <time>2000-01-01T02:09:44.000Z</time>
      </trkpt>
      <trkpt lat="45.32365" lon="5.87852">
        <ele>1247</ele>
        <time>2000-01-01T02:09:54.000Z</time>
      </trkpt>
      <trkpt lat="45.32368" lon="5.87877">
        <ele>1265.7</ele>
        <time>2000-01-01T02:10:04.000Z</time>
      </trkpt>
      <trkpt lat="45.32376" lon="5.87894">
        <ele>1260</ele>
        <time>2000-01-01T02:10:14.000Z</time>
      </trkpt>
      <trkpt lat="45.32383" lon="5.87898">
        <ele>1267</ele>
        <time>2000-01-01T02:10:24.000Z</time>
      </trkpt>
      <trkpt lat="45.32417" lon="5.87897">
        <ele>1273</ele>
        <time>2000-01-01T02:10:34.000Z</time>
      </trkpt>
      <trkpt lat="45.32429" lon="5.87911">
        <ele>1288.5</ele>
        <time>2000-01-01T02:10:44.000Z</time>
      </trkpt>
      <trkpt lat="45.32452" lon="5.87949">
        <ele>1276</ele>
        <time>2000-01-01T02:10:54.000Z</time>
      </trkpt>
      <trkpt lat="45.32463" lon="5.87985">
        <ele>1275</ele>
        <time>2000-01-01T02:11:04.000Z</time>
      </trkpt>
      <trkpt lat="45.32476" lon="5.88011">
        <ele>1278</ele>
        <time>2000-01-01T02:11:14.000Z</time>
      </trkpt>
      <trkpt lat="45.32499" lon="5.88056">
        <ele>1279</ele>
        <time>2000-01-01T02:11:24.000Z</time>
      </trkpt>
      <trkpt lat="45.32512" lon="5.88087">
        <ele>1280</ele>
        <time>2000-01-01T02:11:34.000Z</time>
      </trkpt>
      <trkpt lat="45.32527" lon="5.88121">
        <ele>1285</ele>
        <time>2000-01-01T02:11:44.000Z</time>
      </trkpt>
      <trkpt lat="45.32533" lon="5.88129">
        <ele>1287</ele>
        <time>2000-01-01T02:11:54.000Z</time>
      </trkpt>
      <trkpt lat="45.3256" lon="5.88149">
        <ele>1287</ele>
        <time>2000-01-01T02:12:04.000Z</time>
      </trkpt>
      <trkpt lat="45.32566" lon="5.88135">
        <ele>1289.5</ele>
        <time>2000-01-01T02:12:14.000Z</time>
      </trkpt>
      <trkpt lat="45.32578" lon="5.88135">
        <ele>1293</ele>
        <time>2000-01-01T02:12:24.000Z</time>
      </trkpt>
      <trkpt lat="45.32622" lon="5.8814">
        <ele>1296</ele>
        <time>2000-01-01T02:12:34.000Z</time>
      </trkpt>
      <trkpt lat="45.32639" lon="5.88131">
        <ele>1300.9</ele>
        <time>2000-01-01T02:12:44.000Z</time>
      </trkpt>
      <trkpt lat="45.32682" lon="5.88103">
        <ele>1298</ele>
        <time>2000-01-01T02:12:54.000Z</time>
      </trkpt>
      <trkpt lat="45.3272" lon="5.88101">
        <ele>1300</ele>
        <time>2000-01-01T02:13:04.000Z</time>
      </trkpt>
      <trkpt lat="45.32758" lon="5.88085">
        <ele>1294</ele>
        <time>2000-01-01T02:13:14.000Z</time>
      </trkpt>
      <trkpt lat="45.32765" lon="5.88093">
        <ele>1320.4</ele>
        <time>2000-01-01T02:13:24.000Z</time>
      </trkpt>
      <trkpt lat="45.32769" lon="5.88106">
        <ele>1319.4</ele>
        <time>2000-01-01T02:13:34.000Z</time>
      </trkpt>
      <trkpt lat="45.32766" lon="5.8813">
        <ele>1294</ele>
        <time>2000-01-01T02:13:44.000Z</time>
      </trkpt>
      <trkpt lat="45.32784" lon="5.88153">
        <ele>1295</ele>
        <time>2000-01-01T02:13:54.000Z</time>
      </trkpt>
      <trkpt lat="45.32802" lon="5.88176">
        <ele>1298</ele>
        <time>2000-01-01T02:14:04.000Z</time>
      </trkpt>
      <trkpt lat="45.32825" lon="5.88173">
        <ele>1307</ele>
        <time>2000-01-01T02:14:14.000Z</time>
      </trkpt>
      <trkpt lat="45.32838" lon="5.8817">
        <ele>1316.5</ele>
        <time>2000-01-01T02:14:24.000Z</time>
      </trkpt>
      <trkpt lat="45.32832" lon="5.88143">
        <ele>1310</ele>
        <time>2000-01-01T02:14:34.000Z</time>
      </trkpt>
      <trkpt lat="45.3281" lon="5.88131">
        <ele>1314</ele>
        <time>2000-01-01T02:14:44.000Z</time>
      </trkpt>
      <trkpt lat="45.32809" lon="5.88118">
        <ele>1323.2</ele>
        <time>2000-01-01T02:14:54.000Z</time>
      </trkpt>
      <trkpt lat="45.32835" lon="5.88119">
        <ele>1316</ele>
        <time>2000-01-01T02:15:04.000Z</time>
      </trkpt>
      <trkpt lat="45.3286" lon="5.8812">
        <ele>1316</ele>
        <time>2000-01-01T02:15:14.000Z</time>
      </trkpt>
      <trkpt lat="45.32888" lon="5.88106">
        <ele>1317</ele>
        <time>2000-01-01T02:15:24.000Z</time>
      </trkpt>
      <trkpt lat="45.32919" lon="5.88095">
        <ele>1321</ele>
        <time>2000-01-01T02:15:34.000Z</time>
      </trkpt>
      <trkpt lat="45.32942" lon="5.881">
        <ele>1325</ele>
        <time>2000-01-01T02:15:44.000Z</time>
      </trkpt>
      <trkpt lat="45.32966" lon="5.88109">
        <ele>1323</ele>
        <time>2000-01-01T02:15:54.000Z</time>
      </trkpt>
      <trkpt lat="45.32976" lon="5.88122">
        <ele>1355.9</ele>
        <time>2000-01-01T02:16:04.000Z</time>
      </trkpt>
      <trkpt lat="45.32985" lon="5.88139">
        <ele>1325</ele>
        <time>2000-01-01T02:16:14.000Z</time>
      </trkpt>
      <trkpt lat="45.32994" lon="5.88169">
        <ele>1323</ele>
        <time>2000-01-01T02:16:24.000Z</time>
      </trkpt>
      <trkpt lat="45.33002" lon="5.88233">
        <ele>1332</ele>
        <time>2000-01-01T02:16:34.000Z</time>
      </trkpt>
      <trkpt lat="45.33012" lon="5.88249">
        <ele>1334.4</ele>
        <time>2000-01-01T02:16:44.000Z</time>
      </trkpt>
      <trkpt lat="45.33028" lon="5.88265">
        <ele>1329</ele>
        <time>2000-01-01T02:16:54.000Z</time>
      </trkpt>
      <trkpt lat="45.33045" lon="5.88282">
        <ele>1332</ele>
        <time>2000-01-01T02:17:04.000Z</time>
      </trkpt>
      <trkpt lat="45.33066" lon="5.88286">
        <ele>1335</ele>
        <time>2000-01-01T02:17:14.000Z</time>
      </trkpt>
      <trkpt lat="45.33079" lon="5.88286">
        <ele>1340.5</ele>
        <time>2000-01-01T02:17:24.000Z</time>
      </trkpt>
      <trkpt lat="45.33112" lon="5.88298">
        <ele>1331</ele>
        <time>2000-01-01T02:17:34.000Z</time>
      </trkpt>
      <trkpt lat="45.33111" lon="5.88355">
        <ele>1333</ele>
        <time>2000-01-01T02:17:44.000Z</time>
      </trkpt>
      <trkpt lat="45.33118" lon="5.88377">
        <ele>1339.9</ele>
        <time>2000-01-01T02:17:54.000Z</time>
      </trkpt>
      <trkpt lat="45.33139" lon="5.88407">
        <ele>1332</ele>
        <time>2000-01-01T02:18:04.000Z</time>
      </trkpt>
      <trkpt lat="45.3315" lon="5.88417">
        <ele>1330.8</ele>
        <time>2000-01-01T02:18:14.000Z</time>
      </trkpt>
      <trkpt lat="45.33177" lon="5.88417">
        <ele>1332</ele>
        <time>2000-01-01T02:18:24.000Z</time>
      </trkpt>
      <trkpt lat="45.33185" lon="5.88409">
        <ele>1361</ele>
        <time>2000-01-01T02:18:34.000Z</time>
      </trkpt>
      <trkpt lat="45.33204" lon="5.88402">
        <ele>1349</ele>
        <time>2000-01-01T02:18:44.000Z</time>
      </trkpt>
      <trkpt lat="45.33217" lon="5.88417">
        <ele>1355.6</ele>
        <time>2000-01-01T02:18:54.000Z</time>
      </trkpt>
      <trkpt lat="45.33219" lon="5.88437">
        <ele>1335</ele>
        <time>2000-01-01T02:19:04.000Z</time>
      </trkpt>
      <trkpt lat="45.33215" lon="5.88456">
        <ele>1349.8</ele>
        <time>2000-01-01T02:19:14.000Z</time>
      </trkpt>
      <trkpt lat="45.33203" lon="5.88481">
        <ele>1322</ele>
        <time>2000-01-01T02:19:24.000Z</time>
      </trkpt>
      <trkpt lat="45.33182" lon="5.88516">
        <ele>1308</ele>
        <time>2000-01-01T02:19:34.000Z</time>
      </trkpt>
      <trkpt lat="45.33177" lon="5.8856">
        <ele>1307</ele>
        <time>2000-01-01T02:19:44.000Z</time>
      </trkpt>
      <trkpt lat="45.33181" lon="5.88596">
        <ele>1302</ele>
        <time>2000-01-01T02:19:54.000Z</time>
      </trkpt>
      <trkpt lat="45.3319" lon="5.88622">
        <ele>1305</ele>
        <time>2000-01-01T02:20:04.000Z</time>
      </trkpt>
      <trkpt lat="45.33205" lon="5.8866">
        <ele>1309</ele>
        <time>2000-01-01T02:20:14.000Z</time>
      </trkpt>
      <trkpt lat="45.33233" lon="5.88656">
        <ele>1322</ele>
        <time>2000-01-01T02:20:24.000Z</time>
      </trkpt>
      <trkpt lat="45.33242" lon="5.8865">
        <ele>1325.4</ele>
        <time>2000-01-01T02:20:34.000Z</time>
      </trkpt>
      <trkpt lat="45.3325" lon="5.88643">
        <ele>1330</ele>
        <time>2000-01-01T02:20:44.000Z</time>
      </trkpt>
      <trkpt lat="45.33254" lon="5.88637">
        <ele>1345.2</ele>
        <time>2000-01-01T02:20:54.000Z</time>
      </trkpt>
      <trkpt lat="45.33252" lon="5.88623">
        <ele>1347.8</ele>
        <time>2000-01-01T02:21:04.000Z</time>
      </trkpt>
      <trkpt lat="45.33241" lon="5.886">
        <ele>1337</ele>
        <time>2000-01-01T02:21:14.000Z</time>
      </trkpt>
      <trkpt lat="45.33249" lon="5.88576">
        <ele>1345</ele>
        <time>2000-01-01T02:21:24.000Z</time>
      </trkpt>
      <trkpt lat="45.33242" lon="5.8855">
        <ele>1350</ele>
        <time>2000-01-01T02:21:34.000Z</time>
      </trkpt>
      <trkpt lat="45.33247" lon="5.8851">
        <ele>1351</ele>
        <time>2000-01-01T02:21:44.000Z</time>
      </trkpt>
      <trkpt lat="45.33287" lon="5.8853">
        <ele>1363</ele>
        <time>2000-01-01T02:21:54.000Z</time>
      </trkpt>
      <trkpt lat="45.33301" lon="5.88502">
        <ele>1377</ele>
        <time>2000-01-01T02:22:04.000Z</time>
      </trkpt>
      <trkpt lat="45.33299" lon="5.88478">
        <ele>1384.7</ele>
        <time>2000-01-01T02:22:14.000Z</time>
      </trkpt>
      <trkpt lat="45.33345" lon="5.88468">
        <ele>1392</ele>
        <time>2000-01-01T02:22:24.000Z</time>
      </trkpt>
      <trkpt lat="45.33355" lon="5.88458">
        <ele>1418</ele>
        <time>2000-01-01T02:22:34.000Z</time>
      </trkpt>
      <trkpt lat="45.3335" lon="5.88399">
        <ele>1406</ele>
        <time>2000-01-01T02:22:44.000Z</time>
      </trkpt>
      <trkpt lat="45.33342" lon="5.88363">
        <ele>1421</ele>
        <time>2000-01-01T02:22:54.000Z</time>
      </trkpt>
      <trkpt lat="45.33326" lon="5.88326">
        <ele>1430</ele>
        <time>2000-01-01T02:23:04.000Z</time>
      </trkpt>
      <trkpt lat="45.33312" lon="5.88295">
        <ele>1435</ele>
        <time>2000-01-01T02:23:14.000Z</time>
      </trkpt>
      <trkpt lat="45.33289" lon="5.88252">
        <ele>1440</ele>
        <time>2000-01-01T02:23:24.000Z</time>
      </trkpt>
      <trkpt lat="45.33265" lon="5.88216">
        <ele>1440</ele>
        <time>2000-01-01T02:23:34.000Z</time>
      </trkpt>
      <trkpt lat="45.33247" lon="5.88188">
        <ele>1468</ele>
        <time>2000-01-01T02:23:44.000Z</time>
      </trkpt>
      <trkpt lat="45.33251" lon="5.88182">
        <ele>1480.5</ele>
        <time>2000-01-01T02:23:54.000Z</time>
      </trkpt>
      <trkpt lat="45.33268" lon="5.88178">
        <ele>1468</ele>
        <time>2000-01-01T02:24:04.000Z</time>
      </trkpt>
      <trkpt lat="45.33255" lon="5.88149">
        <ele>1477</ele>
        <time>2000-01-01T02:24:14.000Z</time>
      </trkpt>
      <trkpt lat="45.33256" lon="5.8814">
        <ele>1505.7</ele>
        <time>2000-01-01T02:24:24.000Z</time>
      </trkpt>
      <trkpt lat="45.33276" lon="5.88145">
        <ele>1481</ele>
        <time>2000-01-01T02:24:34.000Z</time>
      </trkpt>
      <trkpt lat="45.33269" lon="5.88106">
        <ele>1486</ele>
        <time>2000-01-01T02:24:44.000Z</time>
      </trkpt>
      <trkpt lat="45.33259" lon="5.88053">
        <ele>1508</ele>
        <time>2000-01-01T02:24:54.000Z</time>
      </trkpt>
      <trkpt lat="45.33261" lon="5.88044">
        <ele>1545.9</ele>
        <time>2000-01-01T02:25:04.000Z</time>
      </trkpt>
      <trkpt lat="45.33281" lon="5.88049">
        <ele>1534</ele>
        <time>2000-01-01T02:25:14.000Z</time>
      </trkpt>
      <trkpt lat="45.33275" lon="5.88033">
        <ele>1550.4</ele>
        <time>2000-01-01T02:25:24.000Z</time>
      </trkpt>
      <trkpt lat="45.33269" lon="5.88009">
        <ele>1537</ele>
        <time>2000-01-01T02:25:34.000Z</time>
      </trkpt>
      <trkpt lat="45.33272" lon="5.87998">
        <ele>1569.2</ele>
        <time>2000-01-01T02:25:44.000Z</time>
      </trkpt>
      <trkpt lat="45.33301" lon="5.88021">
        <ele>1547</ele>
        <time>2000-01-01T02:25:54.000Z</time>
      </trkpt>
      <trkpt lat="45.33294" lon="5.87986">
        <ele>1562</ele>
        <time>2000-01-01T02:26:04.000Z</time>
      </trkpt>
      <trkpt lat="45.33325" lon="5.87998">
        <ele>1573</ele>
        <time>2000-01-01T02:26:14.000Z</time>
      </trkpt>
      <trkpt lat="45.33311" lon="5.87965">
        <ele>1573</ele>
        <time>2000-01-01T02:26:24.000Z</time>
      </trkpt>
      <trkpt lat="45.33329" lon="5.87963">
        <ele>1584</ele>
        <time>2000-01-01T02:26:34.000Z</time>
      </trkpt>
      <trkpt lat="45.33342" lon="5.87976">
        <ele>1585</ele>
        <time>2000-01-01T02:26:44.000Z</time>
      </trkpt>
      <trkpt lat="45.33375" lon="5.88019">
        <ele>1591</ele>
        <time>2000-01-01T02:26:54.000Z</time>
      </trkpt>
      <trkpt lat="45.33389" lon="5.88021">
        <ele>1588.5</ele>
        <time>2000-01-01T02:27:04.000Z</time>
      </trkpt>
      <trkpt lat="45.3342" lon="5.88024">
        <ele>1600</ele>
        <time>2000-01-01T02:27:14.000Z</time>
      </trkpt>
      <trkpt lat="45.33446" lon="5.88026">
        <ele>1603</ele>
        <time>2000-01-01T02:27:24.000Z</time>
      </trkpt>
      <trkpt lat="45.33471" lon="5.88028">
        <ele>1612</ele>
        <time>2000-01-01T02:27:34.000Z</time>
      </trkpt>
      <trkpt lat="45.33492" lon="5.88041">
        <ele>1612</ele>
        <time>2000-01-01T02:27:44.000Z</time>
      </trkpt>
      <trkpt lat="45.33503" lon="5.88069">
        <ele>1612</ele>
        <time>2000-01-01T02:27:54.000Z</time>
      </trkpt>
      <trkpt lat="45.33524" lon="5.88101">
        <ele>1609</ele>
        <time>2000-01-01T02:28:04.000Z</time>
      </trkpt>
      <trkpt lat="45.33562" lon="5.8814">
        <ele>1607</ele>
        <time>2000-01-01T02:28:14.000Z</time>
      </trkpt>
      <trkpt lat="45.33579" lon="5.88146">
        <ele>1596.1</ele>
        <time>2000-01-01T02:28:24.000Z</time>
      </trkpt>
      <trkpt lat="45.33614" lon="5.88199">
        <ele>1599</ele>
        <time>2000-01-01T02:28:34.000Z</time>
      </trkpt>
      <trkpt lat="45.33634" lon="5.8823">
        <ele>1583</ele>
        <time>2000-01-01T02:28:44.000Z</time>
      </trkpt>
      <trkpt lat="45.33648" lon="5.88263">
        <ele>1579</ele>
        <time>2000-01-01T02:28:54.000Z</time>
      </trkpt>
      <trkpt lat="45.33659" lon="5.88281">
        <ele>1563.2</ele>
        <time>2000-01-01T02:29:04.000Z</time>
      </trkpt>
      <trkpt lat="45.3366" lon="5.88292">
        <ele>1575</ele>
        <time>2000-01-01T02:29:14.000Z</time>
      </trkpt>
      <trkpt lat="45.33655" lon="5.88297">
        <ele>1559</ele>
        <time>2000-01-01T02:29:24.000Z</time>
      </trkpt>
      <trkpt lat="45.33644" lon="5.88298">
        <ele>1557.6</ele>
        <time>2000-01-01T02:29:34.000Z</time>
      </trkpt>
      <trkpt lat="45.33621" lon="5.88295">
        <ele>1561</ele>
        <time>2000-01-01T02:29:44.000Z</time>
      </trkpt>
      <trkpt lat="45.33624" lon="5.88331">
        <ele>1556</ele>
        <time>2000-01-01T02:29:54.000Z</time>
      </trkpt>
      <trkpt lat="45.33646" lon="5.88348">
        <ele>1551</ele>
        <time>2000-01-01T02:30:04.000Z</time>
      </trkpt>
      <trkpt lat="45.33667" lon="5.88364">
        <ele>1546</ele>
        <time>2000-01-01T02:30:14.000Z</time>
      </trkpt>
      <trkpt lat="45.33687" lon="5.88377">
        <ele>1546</ele>
        <time>2000-01-01T02:30:24.000Z</time>
      </trkpt>
      <trkpt lat="45.33703" lon="5.88394">
        <ele>1544</ele>
        <time>2000-01-01T02:30:34.000Z</time>
      </trkpt>
      <trkpt lat="45.3372" lon="5.88415">
        <ele>1540</ele>
        <time>2000-01-01T02:30:44.000Z</time>
      </trkpt>
      <trkpt lat="45.33733" lon="5.88441">
        <ele>1530</ele>
        <time>2000-01-01T02:30:54.000Z</time>
      </trkpt>
      <trkpt lat="45.33755" lon="5.88462">
        <ele>1530</ele>
        <time>2000-01-01T02:31:04.000Z</time>
      </trkpt>
      <trkpt lat="45.33776" lon="5.88481">
        <ele>1530</ele>
        <time>2000-01-01T02:31:14.000Z</time>
      </trkpt>
      <trkpt lat="45.33802" lon="5.88499">
        <ele>1531</ele>
        <time>2000-01-01T02:31:24.000Z</time>
      </trkpt>
      <trkpt lat="45.33821" lon="5.88506">
        <ele>1533</ele>
        <time>2000-01-01T02:31:34.000Z</time>
      </trkpt>
      <trkpt lat="45.33855" lon="5.88527">
        <ele>1535</ele>
        <time>2000-01-01T02:31:44.000Z</time>
      </trkpt>
      <trkpt lat="45.33879" lon="5.88548">
        <ele>1535</ele>
        <time>2000-01-01T02:31:54.000Z</time>
      </trkpt>
      <trkpt lat="45.33907" lon="5.88573">
        <ele>1529</ele>
        <time>2000-01-01T02:32:04.000Z</time>
      </trkpt>
      <trkpt lat="45.33932" lon="5.88597">
        <ele>1523</ele>
        <time>2000-01-01T02:32:14.000Z</time>
      </trkpt>
      <trkpt lat="45.33954" lon="5.88618">
        <ele>1523</ele>
        <time>2000-01-01T02:32:24.000Z</time>
      </trkpt>
      <trkpt lat="45.33977" lon="5.88629">
        <ele>1522</ele>
        <time>2000-01-01T02:32:34.000Z</time>
      </trkpt>
      <trkpt lat="45.34002" lon="5.88642">
        <ele>1521</ele>
        <time>2000-01-01T02:32:44.000Z</time>
      </trkpt>
      <trkpt lat="45.34017" lon="5.88653">
        <ele>1527.7</ele>
        <time>2000-01-01T02:32:54.000Z</time>
      </trkpt>
      <trkpt lat="45.34045" lon="5.88671">
        <ele>1532</ele>
        <time>2000-01-01T02:33:04.000Z</time>
      </trkpt>
      <trkpt lat="45.34068" lon="5.88686">
        <ele>1528</ele>
        <time>2000-01-01T02:33:14.000Z</time>
      </trkpt>
      <trkpt lat="45.34091" lon="5.88703">
        <ele>1525</ele>
        <time>2000-01-01T02:33:24.000Z</time>
      </trkpt>
      <trkpt lat="45.34115" lon="5.88716">
        <ele>1512</ele>
        <time>2000-01-01T02:33:34.000Z</time>
      </trkpt>
      <trkpt lat="45.34127" lon="5.8872">
        <ele>1507.8</ele>
        <time>2000-01-01T02:33:44.000Z</time>
      </trkpt>
      <trkpt lat="45.34142" lon="5.88725">
        <ele>1509</ele>
        <time>2000-01-01T02:33:54.000Z</time>
      </trkpt>
      <trkpt lat="45.34155" lon="5.88724">
        <ele>1505.6</ele>
        <time>2000-01-01T02:34:04.000Z</time>
      </trkpt>
      <trkpt lat="45.34187" lon="5.887">
        <ele>1510</ele>
        <time>2000-01-01T02:34:14.000Z</time>
      </trkpt>
      <trkpt lat="45.34197" lon="5.88698">
        <ele>1515.2</ele>
        <time>2000-01-01T02:34:24.000Z</time>
      </trkpt>
      <trkpt lat="45.34206" lon="5.88698">
        <ele>1506</ele>
        <time>2000-01-01T02:34:34.000Z</time>
      </trkpt>
      <trkpt lat="45.34232" lon="5.88735">
        <ele>1505</ele>
        <time>2000-01-01T02:34:44.000Z</time>
      </trkpt>
      <trkpt lat="45.34251" lon="5.88762">
        <ele>1504</ele>
        <time>2000-01-01T02:34:54.000Z</time>
      </trkpt>
      <trkpt lat="45.34269" lon="5.88783">
        <ele>1497</ele>
        <time>2000-01-01T02:35:04.000Z</time>
      </trkpt>
      <trkpt lat="45.34299" lon="5.88807">
        <ele>1485</ele>
        <time>2000-01-01T02:35:14.000Z</time>
      </trkpt>
      <trkpt lat="45.34306" lon="5.88811">
        <ele>1483.9</ele>
        <time>2000-01-01T02:35:24.000Z</time>
      </trkpt>
      <trkpt lat="45.34321" lon="5.8881">
        <ele>1484</ele>
        <time>2000-01-01T02:35:34.000Z</time>
      </trkpt>
      <trkpt lat="45.34345" lon="5.88802">
        <ele>1484</ele>
        <time>2000-01-01T02:35:44.000Z</time>
      </trkpt>
      <trkpt lat="45.34367" lon="5.88806">
        <ele>1483</ele>
        <time>2000-01-01T02:35:54.000Z</time>
      </trkpt>
      <trkpt lat="45.34403" lon="5.88832">
        <ele>1471</ele>
        <time>2000-01-01T02:36:04.000Z</time>
      </trkpt>
      <trkpt lat="45.34435" lon="5.88835">
        <ele>1469</ele>
        <time>2000-01-01T02:36:14.000Z</time>
      </trkpt>
      <trkpt lat="45.34455" lon="5.88836">
        <ele>1469</ele>
        <time>2000-01-01T02:36:24.000Z</time>
      </trkpt>
      <trkpt lat="45.34468" lon="5.88845">
        <ele>1470.5</ele>
        <time>2000-01-01T02:36:34.000Z</time>
      </trkpt>
      <trkpt lat="45.345" lon="5.88874">
        <ele>1470</ele>
        <time>2000-01-01T02:36:44.000Z</time>
      </trkpt>
      <trkpt lat="45.34521" lon="5.88892">
        <ele>1471</ele>
        <time>2000-01-01T02:36:54.000Z</time>
      </trkpt>
      <trkpt lat="45.34541" lon="5.8891">
        <ele>1471</ele>
        <time>2000-01-01T02:37:04.000Z</time>
      </trkpt>
      <trkpt lat="45.34575" lon="5.88935">
        <ele>1468</ele>
        <time>2000-01-01T02:37:14.000Z</time>
      </trkpt>
      <trkpt lat="45.34618" lon="5.88956">
        <ele>1466</ele>
        <time>2000-01-01T02:37:24.000Z</time>
      </trkpt>
      <trkpt lat="45.34644" lon="5.88967">
        <ele>1463</ele>
        <time>2000-01-01T02:37:34.000Z</time>
      </trkpt>
      <trkpt lat="45.34668" lon="5.88976">
        <ele>1460</ele>
        <time>2000-01-01T02:37:44.000Z</time>
      </trkpt>
      <trkpt lat="45.34711" lon="5.88995">
        <ele>1456</ele>
        <time>2000-01-01T02:37:54.000Z</time>
      </trkpt>
      <trkpt lat="45.34739" lon="5.89008">
        <ele>1456</ele>
        <time>2000-01-01T02:38:04.000Z</time>
      </trkpt>
      <trkpt lat="45.34765" lon="5.8902">
        <ele>1452</ele>
        <time>2000-01-01T02:38:14.000Z</time>
      </trkpt>
      <trkpt lat="45.34788" lon="5.89032">
        <ele>1449</ele>
        <time>2000-01-01T02:38:24.000Z</time>
      </trkpt>
      <trkpt lat="45.34817" lon="5.89048">
        <ele>1447</ele>
        <time>2000-01-01T02:38:34.000Z</time>
      </trkpt>
      <trkpt lat="45.34841" lon="5.89061">
        <ele>1437</ele>
        <time>2000-01-01T02:38:44.000Z</time>
      </trkpt>
      <trkpt lat="45.34877" lon="5.89083">
        <ele>1436</ele>
        <time>2000-01-01T02:38:54.000Z</time>
      </trkpt>
      <trkpt lat="45.34902" lon="5.89099">
        <ele>1436</ele>
        <time>2000-01-01T02:39:04.000Z</time>
      </trkpt>
      <trkpt lat="45.34921" lon="5.89128">
        <ele>1435</ele>
        <time>2000-01-01T02:39:14.000Z</time>
      </trkpt>
      <trkpt lat="45.34938" lon="5.89154">
        <ele>1431</ele>
        <time>2000-01-01T02:39:24.000Z</time>
      </trkpt>
      <trkpt lat="45.34972" lon="5.89194">
        <ele>1427</ele>
        <time>2000-01-01T02:39:34.000Z</time>
      </trkpt>
      <trkpt lat="45.35008" lon="5.89236">
        <ele>1421</ele>
        <time>2000-01-01T02:39:44.000Z</time>
      </trkpt>
      <trkpt lat="45.35021" lon="5.89256">
        <ele>1416.8</ele>
        <time>2000-01-01T02:39:54.000Z</time>
      </trkpt>
      <trkpt lat="45.35032" lon="5.89286">
        <ele>1403</ele>
        <time>2000-01-01T02:40:04.000Z</time>
      </trkpt>
      <trkpt lat="45.35043" lon="5.89315">
        <ele>1396</ele>
        <time>2000-01-01T02:40:14.000Z</time>
      </trkpt>
      <trkpt lat="45.35045" lon="5.8935">
        <ele>1390</ele>
        <time>2000-01-01T02:40:24.000Z</time>
      </trkpt>
      <trkpt lat="45.35046" lon="5.89384">
        <ele>1378</ele>
        <time>2000-01-01T02:40:34.000Z</time>
      </trkpt>
      <trkpt lat="45.35045" lon="5.89421">
        <ele>1375</ele>
        <time>2000-01-01T02:40:44.000Z</time>
      </trkpt>
      <trkpt lat="45.35043" lon="5.89467">
        <ele>1367</ele>
        <time>2000-01-01T02:40:54.000Z</time>
      </trkpt>
      <trkpt lat="45.35042" lon="5.89517">
        <ele>1364</ele>
        <time>2000-01-01T02:41:04.000Z</time>
      </trkpt>
      <trkpt lat="45.3504" lon="5.89566">
        <ele>1357</ele>
        <time>2000-01-01T02:41:14.000Z</time>
      </trkpt>
      <trkpt lat="45.35047" lon="5.89601">
        <ele>1351</ele>
        <time>2000-01-01T02:41:24.000Z</time>
      </trkpt>
      <trkpt lat="45.35053" lon="5.89635">
        <ele>1348</ele>
        <time>2000-01-01T02:41:34.000Z</time>
      </trkpt>
      <trkpt lat="45.3507" lon="5.89673">
        <ele>1346</ele>
        <time>2000-01-01T02:41:44.000Z</time>
      </trkpt>
      <trkpt lat="45.35074" lon="5.89701">
        <ele>1345</ele>
        <time>2000-01-01T02:41:54.000Z</time>
      </trkpt>
      <trkpt lat="45.35086" lon="5.89729">
        <ele>1345</ele>
        <time>2000-01-01T02:42:04.000Z</time>
      </trkpt>
      <trkpt lat="45.35086" lon="5.89744">
        <ele>1339.2</ele>
        <time>2000-01-01T02:42:14.000Z</time>
      </trkpt>
      <trkpt lat="45.35126" lon="5.8976">
        <ele>1345</ele>
        <time>2000-01-01T02:42:24.000Z</time>
      </trkpt>
      <trkpt lat="45.35153" lon="5.89772">
        <ele>1357</ele>
        <time>2000-01-01T02:42:34.000Z</time>
      </trkpt>
      <trkpt lat="45.35175" lon="5.89784">
        <ele>1371</ele>
        <time>2000-01-01T02:42:44.000Z</time>
      </trkpt>
      <trkpt lat="45.35204" lon="5.89808">
        <ele>1375</ele>
        <time>2000-01-01T02:42:54.000Z</time>
      </trkpt>
      <trkpt lat="45.35227" lon="5.89827">
        <ele>1382</ele>
        <time>2000-01-01T02:43:04.000Z</time>
      </trkpt>
      <trkpt lat="45.35251" lon="5.89873">
        <ele>1392</ele>
        <time>2000-01-01T02:43:14.000Z</time>
      </trkpt>
      <trkpt lat="45.35271" lon="5.899">
        <ele>1392</ele>
        <time>2000-01-01T02:43:24.000Z</time>
      </trkpt>
      <trkpt lat="45.35279" lon="5.89916">
        <ele>1408</ele>
        <time>2000-01-01T02:43:34.000Z</time>
      </trkpt>
      <trkpt lat="45.35297" lon="5.8996">
        <ele>1392</ele>
        <time>2000-01-01T02:43:44.000Z</time>
      </trkpt>
      <trkpt lat="45.35318" lon="5.89982">
        <ele>1410</ele>
        <time>2000-01-01T02:43:54.000Z</time>
      </trkpt>
      <trkpt lat="45.35338" lon="5.90003">
        <ele>1412</ele>
        <time>2000-01-01T02:44:04.000Z</time>
      </trkpt>
      <trkpt lat="45.3535" lon="5.90029">
        <ele>1414</ele>
        <time>2000-01-01T02:44:14.000Z</time>
      </trkpt>
      <trkpt lat="45.35367" lon="5.90056">
        <ele>1425</ele>
        <time>2000-01-01T02:44:24.000Z</time>
      </trkpt>
      <trkpt lat="45.35383" lon="5.9008">
        <ele>1434</ele>
        <time>2000-01-01T02:44:34.000Z</time>
      </trkpt>
      <trkpt lat="45.35413" lon="5.90102">
        <ele>1443</ele>
        <time>2000-01-01T02:44:44.000Z</time>
      </trkpt>
      <trkpt lat="45.3541" lon="5.90166">
        <ele>1447</ele>
        <time>2000-01-01T02:44:54.000Z</time>
      </trkpt>
      <trkpt lat="45.35413" lon="5.90178">
        <ele>1440.1</ele>
        <time>2000-01-01T02:45:04.000Z</time>
      </trkpt>
      <trkpt lat="45.35415" lon="5.90212">
        <ele>1451</ele>
        <time>2000-01-01T02:45:14.000Z</time>
      </trkpt>
      <trkpt lat="45.35423" lon="5.90238">
        <ele>1451</ele>
        <time>2000-01-01T02:45:24.000Z</time>
      </trkpt>
      <trkpt lat="45.35434" lon="5.90269">
        <ele>1455</ele>
        <time>2000-01-01T02:45:34.000Z</time>
      </trkpt>
      <trkpt lat="45.35443" lon="5.90282">
        <ele>1447.9</ele>
        <time>2000-01-01T02:45:44.000Z</time>
      </trkpt>
      <trkpt lat="45.35469" lon="5.90279">
        <ele>1460</ele>
        <time>2000-01-01T02:45:54.000Z</time>
      </trkpt>
      <trkpt lat="45.35477" lon="5.90292">
        <ele>1449.6</ele>
        <time>2000-01-01T02:46:04.000Z</time>
      </trkpt>
      <trkpt lat="45.35509" lon="5.90257">
        <ele>1460</ele>
        <time>2000-01-01T02:46:14.000Z</time>
      </trkpt>
      <trkpt lat="45.35523" lon="5.90275">
        <ele>1460</ele>
        <time>2000-01-01T02:46:24.000Z</time>
      </trkpt>
      <trkpt lat="45.35494" lon="5.903">
        <ele>1454</ele>
        <time>2000-01-01T02:46:34.000Z</time>
      </trkpt>
      <trkpt lat="45.35494" lon="5.90322">
        <ele>1446</ele>
        <time>2000-01-01T02:46:44.000Z</time>
      </trkpt>
      <trkpt lat="45.3553" lon="5.90318">
        <ele>1452</ele>
        <time>2000-01-01T02:46:54.000Z</time>
      </trkpt>
      <trkpt lat="45.35522" lon="5.90345">
        <ele>1444</ele>
        <time>2000-01-01T02:47:04.000Z</time>
      </trkpt>
      <trkpt lat="45.35555" lon="5.90337">
        <ele>1435</ele>
        <time>2000-01-01T02:47:14.000Z</time>
      </trkpt>
      <trkpt lat="45.35579" lon="5.90344">
        <ele>1435</ele>
        <time>2000-01-01T02:47:24.000Z</time>
      </trkpt>
      <trkpt lat="45.35603" lon="5.90351">
        <ele>1431</ele>
        <time>2000-01-01T02:47:34.000Z</time>
      </trkpt>
      <trkpt lat="45.35618" lon="5.90378">
        <ele>1431</ele>
        <time>2000-01-01T02:47:44.000Z</time>
      </trkpt>
      <trkpt lat="45.35633" lon="5.90404">
        <ele>1431</ele>
        <time>2000-01-01T02:47:54.000Z</time>
      </trkpt>
      <trkpt lat="45.35649" lon="5.90437">
        <ele>1423</ele>
        <time>2000-01-01T02:48:04.000Z</time>
      </trkpt>
      <trkpt lat="45.35665" lon="5.90485">
        <ele>1409</ele>
        <time>2000-01-01T02:48:14.000Z</time>
      </trkpt>
      <trkpt lat="45.35669" lon="5.9052">
        <ele>1393</ele>
        <time>2000-01-01T02:48:24.000Z</time>
      </trkpt>
      <trkpt lat="45.35683" lon="5.90559">
        <ele>1383</ele>
        <time>2000-01-01T02:48:34.000Z</time>
      </trkpt>
      <trkpt lat="45.35707" lon="5.90606">
        <ele>1367</ele>
        <time>2000-01-01T02:48:44.000Z</time>
      </trkpt>
      <trkpt lat="45.35723" lon="5.90638">
        <ele>1367</ele>
        <time>2000-01-01T02:48:54.000Z</time>
      </trkpt>
      <trkpt lat="45.35745" lon="5.90688">
        <ele>1355</ele>
        <time>2000-01-01T02:49:04.000Z</time>
      </trkpt>
      <trkpt lat="45.3576" lon="5.90722">
        <ele>1344</ele>
        <time>2000-01-01T02:49:14.000Z</time>
      </trkpt>
      <trkpt lat="45.35777" lon="5.90751">
        <ele>1340</ele>
        <time>2000-01-01T02:49:24.000Z</time>
      </trkpt>
      <trkpt lat="45.35801" lon="5.90779">
        <ele>1320</ele>
        <time>2000-01-01T02:49:34.000Z</time>
      </trkpt>
      <trkpt lat="45.35805" lon="5.90788">
        <ele>1334.1</ele>
        <time>2000-01-01T02:49:44.000Z</time>
      </trkpt>
      <trkpt lat="45.35801" lon="5.90867">
        <ele>1305</ele>
        <time>2000-01-01T02:49:54.000Z</time>
      </trkpt>
      <trkpt lat="45.35804" lon="5.90885">
        <ele>1304.7</ele>
        <time>2000-01-01T02:50:04.000Z</time>
      </trkpt>
      <trkpt lat="45.35809" lon="5.90901">
        <ele>1297</ele>
        <time>2000-01-01T02:50:14.000Z</time>
      </trkpt>
      <trkpt lat="45.35819" lon="5.90915">
        <ele>1303.6</ele>
        <time>2000-01-01T02:50:24.000Z</time>
      </trkpt>
      <trkpt lat="45.35839" lon="5.90938">
        <ele>1296</ele>
        <time>2000-01-01T02:50:34.000Z</time>
      </trkpt>
      <trkpt lat="45.35866" lon="5.9096">
        <ele>1296</ele>
        <time>2000-01-01T02:50:44.000Z</time>
      </trkpt>
      <trkpt lat="45.35881" lon="5.90975">
        <ele>1297.8</ele>
        <time>2000-01-01T02:50:54.000Z</time>
      </trkpt>
      <trkpt lat="45.35894" lon="5.90992">
        <ele>1295</ele>
        <time>2000-01-01T02:51:04.000Z</time>
      </trkpt>
      <trkpt lat="45.35922" lon="5.91046">
        <ele>1290</ele>
        <time>2000-01-01T02:51:14.000Z</time>
      </trkpt>
      <trkpt lat="45.35943" lon="5.91081">
        <ele>1266</ele>
        <time>2000-01-01T02:51:24.000Z</time>
      </trkpt>
      <trkpt lat="45.3596" lon="5.91109">
        <ele>1254</ele>
        <time>2000-01-01T02:51:34.000Z</time>
      </trkpt>
      <trkpt lat="45.35984" lon="5.91145">
        <ele>1245</ele>
        <time>2000-01-01T02:51:44.000Z</time>
      </trkpt>
      <trkpt lat="45.35992" lon="5.91157">
        <ele>1239.7</ele>
        <time>2000-01-01T02:51:54.000Z</time>
      </trkpt>
      <trkpt lat="45.35992" lon="5.9118">
        <ele>1236</ele>
        <time>2000-01-01T02:52:04.000Z</time>
      </trkpt>
      <trkpt lat="45.35966" lon="5.91181">
        <ele>1233</ele>
        <time>2000-01-01T02:52:14.000Z</time>
      </trkpt>
      <trkpt lat="45.35939" lon="5.91187">
        <ele>1231</ele>
        <time>2000-01-01T02:52:24.000Z</time>
      </trkpt>
      <trkpt lat="45.35907" lon="5.91213">
        <ele>1207</ele>
        <time>2000-01-01T02:52:34.000Z</time>
      </trkpt>
      <trkpt lat="45.35883" lon="5.91233">
        <ele>1207</ele>
        <time>2000-01-01T02:52:44.000Z</time>
      </trkpt>
      <trkpt lat="45.35852" lon="5.9126">
        <ele>1200</ele>
        <time>2000-01-01T02:52:54.000Z</time>
      </trkpt>
      <trkpt lat="45.35823" lon="5.91284">
        <ele>1191</ele>
        <time>2000-01-01T02:53:04.000Z</time>
      </trkpt>
      <trkpt lat="45.35808" lon="5.91305">
        <ele>1180</ele>
        <time>2000-01-01T02:53:14.000Z</time>
      </trkpt>
      <trkpt lat="45.35779" lon="5.91317">
        <ele>1176</ele>
        <time>2000-01-01T02:53:24.000Z</time>
      </trkpt>
      <trkpt lat="45.35758" lon="5.91323">
        <ele>1170</ele>
        <time>2000-01-01T02:53:34.000Z</time>
      </trkpt>
      <trkpt lat="45.35717" lon="5.91339">
        <ele>1166</ele>
        <time>2000-01-01T02:53:44.000Z</time>
      </trkpt>
      <trkpt lat="45.35696" lon="5.91346">
        <ele>1163</ele>
        <time>2000-01-01T02:53:54.000Z</time>
      </trkpt>
      <trkpt lat="45.35669" lon="5.9135">
        <ele>1162</ele>
        <time>2000-01-01T02:54:04.000Z</time>
      </trkpt>
      <trkpt lat="45.35652" lon="5.91355">
        <ele>1157.6</ele>
        <time>2000-01-01T02:54:14.000Z</time>
      </trkpt>
      <trkpt lat="45.3564" lon="5.91359">
        <ele>1158</ele>
        <time>2000-01-01T02:54:24.000Z</time>
      </trkpt>
      <trkpt lat="45.35628" lon="5.91359">
        <ele>1154.3</ele>
        <time>2000-01-01T02:54:34.000Z</time>
      </trkpt>
      <trkpt lat="45.35611" lon="5.91364">
        <ele>1157</ele>
        <time>2000-01-01T02:54:44.000Z</time>
      </trkpt>
      <trkpt lat="45.35584" lon="5.91361">
        <ele>1148</ele>
        <time>2000-01-01T02:54:54.000Z</time>
      </trkpt>
      <trkpt lat="45.35568" lon="5.91357">
        <ele>1142.4</ele>
        <time>2000-01-01T02:55:04.000Z</time>
      </trkpt>
      <trkpt lat="45.35539" lon="5.91347">
        <ele>1140</ele>
        <time>2000-01-01T02:55:14.000Z</time>
      </trkpt>
      <trkpt lat="45.35524" lon="5.91342">
        <ele>1137.1</ele>
        <time>2000-01-01T02:55:24.000Z</time>
      </trkpt>
      <trkpt lat="45.35508" lon="5.91333">
        <ele>1138</ele>
        <time>2000-01-01T02:55:34.000Z</time>
      </trkpt>
      <trkpt lat="45.35522" lon="5.91373">
        <ele>1136</ele>
        <time>2000-01-01T02:55:44.000Z</time>
      </trkpt>
      <trkpt lat="45.35542" lon="5.91418">
        <ele>1134</ele>
        <time>2000-01-01T02:55:54.000Z</time>
      </trkpt>
      <trkpt lat="45.35559" lon="5.91436">
        <ele>1132</ele>
        <time>2000-01-01T02:56:04.000Z</time>
      </trkpt>
      <trkpt lat="45.35573" lon="5.91463">
        <ele>1130</ele>
        <time>2000-01-01T02:56:14.000Z</time>
      </trkpt>
      <trkpt lat="45.35574" lon="5.91474">
        <ele>1127</ele>
        <time>2000-01-01T02:56:24.000Z</time>
      </trkpt>
      <trkpt lat="45.35562" lon="5.91484">
        <ele>1127</ele>
        <time>2000-01-01T02:56:34.000Z</time>
      </trkpt>
      <trkpt lat="45.35551" lon="5.91481">
        <ele>1125.6</ele>
        <time>2000-01-01T02:56:44.000Z</time>
      </trkpt>
      <trkpt lat="45.35507" lon="5.91458">
        <ele>1125</ele>
        <time>2000-01-01T02:56:54.000Z</time>
      </trkpt>
      <trkpt lat="45.35487" lon="5.91446">
        <ele>1121</ele>
        <time>2000-01-01T02:57:04.000Z</time>
      </trkpt>
      <trkpt lat="45.35458" lon="5.91421">
        <ele>1113</ele>
        <time>2000-01-01T02:57:14.000Z</time>
      </trkpt>
      <trkpt lat="45.35433" lon="5.91392">
        <ele>1106</ele>
        <time>2000-01-01T02:57:24.000Z</time>
      </trkpt>
      <trkpt lat="45.35408" lon="5.91363">
        <ele>1101</ele>
        <time>2000-01-01T02:57:34.000Z</time>
      </trkpt>
      <trkpt lat="45.35379" lon="5.9133">
        <ele>1104</ele>
        <time>2000-01-01T02:57:44.000Z</time>
      </trkpt>
      <trkpt lat="45.35368" lon="5.91309">
        <ele>1105.4</ele>
        <time>2000-01-01T02:57:54.000Z</time>
      </trkpt>
      <trkpt lat="45.35354" lon="5.91292">
        <ele>1099</ele>
        <time>2000-01-01T02:58:04.000Z</time>
      </trkpt>
      <trkpt lat="45.35348" lon="5.91289">
        <ele>1104.9</ele>
        <time>2000-01-01T02:58:14.000Z</time>
      </trkpt>
      <trkpt lat="45.35344" lon="5.91291">
        <ele>1104.4</ele>
        <time>2000-01-01T02:58:24.000Z</time>
      </trkpt>
      <trkpt lat="45.35337" lon="5.91308">
        <ele>1095</ele>
        <time>2000-01-01T02:58:34.000Z</time>
      </trkpt>
      <trkpt lat="45.35341" lon="5.9132">
        <ele>1098.1</ele>
        <time>2000-01-01T02:58:44.000Z</time>
      </trkpt>
      <trkpt lat="45.3536" lon="5.91351">
        <ele>1091</ele>
        <time>2000-01-01T02:58:54.000Z</time>
      </trkpt>
      <trkpt lat="45.35368" lon="5.91375">
        <ele>1094.7</ele>
        <time>2000-01-01T02:59:04.000Z</time>
      </trkpt>
      <trkpt lat="45.35373" lon="5.91397">
        <ele>1086</ele>
        <time>2000-01-01T02:59:14.000Z</time>
      </trkpt>
      <trkpt lat="45.35372" lon="5.9144">
        <ele>1077</ele>
        <time>2000-01-01T02:59:24.000Z</time>
      </trkpt>
      <trkpt lat="45.35374" lon="5.91475">
        <ele>1079</ele>
        <time>2000-01-01T02:59:34.000Z</time>
      </trkpt>
      <trkpt lat="45.35382" lon="5.91508">
        <ele>1079</ele>
        <time>2000-01-01T02:59:44.000Z</time>
      </trkpt>
      <trkpt lat="45.35399" lon="5.91539">
        <ele>1080</ele>
        <time>2000-01-01T02:59:54.000Z</time>
      </trkpt>
      <trkpt lat="45.35415" lon="5.91566">
        <ele>1079</ele>
        <time>2000-01-01T03:00:04.000Z</time>
      </trkpt>
      <trkpt lat="45.35446" lon="5.91613">
        <ele>1079</ele>
        <time>2000-01-01T03:00:14.000Z</time>
      </trkpt>
      <trkpt lat="45.35451" lon="5.91632">
        <ele>1080.2</ele>
        <time>2000-01-01T03:00:24.000Z</time>
      </trkpt>
      <trkpt lat="45.35468" lon="5.91703">
        <ele>1071</ele>
        <time>2000-01-01T03:00:34.000Z</time>
      </trkpt>
      <trkpt lat="45.35477" lon="5.91744">
        <ele>1066</ele>
        <time>2000-01-01T03:00:44.000Z</time>
      </trkpt>
      <trkpt lat="45.35494" lon="5.91805">
        <ele>1063</ele>
        <time>2000-01-01T03:00:54.000Z</time>
      </trkpt>
      <trkpt lat="45.35503" lon="5.91831">
        <ele>1063</ele>
        <time>2000-01-01T03:01:04.000Z</time>
      </trkpt>
      <trkpt lat="45.35501" lon="5.91851">
        <ele>1071.6</ele>
        <time>2000-01-01T03:01:14.000Z</time>
      </trkpt>
      <trkpt lat="45.35555" lon="5.91871">
        <ele>1064</ele>
        <time>2000-01-01T03:01:24.000Z</time>
      </trkpt>
      <trkpt lat="45.35584" lon="5.91883">
        <ele>1064</ele>
        <time>2000-01-01T03:01:34.000Z</time>
      </trkpt>
      <trkpt lat="45.35601" lon="5.91877">
        <ele>1074.1</ele>
        <time>2000-01-01T03:01:44.000Z</time>
      </trkpt>
      <trkpt lat="45.356" lon="5.91896">
        <ele>1064</ele>
        <time>2000-01-01T03:01:54.000Z</time>
      </trkpt>
      <trkpt lat="45.35587" lon="5.91929">
        <ele>1068</ele>
        <time>2000-01-01T03:02:04.000Z</time>
      </trkpt>
      <trkpt lat="45.35553" lon="5.91969">
        <ele>1068</ele>
        <time>2000-01-01T03:02:14.000Z</time>
      </trkpt>
      <trkpt lat="45.35534" lon="5.9201">
        <ele>1068</ele>
        <time>2000-01-01T03:02:24.000Z</time>
      </trkpt>
      <trkpt lat="45.35528" lon="5.92044">
        <ele>1070</ele>
        <time>2000-01-01T03:02:34.000Z</time>
      </trkpt>
      <trkpt lat="45.35522" lon="5.92076">
        <ele>1078</ele>
        <time>2000-01-01T03:02:44.000Z</time>
      </trkpt>
      <trkpt lat="45.35525" lon="5.92142">
        <ele>1076</ele>
        <time>2000-01-01T03:02:54.000Z</time>
      </trkpt>
      <trkpt lat="45.35527" lon="5.92162">
        <ele>1072.1</ele>
        <time>2000-01-01T03:03:04.000Z</time>
      </trkpt>
      <trkpt lat="45.35508" lon="5.9215">
        <ele>1074</ele>
        <time>2000-01-01T03:03:14.000Z</time>
      </trkpt>
      <trkpt lat="45.35472" lon="5.92117">
        <ele>1066</ele>
        <time>2000-01-01T03:03:24.000Z</time>
      </trkpt>
      <trkpt lat="45.35445" lon="5.92091">
        <ele>1058</ele>
        <time>2000-01-01T03:03:34.000Z</time>
      </trkpt>
      <trkpt lat="45.35417" lon="5.92066">
        <ele>1057</ele>
        <time>2000-01-01T03:03:44.000Z</time>
      </trkpt>
      <trkpt lat="45.35396" lon="5.92043">
        <ele>1057</ele>
        <time>2000-01-01T03:03:54.000Z</time>
      </trkpt>
      <trkpt lat="45.35376" lon="5.92022">
        <ele>1055</ele>
        <time>2000-01-01T03:04:04.000Z</time>
      </trkpt>
      <trkpt lat="45.35338" lon="5.91998">
        <ele>1052</ele>
        <time>2000-01-01T03:04:14.000Z</time>
      </trkpt>
      <trkpt lat="45.35303" lon="5.91978">
        <ele>1052</ele>
        <time>2000-01-01T03:04:24.000Z</time>
      </trkpt>
      <trkpt lat="45.35323" lon="5.92013">
        <ele>1052</ele>
        <time>2000-01-01T03:04:34.000Z</time>
      </trkpt>
      <trkpt lat="45.35312" lon="5.92014">
        <ele>1044.3</ele>
        <time>2000-01-01T03:04:44.000Z</time>
      </trkpt>
      <trkpt lat="45.3522" lon="5.92058">
        <ele>1042</ele>
        <time>2000-01-01T03:04:54.000Z</time>
      </trkpt>
      <trkpt lat="45.35219" lon="5.92076">
        <ele>1032</ele>
        <time>2000-01-01T03:05:04.000Z</time>
      </trkpt>
      <trkpt lat="45.35178" lon="5.92098">
        <ele>1027</ele>
        <time>2000-01-01T03:05:14.000Z</time>
      </trkpt>
      <trkpt lat="45.35134" lon="5.92109">
        <ele>1016</ele>
        <time>2000-01-01T03:05:24.000Z</time>
      </trkpt>
      <trkpt lat="45.35109" lon="5.92121">
        <ele>1008</ele>
        <time>2000-01-01T03:05:34.000Z</time>
      </trkpt>
      <trkpt lat="45.35086" lon="5.92132">
        <ele>1005</ele>
        <time>2000-01-01T03:05:44.000Z</time>
      </trkpt>
      <trkpt lat="45.35063" lon="5.92159">
        <ele>1002</ele>
        <time>2000-01-01T03:05:54.000Z</time>
      </trkpt>
      <trkpt lat="45.35063" lon="5.92169">
        <ele>968.8</ele>
        <time>2000-01-01T03:06:04.000Z</time>
      </trkpt>
      <trkpt lat="45.35065" lon="5.92198">
        <ele>980</ele>
        <time>2000-01-01T03:06:14.000Z</time>
      </trkpt>
      <trkpt lat="45.35059" lon="5.9221">
        <ele>952.2</ele>
        <time>2000-01-01T03:06:24.000Z</time>
      </trkpt>
      <trkpt lat="45.35029" lon="5.92226">
        <ele>974</ele>
        <time>2000-01-01T03:06:34.000Z</time>
      </trkpt>
      <trkpt lat="45.34996" lon="5.92223">
        <ele>969</ele>
        <time>2000-01-01T03:06:44.000Z</time>
      </trkpt>
      <trkpt lat="45.34969" lon="5.92221">
        <ele>967</ele>
        <time>2000-01-01T03:06:54.000Z</time>
      </trkpt>
      <trkpt lat="45.34942" lon="5.92225">
        <ele>960</ele>
        <time>2000-01-01T03:07:04.000Z</time>
      </trkpt>
      <trkpt lat="45.34926" lon="5.92236">
        <ele>942.6</ele>
        <time>2000-01-01T03:07:14.000Z</time>
      </trkpt>
      <trkpt lat="45.34916" lon="5.92247">
        <ele>933</ele>
        <time>2000-01-01T03:07:24.000Z</time>
      </trkpt>
      <trkpt lat="45.34917" lon="5.92265">
        <ele>914.3</ele>
        <time>2000-01-01T03:07:34.000Z</time>
      </trkpt>
      <trkpt lat="45.34908" lon="5.92271">
        <ele>929</ele>
        <time>2000-01-01T03:07:44.000Z</time>
      </trkpt>
      <trkpt lat="45.34863" lon="5.92287">
        <ele>925</ele>
        <time>2000-01-01T03:07:54.000Z</time>
      </trkpt>
      <trkpt lat="45.3484" lon="5.92292">
        <ele>920</ele>
        <time>2000-01-01T03:08:04.000Z</time>
      </trkpt>
      <trkpt lat="45.34829" lon="5.92297">
        <ele>898.3</ele>
        <time>2000-01-01T03:08:14.000Z</time>
      </trkpt>
      <trkpt lat="45.34843" lon="5.92309">
        <ele>901</ele>
        <time>2000-01-01T03:08:24.000Z</time>
      </trkpt>
      <trkpt lat="45.34864" lon="5.92318">
        <ele>901</ele>
        <time>2000-01-01T03:08:34.000Z</time>
      </trkpt>
      <trkpt lat="45.34878" lon="5.9232">
        <ele>894.8</ele>
        <time>2000-01-01T03:08:44.000Z</time>
      </trkpt>
      <trkpt lat="45.34895" lon="5.92328">
        <ele>887</ele>
        <time>2000-01-01T03:08:54.000Z</time>
      </trkpt>
      <trkpt lat="45.34894" lon="5.92344">
        <ele>864.2</ele>
        <time>2000-01-01T03:09:04.000Z</time>
      </trkpt>
      <trkpt lat="45.34897" lon="5.92349">
        <ele>863.5</ele>
        <time>2000-01-01T03:09:14.000Z</time>
      </trkpt>
      <trkpt lat="45.34908" lon="5.92358">
        <ele>875</ele>
        <time>2000-01-01T03:09:24.000Z</time>
      </trkpt>
      <trkpt lat="45.34922" lon="5.92367">
        <ele>858.5</ele>
        <time>2000-01-01T03:09:34.000Z</time>
      </trkpt>
      <trkpt lat="45.3493" lon="5.92378">
        <ele>873</ele>
        <time>2000-01-01T03:09:44.000Z</time>
      </trkpt>
      <trkpt lat="45.34932" lon="5.92388">
        <ele>851.2</ele>
        <time>2000-01-01T03:09:54.000Z</time>
      </trkpt>
      <trkpt lat="45.34911" lon="5.92403">
        <ele>861</ele>
        <time>2000-01-01T03:10:04.000Z</time>
      </trkpt>
      <trkpt lat="45.34881" lon="5.92424">
        <ele>848</ele>
        <time>2000-01-01T03:10:14.000Z</time>
      </trkpt>
      <trkpt lat="45.34858" lon="5.92429">
        <ele>844</ele>
        <time>2000-01-01T03:10:24.000Z</time>
      </trkpt>
      <trkpt lat="45.34818" lon="5.9243">
        <ele>842</ele>
        <time>2000-01-01T03:10:34.000Z</time>
      </trkpt>
      <trkpt lat="45.34786" lon="5.92431">
        <ele>838</ele>
        <time>2000-01-01T03:10:44.000Z</time>
      </trkpt>
      <trkpt lat="45.34753" lon="5.92432">
        <ele>831</ele>
        <time>2000-01-01T03:10:54.000Z</time>
      </trkpt>
      <trkpt lat="45.3472" lon="5.92421">
        <ele>828</ele>
        <time>2000-01-01T03:11:04.000Z</time>
      </trkpt>
      <trkpt lat="45.34694" lon="5.92413">
        <ele>836</ele>
        <time>2000-01-01T03:11:14.000Z</time>
      </trkpt>
      <trkpt lat="45.34669" lon="5.92408">
        <ele>836</ele>
        <time>2000-01-01T03:11:24.000Z</time>
      </trkpt>
      <trkpt lat="45.34645" lon="5.92403">
        <ele>836</ele>
        <time>2000-01-01T03:11:34.000Z</time>
      </trkpt>
      <trkpt lat="45.34625" lon="5.92408">
        <ele>830</ele>
        <time>2000-01-01T03:11:44.000Z</time>
      </trkpt>
      <trkpt lat="45.34605" lon="5.9239">
        <ele>830</ele>
        <time>2000-01-01T03:11:54.000Z</time>
      </trkpt>
      <trkpt lat="45.34563" lon="5.92383">
        <ele>832</ele>
        <time>2000-01-01T03:12:04.000Z</time>
      </trkpt>
      <trkpt lat="45.34524" lon="5.9238">
        <ele>834</ele>
        <time>2000-01-01T03:12:14.000Z</time>
      </trkpt>
      <trkpt lat="45.34493" lon="5.92361">
        <ele>836</ele>
        <time>2000-01-01T03:12:24.000Z</time>
      </trkpt>
      <trkpt lat="45.34469" lon="5.92362">
        <ele>839</ele>
        <time>2000-01-01T03:12:34.000Z</time>
      </trkpt>
      <trkpt lat="45.34445" lon="5.92362">
        <ele>840</ele>
        <time>2000-01-01T03:12:44.000Z</time>
      </trkpt>
      <trkpt lat="45.34407" lon="5.9235">
        <ele>844</ele>
        <time>2000-01-01T03:12:54.000Z</time>
      </trkpt>
      <trkpt lat="45.3438" lon="5.92341">
        <ele>849</ele>
        <time>2000-01-01T03:13:04.000Z</time>
      </trkpt>
      <trkpt lat="45.34355" lon="5.9234">
        <ele>849</ele>
        <time>2000-01-01T03:13:14.000Z</time>
      </trkpt>
      <trkpt lat="45.34327" lon="5.92338">
        <ele>846</ele>
        <time>2000-01-01T03:13:24.000Z</time>
      </trkpt>
      <trkpt lat="45.34297" lon="5.92336">
        <ele>845</ele>
        <time>2000-01-01T03:13:34.000Z</time>
      </trkpt>
      <trkpt lat="45.34252" lon="5.92324">
        <ele>845</ele>
        <time>2000-01-01T03:13:44.000Z</time>
      </trkpt>
      <trkpt lat="45.34223" lon="5.92329">
        <ele>851</ele>
        <time>2000-01-01T03:13:54.000Z</time>
      </trkpt>
      <trkpt lat="45.34198" lon="5.92334">
        <ele>835</ele>
        <time>2000-01-01T03:14:04.000Z</time>
      </trkpt>
      <trkpt lat="45.34156" lon="5.92352">
        <ele>833</ele>
        <time>2000-01-01T03:14:14.000Z</time>
      </trkpt>
      <trkpt lat="45.34113" lon="5.92349">
        <ele>834</ele>
        <time>2000-01-01T03:14:24.000Z</time>
      </trkpt>
      <trkpt lat="45.34078" lon="5.92348">
        <ele>836</ele>
        <time>2000-01-01T03:14:34.000Z</time>
      </trkpt>
      <trkpt lat="45.34047" lon="5.92336">
        <ele>841</ele>
        <time>2000-01-01T03:14:44.000Z</time>
      </trkpt>
      <trkpt lat="45.34034" lon="5.92301">
        <ele>854</ele>
        <time>2000-01-01T03:14:54.000Z</time>
      </trkpt>
      <trkpt lat="45.34052" lon="5.92278">
        <ele>859</ele>
        <time>2000-01-01T03:15:04.000Z</time>
      </trkpt>
      <trkpt lat="45.34024" lon="5.92257">
        <ele>868</ele>
        <time>2000-01-01T03:15:14.000Z</time>
      </trkpt>
      <trkpt lat="45.34001" lon="5.9224">
        <ele>872</ele>
        <time>2000-01-01T03:15:24.000Z</time>
      </trkpt>
      <trkpt lat="45.3396" lon="5.92239">
        <ele>872</ele>
        <time>2000-01-01T03:15:34.000Z</time>
      </trkpt>
      <trkpt lat="45.33931" lon="5.92239">
        <ele>870</ele>
        <time>2000-01-01T03:15:44.000Z</time>
      </trkpt>
      <trkpt lat="45.33908" lon="5.92228">
        <ele>869</ele>
        <time>2000-01-01T03:15:54.000Z</time>
      </trkpt>
      <trkpt lat="45.33882" lon="5.92217">
        <ele>869</ele>
        <time>2000-01-01T03:16:04.000Z</time>
      </trkpt>
      <trkpt lat="45.33853" lon="5.92204">
        <ele>867</ele>
        <time>2000-01-01T03:16:14.000Z</time>
      </trkpt>
      <trkpt lat="45.33822" lon="5.9217">
        <ele>859</ele>
        <time>2000-01-01T03:16:24.000Z</time>
      </trkpt>
      <trkpt lat="45.33815" lon="5.92199">
        <ele>850</ele>
        <time>2000-01-01T03:16:34.000Z</time>
      </trkpt>
      <trkpt lat="45.33802" lon="5.92156">
        <ele>841</ele>
        <time>2000-01-01T03:16:44.000Z</time>
      </trkpt>
      <trkpt lat="45.33791" lon="5.92126">
        <ele>834</ele>
        <time>2000-01-01T03:16:54.000Z</time>
      </trkpt>
      <trkpt lat="45.3378" lon="5.92095">
        <ele>827</ele>
        <time>2000-01-01T03:17:04.000Z</time>
      </trkpt>
      <trkpt lat="45.33753" lon="5.92054">
        <ele>798</ele>
        <time>2000-01-01T03:17:14.000Z</time>
      </trkpt>
      <trkpt lat="45.33735" lon="5.92025">
        <ele>792</ele>
        <time>2000-01-01T03:17:24.000Z</time>
      </trkpt>
      <trkpt lat="45.33716" lon="5.91992">
        <ele>786</ele>
        <time>2000-01-01T03:17:34.000Z</time>
      </trkpt>
      <trkpt lat="45.33701" lon="5.91964">
        <ele>766</ele>
        <time>2000-01-01T03:17:44.000Z</time>
      </trkpt>
      <trkpt lat="45.33685" lon="5.91903">
        <ele>753</ele>
        <time>2000-01-01T03:17:54.000Z</time>
      </trkpt>
      <trkpt lat="45.33683" lon="5.91846">
        <ele>753</ele>
        <time>2000-01-01T03:18:04.000Z</time>
      </trkpt>
      <trkpt lat="45.33682" lon="5.91806">
        <ele>755</ele>
        <time>2000-01-01T03:18:14.000Z</time>
      </trkpt>
      <trkpt lat="45.33677" lon="5.91768">
        <ele>758</ele>
        <time>2000-01-01T03:18:24.000Z</time>
      </trkpt>
      <trkpt lat="45.33673" lon="5.91734">
        <ele>762</ele>
        <time>2000-01-01T03:18:34.000Z</time>
      </trkpt>
      <trkpt lat="45.33668" lon="5.91696">
        <ele>764</ele>
        <time>2000-01-01T03:18:44.000Z</time>
      </trkpt>
      <trkpt lat="45.33664" lon="5.9165">
        <ele>756</ele>
        <time>2000-01-01T03:18:54.000Z</time>
      </trkpt>
      <trkpt lat="45.33659" lon="5.91606">
        <ele>756</ele>
        <time>2000-01-01T03:19:04.000Z</time>
      </trkpt>
      <trkpt lat="45.33661" lon="5.91547">
        <ele>756</ele>
        <time>2000-01-01T03:19:14.000Z</time>
      </trkpt>
      <trkpt lat="45.33669" lon="5.91484">
        <ele>743</ele>
        <time>2000-01-01T03:19:24.000Z</time>
      </trkpt>
      <trkpt lat="45.33671" lon="5.91471">
        <ele>756.7</ele>
        <time>2000-01-01T03:19:34.000Z</time>
      </trkpt>
      <trkpt lat="45.33687" lon="5.91433">
        <ele>730</ele>
        <time>2000-01-01T03:19:44.000Z</time>
      </trkpt>
      <trkpt lat="45.33668" lon="5.91433">
        <ele>746.2</ele>
        <time>2000-01-01T03:19:54.000Z</time>
      </trkpt>
      <trkpt lat="45.33665" lon="5.91421">
        <ele>730</ele>
        <time>2000-01-01T03:20:04.000Z</time>
      </trkpt>
      <trkpt lat="45.33668" lon="5.91407">
        <ele>739.2</ele>
        <time>2000-01-01T03:20:14.000Z</time>
      </trkpt>
      <trkpt lat="45.33642" lon="5.91417">
        <ele>724</ele>
        <time>2000-01-01T03:20:24.000Z</time>
      </trkpt>
      <trkpt lat="45.33641" lon="5.91406">
        <ele>718.6</ele>
        <time>2000-01-01T03:20:34.000Z</time>
      </trkpt>
      <trkpt lat="45.33657" lon="5.91374">
        <ele>719</ele>
        <time>2000-01-01T03:20:44.000Z</time>
      </trkpt>
      <trkpt lat="45.33637" lon="5.91353">
        <ele>719</ele>
        <time>2000-01-01T03:20:54.000Z</time>
      </trkpt>
      <trkpt lat="45.33612" lon="5.91335">
        <ele>730</ele>
        <time>2000-01-01T03:21:04.000Z</time>
      </trkpt>
      <trkpt lat="45.33569" lon="5.9131">
        <ele>731</ele>
        <time>2000-01-01T03:21:14.000Z</time>
      </trkpt>
      <trkpt lat="45.33543" lon="5.91303">
        <ele>735</ele>
        <time>2000-01-01T03:21:24.000Z</time>
      </trkpt>
      <trkpt lat="45.33518" lon="5.91297">
        <ele>757</ele>
        <time>2000-01-01T03:21:34.000Z</time>
      </trkpt>
      <trkpt lat="45.33495" lon="5.91289">
        <ele>757</ele>
        <time>2000-01-01T03:21:44.000Z</time>
      </trkpt>
      <trkpt lat="45.3347" lon="5.91281">
        <ele>762</ele>
        <time>2000-01-01T03:21:54.000Z</time>
      </trkpt>
      <trkpt lat="45.33442" lon="5.91271">
        <ele>774</ele>
        <time>2000-01-01T03:22:04.000Z</time>
      </trkpt>
      <trkpt lat="45.33424" lon="5.9125">
        <ele>795</ele>
        <time>2000-01-01T03:22:14.000Z</time>
      </trkpt>
      <trkpt lat="45.33402" lon="5.91233">
        <ele>802</ele>
        <time>2000-01-01T03:22:24.000Z</time>
      </trkpt>
      <trkpt lat="45.33381" lon="5.91216">
        <ele>802</ele>
        <time>2000-01-01T03:22:34.000Z</time>
      </trkpt>
      <trkpt lat="45.33355" lon="5.9118">
        <ele>801</ele>
        <time>2000-01-01T03:22:44.000Z</time>
      </trkpt>
      <trkpt lat="45.33337" lon="5.91141">
        <ele>801</ele>
        <time>2000-01-01T03:22:54.000Z</time>
      </trkpt>
      <trkpt lat="45.33331" lon="5.91106">
        <ele>806</ele>
        <time>2000-01-01T03:23:04.000Z</time>
      </trkpt>
      <trkpt lat="45.33324" lon="5.91065">
        <ele>801</ele>
        <time>2000-01-01T03:23:14.000Z</time>
      </trkpt>
      <trkpt lat="45.33317" lon="5.91045">
        <ele>807.8</ele>
        <time>2000-01-01T03:23:24.000Z</time>
      </trkpt>
      <trkpt lat="45.333" lon="5.91026">
        <ele>796</ele>
        <time>2000-01-01T03:23:34.000Z</time>
      </trkpt>
      <trkpt lat="45.33272" lon="5.91023">
        <ele>800</ele>
        <time>2000-01-01T03:23:44.000Z</time>
      </trkpt>
      <trkpt lat="45.33254" lon="5.91026">
        <ele>805</ele>
        <time>2000-01-01T03:23:54.000Z</time>
      </trkpt>
      <trkpt lat="45.33229" lon="5.91026">
        <ele>804</ele>
        <time>2000-01-01T03:24:04.000Z</time>
      </trkpt>
      <trkpt lat="45.33201" lon="5.91014">
        <ele>803</ele>
        <time>2000-01-01T03:24:14.000Z</time>
      </trkpt>
      <trkpt lat="45.33191" lon="5.91037">
        <ele>798.9</ele>
        <time>2000-01-01T03:24:24.000Z</time>
      </trkpt>
      <trkpt lat="45.33174" lon="5.91051">
        <ele>803</ele>
        <time>2000-01-01T03:24:34.000Z</time>
      </trkpt>
      <trkpt lat="45.33153" lon="5.91052">
        <ele>806</ele>
        <time>2000-01-01T03:24:44.000Z</time>
      </trkpt>
      <trkpt lat="45.33107" lon="5.9104">
        <ele>809</ele>
        <time>2000-01-01T03:24:54.000Z</time>
      </trkpt>
      <trkpt lat="45.33082" lon="5.91026">
        <ele>812</ele>
        <time>2000-01-01T03:25:04.000Z</time>
      </trkpt>
      <trkpt lat="45.33061" lon="5.91043">
        <ele>821</ele>
        <time>2000-01-01T03:25:14.000Z</time>
      </trkpt>
      <trkpt lat="45.33055" lon="5.91038">
        <ele>820.7</ele>
        <time>2000-01-01T03:25:24.000Z</time>
      </trkpt>
      <trkpt lat="45.33034" lon="5.91022">
        <ele>823</ele>
        <time>2000-01-01T03:25:34.000Z</time>
      </trkpt>
      <trkpt lat="45.33029" lon="5.91025">
        <ele>826.2</ele>
        <time>2000-01-01T03:25:44.000Z</time>
      </trkpt>
      <trkpt lat="45.33012" lon="5.91059">
        <ele>826</ele>
        <time>2000-01-01T03:25:54.000Z</time>
      </trkpt>
      <trkpt lat="45.33002" lon="5.9107">
        <ele>827.3</ele>
        <time>2000-01-01T03:26:04.000Z</time>
      </trkpt>
      <trkpt lat="45.33" lon="5.91053">
        <ele>826</ele>
        <time>2000-01-01T03:26:14.000Z</time>
      </trkpt>
      <trkpt lat="45.32992" lon="5.91017">
        <ele>831</ele>
        <time>2000-01-01T03:26:24.000Z</time>
      </trkpt>
      <trkpt lat="45.32986" lon="5.91017">
        <ele>847.5</ele>
        <time>2000-01-01T03:26:34.000Z</time>
      </trkpt>
      <trkpt lat="45.32971" lon="5.9105">
        <ele>840</ele>
        <time>2000-01-01T03:26:44.000Z</time>
      </trkpt>
      <trkpt lat="45.32964" lon="5.91046">
        <ele>850.7</ele>
        <time>2000-01-01T03:26:54.000Z</time>
      </trkpt>
      <trkpt lat="45.32955" lon="5.91041">
        <ele>852.7</ele>
        <time>2000-01-01T03:27:04.000Z</time>
      </trkpt>
      <trkpt lat="45.32929" lon="5.91085">
        <ele>872</ele>
        <time>2000-01-01T03:27:14.000Z</time>
      </trkpt>
      <trkpt lat="45.32894" lon="5.91113">
        <ele>879</ele>
        <time>2000-01-01T03:27:24.000Z</time>
      </trkpt>
      <trkpt lat="45.32872" lon="5.9111">
        <ele>891</ele>
        <time>2000-01-01T03:27:34.000Z</time>
      </trkpt>
      <trkpt lat="45.32846" lon="5.9114">
        <ele>900</ele>
        <time>2000-01-01T03:27:44.000Z</time>
      </trkpt>
      <trkpt lat="45.32803" lon="5.91167">
        <ele>907</ele>
        <time>2000-01-01T03:27:54.000Z</time>
      </trkpt>
      <trkpt lat="45.32785" lon="5.91161">
        <ele>907.9</ele>
        <time>2000-01-01T03:28:04.000Z</time>
      </trkpt>
      <trkpt lat="45.32757" lon="5.91197">
        <ele>916</ele>
        <time>2000-01-01T03:28:14.000Z</time>
      </trkpt>
      <trkpt lat="45.32737" lon="5.91218">
        <ele>928</ele>
        <time>2000-01-01T03:28:24.000Z</time>
      </trkpt>
      <trkpt lat="45.32718" lon="5.91239">
        <ele>928</ele>
        <time>2000-01-01T03:28:34.000Z</time>
      </trkpt>
      <trkpt lat="45.32691" lon="5.9124">
        <ele>916</ele>
        <time>2000-01-01T03:28:44.000Z</time>
      </trkpt>
      <trkpt lat="45.3265" lon="5.91226">
        <ele>904</ele>
        <time>2000-01-01T03:28:54.000Z</time>
      </trkpt>
      <trkpt lat="45.32617" lon="5.91201">
        <ele>905</ele>
        <time>2000-01-01T03:29:04.000Z</time>
      </trkpt>
      <trkpt lat="45.32591" lon="5.91159">
        <ele>906</ele>
        <time>2000-01-01T03:29:14.000Z</time>
      </trkpt>
      <trkpt lat="45.32583" lon="5.91126">
        <ele>918</ele>
        <time>2000-01-01T03:29:24.000Z</time>
      </trkpt>
      <trkpt lat="45.32573" lon="5.91089">
        <ele>911</ele>
        <time>2000-01-01T03:29:34.000Z</time>
      </trkpt>
      <trkpt lat="45.32565" lon="5.91067">
        <ele>914.7</ele>
        <time>2000-01-01T03:29:44.000Z</time>
      </trkpt>
      <trkpt lat="45.32552" lon="5.91007">
        <ele>904</ele>
        <time>2000-01-01T03:29:54.000Z</time>
      </trkpt>
      <trkpt lat="45.32535" lon="5.90976">
        <ele>889</ele>
        <time>2000-01-01T03:30:04.000Z</time>
      </trkpt>
      <trkpt lat="45.32513" lon="5.90941">
        <ele>878</ele>
        <time>2000-01-01T03:30:14.000Z</time>
      </trkpt>
      <trkpt lat="45.32511" lon="5.90886">
        <ele>868</ele>
        <time>2000-01-01T03:30:24.000Z</time>
      </trkpt>
      <trkpt lat="45.32484" lon="5.90889">
        <ele>864</ele>
        <time>2000-01-01T03:30:34.000Z</time>
      </trkpt>
      <trkpt lat="45.32504" lon="5.90847">
        <ele>861</ele>
        <time>2000-01-01T03:30:44.000Z</time>
      </trkpt>
      <trkpt lat="45.32477" lon="5.90837">
        <ele>858</ele>
        <time>2000-01-01T03:30:54.000Z</time>
      </trkpt>
      <trkpt lat="45.32499" lon="5.90809">
        <ele>855</ele>
        <time>2000-01-01T03:31:04.000Z</time>
      </trkpt>
      <trkpt lat="45.32492" lon="5.90758">
        <ele>848</ele>
        <time>2000-01-01T03:31:14.000Z</time>
      </trkpt>
      <trkpt lat="45.32484" lon="5.90715">
        <ele>813</ele>
        <time>2000-01-01T03:31:24.000Z</time>
      </trkpt>
      <trkpt lat="45.32484" lon="5.90678">
        <ele>811</ele>
        <time>2000-01-01T03:31:34.000Z</time>
      </trkpt>
      <trkpt lat="45.32483" lon="5.90643">
        <ele>813</ele>
        <time>2000-01-01T03:31:44.000Z</time>
      </trkpt>
      <trkpt lat="45.32485" lon="5.90593">
        <ele>816</ele>
        <time>2000-01-01T03:31:54.000Z</time>
      </trkpt>
      <trkpt lat="45.32486" lon="5.90555">
        <ele>817</ele>
        <time>2000-01-01T03:32:04.000Z</time>
      </trkpt>
      <trkpt lat="45.32482" lon="5.90518">
        <ele>821</ele>
        <time>2000-01-01T03:32:14.000Z</time>
      </trkpt>
      <trkpt lat="45.32477" lon="5.90474">
        <ele>823</ele>
        <time>2000-01-01T03:32:24.000Z</time>
      </trkpt>
      <trkpt lat="45.32471" lon="5.90454">
        <ele>823.8</ele>
        <time>2000-01-01T03:32:34.000Z</time>
      </trkpt>
      <trkpt lat="45.32449" lon="5.90432">
        <ele>817</ele>
        <time>2000-01-01T03:32:44.000Z</time>
      </trkpt>
      <trkpt lat="45.32427" lon="5.90415">
        <ele>815</ele>
        <time>2000-01-01T03:32:54.000Z</time>
      </trkpt>
      <trkpt lat="45.32408" lon="5.90377">
        <ele>825</ele>
        <time>2000-01-01T03:33:04.000Z</time>
      </trkpt>
      <trkpt lat="45.32422" lon="5.90375">
        <ele>836.3</ele>
        <time>2000-01-01T03:33:14.000Z</time>
      </trkpt>
      <trkpt lat="45.32434" lon="5.90375">
        <ele>835</ele>
        <time>2000-01-01T03:33:24.000Z</time>
      </trkpt>
      <trkpt lat="45.32436" lon="5.90362">
        <ele>840</ele>
        <time>2000-01-01T03:33:34.000Z</time>
      </trkpt>
      <trkpt lat="45.32428" lon="5.90315">
        <ele>840</ele>
        <time>2000-01-01T03:33:44.000Z</time>
      </trkpt>
      <trkpt lat="45.32409" lon="5.90259">
        <ele>845</ele>
        <time>2000-01-01T03:33:54.000Z</time>
      </trkpt>
      <trkpt lat="45.32392" lon="5.90244">
        <ele>845</ele>
        <time>2000-01-01T03:34:04.000Z</time>
      </trkpt>
      <trkpt lat="45.32369" lon="5.90214">
        <ele>846</ele>
        <time>2000-01-01T03:34:14.000Z</time>
      </trkpt>
      <trkpt lat="45.32364" lon="5.90193">
        <ele>853.6</ele>
        <time>2000-01-01T03:34:24.000Z</time>
      </trkpt>
      <trkpt lat="45.3235" lon="5.90166">
        <ele>852</ele>
        <time>2000-01-01T03:34:34.000Z</time>
      </trkpt>
      <trkpt lat="45.32334" lon="5.90127">
        <ele>861</ele>
        <time>2000-01-01T03:34:44.000Z</time>
      </trkpt>
      <trkpt lat="45.32321" lon="5.90095">
        <ele>859</ele>
        <time>2000-01-01T03:34:54.000Z</time>
      </trkpt>
      <trkpt lat="45.32292" lon="5.90086">
        <ele>857</ele>
        <time>2000-01-01T03:35:04.000Z</time>
      </trkpt>
      <trkpt lat="45.32259" lon="5.9007">
        <ele>855</ele>
        <time>2000-01-01T03:35:14.000Z</time>
      </trkpt>
      <trkpt lat="45.32227" lon="5.90045">
        <ele>852</ele>
        <time>2000-01-01T03:35:24.000Z</time>
      </trkpt>
      <trkpt lat="45.32189" lon="5.90007">
        <ele>837</ele>
        <time>2000-01-01T03:35:34.000Z</time>
      </trkpt>
      <trkpt lat="45.32164" lon="5.89998">
        <ele>837</ele>
        <time>2000-01-01T03:35:44.000Z</time>
      </trkpt>
      <trkpt lat="45.32155" lon="5.90003">
        <ele>829</ele>
        <time>2000-01-01T03:35:54.000Z</time>
      </trkpt>
      <trkpt lat="45.32155" lon="5.90018">
        <ele>825</ele>
        <time>2000-01-01T03:36:04.000Z</time>
      </trkpt>
      <trkpt lat="45.32177" lon="5.90071">
        <ele>825</ele>
        <time>2000-01-01T03:36:14.000Z</time>
      </trkpt>
      <trkpt lat="45.32203" lon="5.90102">
        <ele>825</ele>
        <time>2000-01-01T03:36:24.000Z</time>
      </trkpt>
      <trkpt lat="45.32217" lon="5.90132">
        <ele>825</ele>
        <time>2000-01-01T03:36:34.000Z</time>
      </trkpt>
      <trkpt lat="45.32211" lon="5.90144">
        <ele>819</ele>
        <time>2000-01-01T03:36:44.000Z</time>
      </trkpt>
      <trkpt lat="45.32192" lon="5.90143">
        <ele>816</ele>
        <time>2000-01-01T03:36:54.000Z</time>
      </trkpt>
      <trkpt lat="45.32165" lon="5.90138">
        <ele>811</ele>
        <time>2000-01-01T03:37:04.000Z</time>
      </trkpt>
      <trkpt lat="45.32131" lon="5.90126">
        <ele>811</ele>
        <time>2000-01-01T03:37:14.000Z</time>
      </trkpt>
      <trkpt lat="45.32113" lon="5.90123">
        <ele>800.1</ele>
        <time>2000-01-01T03:37:24.000Z</time>
      </trkpt>
      <trkpt lat="45.32113" lon="5.90148">
        <ele>800</ele>
        <time>2000-01-01T03:37:34.000Z</time>
      </trkpt>
      <trkpt lat="45.32094" lon="5.90148">
        <ele>795.6</ele>
        <time>2000-01-01T03:37:44.000Z</time>
      </trkpt>
      <trkpt lat="45.32086" lon="5.9015">
        <ele>794</ele>
        <time>2000-01-01T03:37:54.000Z</time>
      </trkpt>
      <trkpt lat="45.32106" lon="5.90175">
        <ele>794</ele>
        <time>2000-01-01T03:38:04.000Z</time>
      </trkpt>
      <trkpt lat="45.32103" lon="5.90183">
        <ele>788.8</ele>
        <time>2000-01-01T03:38:14.000Z</time>
      </trkpt>
      <trkpt lat="45.32092" lon="5.90187">
        <ele>788.6</ele>
        <time>2000-01-01T03:38:24.000Z</time>
      </trkpt>
      <trkpt lat="45.32083" lon="5.90186">
        <ele>795</ele>
        <time>2000-01-01T03:38:34.000Z</time>
      </trkpt>
      <trkpt lat="45.32069" lon="5.90169">
        <ele>796</ele>
        <time>2000-01-01T03:38:44.000Z</time>
      </trkpt>
      <trkpt lat="45.32065" lon="5.90123">
        <ele>797</ele>
        <time>2000-01-01T03:38:54.000Z</time>
      </trkpt>
      <trkpt lat="45.32062" lon="5.90078">
        <ele>800</ele>
        <time>2000-01-01T03:39:04.000Z</time>
      </trkpt>
      <trkpt lat="45.32059" lon="5.90034">
        <ele>807</ele>
        <time>2000-01-01T03:39:14.000Z</time>
      </trkpt>
      <trkpt lat="45.32038" lon="5.89978">
        <ele>813</ele>
        <time>2000-01-01T03:39:24.000Z</time>
      </trkpt>
      <trkpt lat="45.32025" lon="5.89943">
        <ele>814</ele>
        <time>2000-01-01T03:39:34.000Z</time>
      </trkpt>
      <trkpt lat="45.32009" lon="5.89916">
        <ele>815</ele>
        <time>2000-01-01T03:39:44.000Z</time>
      </trkpt>
      <trkpt lat="45.31993" lon="5.89887">
        <ele>819</ele>
        <time>2000-01-01T03:39:54.000Z</time>
      </trkpt>
      <trkpt lat="45.31974" lon="5.89855">
        <ele>823</ele>
        <time>2000-01-01T03:40:04.000Z</time>
      </trkpt>
      <trkpt lat="45.31941" lon="5.89808">
        <ele>835</ele>
        <time>2000-01-01T03:40:14.000Z</time>
      </trkpt>
      <trkpt lat="45.3192" lon="5.89765">
        <ele>841</ele>
        <time>2000-01-01T03:40:24.000Z</time>
      </trkpt>
      <trkpt lat="45.31909" lon="5.89732">
        <ele>844</ele>
        <time>2000-01-01T03:40:34.000Z</time>
      </trkpt>
      <trkpt lat="45.31896" lon="5.89694">
        <ele>848</ele>
        <time>2000-01-01T03:40:44.000Z</time>
      </trkpt>
      <trkpt lat="45.31892" lon="5.89685">
        <ele>851.1</ele>
        <time>2000-01-01T03:40:54.000Z</time>
      </trkpt>
      <trkpt lat="45.31871" lon="5.89658">
        <ele>851</ele>
        <time>2000-01-01T03:41:04.000Z</time>
      </trkpt>
      <trkpt lat="45.31873" lon="5.89692">
        <ele>850</ele>
        <time>2000-01-01T03:41:14.000Z</time>
      </trkpt>
      <trkpt lat="45.31881" lon="5.89722">
        <ele>849</ele>
        <time>2000-01-01T03:41:24.000Z</time>
      </trkpt>
      <trkpt lat="45.31892" lon="5.89757">
        <ele>849</ele>
        <time>2000-01-01T03:41:34.000Z</time>
      </trkpt>
      <trkpt lat="45.31883" lon="5.89765">
        <ele>847.3</ele>
        <time>2000-01-01T03:41:44.000Z</time>
      </trkpt>
      <trkpt lat="45.31879" lon="5.89788">
        <ele>848</ele>
        <time>2000-01-01T03:41:54.000Z</time>
      </trkpt>
      <trkpt lat="45.31886" lon="5.89843">
        <ele>853</ele>
        <time>2000-01-01T03:42:04.000Z</time>
      </trkpt>
      <trkpt lat="45.3188" lon="5.89853">
        <ele>848.9</ele>
        <time>2000-01-01T03:42:14.000Z</time>
      </trkpt>
      <trkpt lat="45.31872" lon="5.89916">
        <ele>858</ele>
        <time>2000-01-01T03:42:24.000Z</time>
      </trkpt>
      <trkpt lat="45.31869" lon="5.89925">
        <ele>858.6</ele>
        <time>2000-01-01T03:42:34.000Z</time>
      </trkpt>
      <trkpt lat="45.31854" lon="5.89952">
        <ele>864</ele>
        <time>2000-01-01T03:42:44.000Z</time>
      </trkpt>
      <trkpt lat="45.31851" lon="5.8999">
        <ele>875</ele>
        <time>2000-01-01T03:42:54.000Z</time>
      </trkpt>
      <trkpt lat="45.31848" lon="5.90006">
        <ele>872.1</ele>
        <time>2000-01-01T03:43:04.000Z</time>
      </trkpt>
      <trkpt lat="45.31839" lon="5.90015">
        <ele>885</ele>
        <time>2000-01-01T03:43:14.000Z</time>
      </trkpt>
      <trkpt lat="45.31816" lon="5.90028">
        <ele>889</ele>
        <time>2000-01-01T03:43:24.000Z</time>
      </trkpt>
      <trkpt lat="45.31801" lon="5.90056">
        <ele>894</ele>
        <time>2000-01-01T03:43:34.000Z</time>
      </trkpt>
      <trkpt lat="45.31787" lon="5.90071">
        <ele>891.5</ele>
        <time>2000-01-01T03:43:44.000Z</time>
      </trkpt>
      <trkpt lat="45.31767" lon="5.90099">
        <ele>906</ele>
        <time>2000-01-01T03:43:54.000Z</time>
      </trkpt>
      <trkpt lat="45.31751" lon="5.90124">
        <ele>912</ele>
        <time>2000-01-01T03:44:04.000Z</time>
      </trkpt>
      <trkpt lat="45.3173" lon="5.90129">
        <ele>914</ele>
        <time>2000-01-01T03:44:14.000Z</time>
      </trkpt>
      <trkpt lat="45.31712" lon="5.90126">
        <ele>908.3</ele>
        <time>2000-01-01T03:44:24.000Z</time>
      </trkpt>
      <trkpt lat="45.31718" lon="5.9017">
        <ele>914</ele>
        <time>2000-01-01T03:44:34.000Z</time>
      </trkpt>
      <trkpt lat="45.31725" lon="5.90189">
        <ele>908.1</ele>
        <time>2000-01-01T03:44:44.000Z</time>
      </trkpt>
      <trkpt lat="45.31737" lon="5.90229">
        <ele>912</ele>
        <time>2000-01-01T03:44:54.000Z</time>
      </trkpt>
      <trkpt lat="45.31747" lon="5.90263">
        <ele>910</ele>
        <time>2000-01-01T03:45:04.000Z</time>
      </trkpt>
      <trkpt lat="45.31763" lon="5.90303">
        <ele>908</ele>
        <time>2000-01-01T03:45:14.000Z</time>
      </trkpt>
      <trkpt lat="45.31784" lon="5.90338">
        <ele>905</ele>
        <time>2000-01-01T03:45:24.000Z</time>
      </trkpt>
      <trkpt lat="45.31804" lon="5.90372">
        <ele>904</ele>
        <time>2000-01-01T03:45:34.000Z</time>
      </trkpt>
      <trkpt lat="45.31825" lon="5.90406">
        <ele>901</ele>
        <time>2000-01-01T03:45:44.000Z</time>
      </trkpt>
      <trkpt lat="45.31839" lon="5.90439">
        <ele>901</ele>
        <time>2000-01-01T03:45:54.000Z</time>
      </trkpt>
      <trkpt lat="45.31857" lon="5.90483">
        <ele>900</ele>
        <time>2000-01-01T03:46:04.000Z</time>
      </trkpt>
      <trkpt lat="45.31856" lon="5.90502">
        <ele>868.5</ele>
        <time>2000-01-01T03:46:14.000Z</time>
      </trkpt>
      <trkpt lat="45.31838" lon="5.9053">
        <ele>900</ele>
        <time>2000-01-01T03:46:24.000Z</time>
      </trkpt>
      <trkpt lat="45.31802" lon="5.90536">
        <ele>900</ele>
        <time>2000-01-01T03:46:34.000Z</time>
      </trkpt>
      <trkpt lat="45.31768" lon="5.90555">
        <ele>895</ele>
        <time>2000-01-01T03:46:44.000Z</time>
      </trkpt>
      <trkpt lat="45.31738" lon="5.90583">
        <ele>887</ele>
        <time>2000-01-01T03:46:54.000Z</time>
      </trkpt>
      <trkpt lat="45.31705" lon="5.90581">
        <ele>880</ele>
        <time>2000-01-01T03:47:04.000Z</time>
      </trkpt>
      <trkpt lat="45.31678" lon="5.90579">
        <ele>889</ele>
        <time>2000-01-01T03:47:14.000Z</time>
      </trkpt>
      <trkpt lat="45.31671" lon="5.90532">
        <ele>876</ele>
        <time>2000-01-01T03:47:24.000Z</time>
      </trkpt>
      <trkpt lat="45.31657" lon="5.90493">
        <ele>885</ele>
        <time>2000-01-01T03:47:34.000Z</time>
      </trkpt>
      <trkpt lat="45.31647" lon="5.90446">
        <ele>894</ele>
        <time>2000-01-01T03:47:44.000Z</time>
      </trkpt>
      <trkpt lat="45.31646" lon="5.90409">
        <ele>907</ele>
        <time>2000-01-01T03:47:54.000Z</time>
      </trkpt>
      <trkpt lat="45.31646" lon="5.90374">
        <ele>910</ele>
        <time>2000-01-01T03:48:04.000Z</time>
      </trkpt>
      <trkpt lat="45.31639" lon="5.9031">
        <ele>909</ele>
        <time>2000-01-01T03:48:14.000Z</time>
      </trkpt>
      <trkpt lat="45.31614" lon="5.90275">
        <ele>909</ele>
        <time>2000-01-01T03:48:24.000Z</time>
      </trkpt>
      <trkpt lat="45.31585" lon="5.90261">
        <ele>917</ele>
        <time>2000-01-01T03:48:34.000Z</time>
      </trkpt>
      <trkpt lat="45.31544" lon="5.90261">
        <ele>918</ele>
        <time>2000-01-01T03:48:44.000Z</time>
      </trkpt>
      <trkpt lat="45.31516" lon="5.9026">
        <ele>896</ele>
        <time>2000-01-01T03:48:54.000Z</time>
      </trkpt>
      <trkpt lat="45.31487" lon="5.90273">
        <ele>875</ele>
        <time>2000-01-01T03:49:04.000Z</time>
      </trkpt>
      <trkpt lat="45.31457" lon="5.90281">
        <ele>858</ele>
        <time>2000-01-01T03:49:14.000Z</time>
      </trkpt>
      <trkpt lat="45.3143" lon="5.90275">
        <ele>847</ele>
        <time>2000-01-01T03:49:24.000Z</time>
      </trkpt>
      <trkpt lat="45.31403" lon="5.90252">
        <ele>842</ele>
        <time>2000-01-01T03:49:34.000Z</time>
      </trkpt>
      <trkpt lat="45.31376" lon="5.90211">
        <ele>891</ele>
        <time>2000-01-01T03:49:44.000Z</time>
      </trkpt>
      <trkpt lat="45.31354" lon="5.90174">
        <ele>941</ele>
        <time>2000-01-01T03:49:54.000Z</time>
      </trkpt>
      <trkpt lat="45.31334" lon="5.90146">
        <ele>945</ele>
        <time>2000-01-01T03:50:04.000Z</time>
      </trkpt>
      <trkpt lat="45.31315" lon="5.90122">
        <ele>941</ele>
        <time>2000-01-01T03:50:14.000Z</time>
      </trkpt>
      <trkpt lat="45.31293" lon="5.90106">
        <ele>942</ele>
        <time>2000-01-01T03:50:24.000Z</time>
      </trkpt>
      <trkpt lat="45.31289" lon="5.90094">
        <ele>950.3</ele>
        <time>2000-01-01T03:50:34.000Z</time>
      </trkpt>
      <trkpt lat="45.31281" lon="5.90077">
        <ele>944</ele>
        <time>2000-01-01T03:50:44.000Z</time>
      </trkpt>
      <trkpt lat="45.31248" lon="5.90047">
        <ele>952</ele>
        <time>2000-01-01T03:50:54.000Z</time>
      </trkpt>
      <trkpt lat="45.3123" lon="5.90008">
        <ele>957</ele>
        <time>2000-01-01T03:51:04.000Z</time>
      </trkpt>
      <trkpt lat="45.31216" lon="5.89949">
        <ele>959</ele>
        <time>2000-01-01T03:51:14.000Z</time>
      </trkpt>
      <trkpt lat="45.31206" lon="5.89911">
        <ele>962</ele>
        <time>2000-01-01T03:51:24.000Z</time>
      </trkpt>
      <trkpt lat="45.31199" lon="5.89859">
        <ele>959</ele>
        <time>2000-01-01T03:51:34.000Z</time>
      </trkpt>
      <trkpt lat="45.31175" lon="5.89808">
        <ele>956</ele>
        <time>2000-01-01T03:51:44.000Z</time>
      </trkpt>
      <trkpt lat="45.31157" lon="5.89769">
        <ele>956</ele>
        <time>2000-01-01T03:51:54.000Z</time>
      </trkpt>
      <trkpt lat="45.31139" lon="5.8973">
        <ele>955</ele>
        <time>2000-01-01T03:52:04.000Z</time>
      </trkpt>
      <trkpt lat="45.31126" lon="5.89699">
        <ele>955</ele>
        <time>2000-01-01T03:52:14.000Z</time>
      </trkpt>
      <trkpt lat="45.3111" lon="5.89662">
        <ele>955</ele>
        <time>2000-01-01T03:52:24.000Z</time>
      </trkpt>
      <trkpt lat="45.31095" lon="5.89625">
        <ele>955</ele>
        <time>2000-01-01T03:52:34.000Z</time>
      </trkpt>
      <trkpt lat="45.31088" lon="5.89583">
        <ele>958</ele>
        <time>2000-01-01T03:52:44.000Z</time>
      </trkpt>
      <trkpt lat="45.31089" lon="5.89536">
        <ele>962</ele>
        <time>2000-01-01T03:52:54.000Z</time>
      </trkpt>
      <trkpt lat="45.31086" lon="5.89486">
        <ele>962</ele>
        <time>2000-01-01T03:53:04.000Z</time>
      </trkpt>
      <trkpt lat="45.31083" lon="5.89447">
        <ele>960</ele>
        <time>2000-01-01T03:53:14.000Z</time>
      </trkpt>
      <trkpt lat="45.31085" lon="5.89392">
        <ele>958</ele>
        <time>2000-01-01T03:53:24.000Z</time>
      </trkpt>
      <trkpt lat="45.31086" lon="5.89346">
        <ele>956</ele>
        <time>2000-01-01T03:53:34.000Z</time>
      </trkpt>
      <trkpt lat="45.31088" lon="5.893">
        <ele>956</ele>
        <time>2000-01-01T03:53:44.000Z</time>
      </trkpt>
      <trkpt lat="45.31096" lon="5.89237">
        <ele>957</ele>
        <time>2000-01-01T03:53:54.000Z</time>
      </trkpt>
      <trkpt lat="45.31106" lon="5.89196">
        <ele>967</ele>
        <time>2000-01-01T03:54:04.000Z</time>
      </trkpt>
      <trkpt lat="45.31108" lon="5.89137">
        <ele>968</ele>
        <time>2000-01-01T03:54:14.000Z</time>
      </trkpt>
      <trkpt lat="45.31105" lon="5.89108">
        <ele>969</ele>
        <time>2000-01-01T03:54:24.000Z</time>
      </trkpt>
      <trkpt lat="45.31096" lon="5.89072">
        <ele>970</ele>
        <time>2000-01-01T03:54:34.000Z</time>
      </trkpt>
      <trkpt lat="45.31088" lon="5.89039">
        <ele>971</ele>
        <time>2000-01-01T03:54:44.000Z</time>
      </trkpt>
      <trkpt lat="45.31066" lon="5.88986">
        <ele>972</ele>
        <time>2000-01-01T03:54:54.000Z</time>
      </trkpt>
      <trkpt lat="45.31051" lon="5.88951">
        <ele>972</ele>
        <time>2000-01-01T03:55:04.000Z</time>
      </trkpt>
      <trkpt lat="45.31038" lon="5.88893">
        <ele>973</ele>
        <time>2000-01-01T03:55:14.000Z</time>
      </trkpt>
      <trkpt lat="45.31029" lon="5.88859">
        <ele>973</ele>
        <time>2000-01-01T03:55:24.000Z</time>
      </trkpt>
      <trkpt lat="45.3102" lon="5.88827">
        <ele>973</ele>
        <time>2000-01-01T03:55:34.000Z</time>
      </trkpt>
      <trkpt lat="45.31006" lon="5.888">
        <ele>970</ele>
        <time>2000-01-01T03:55:44.000Z</time>
      </trkpt>
      <trkpt lat="45.30975" lon="5.88766">
        <ele>970</ele>
        <time>2000-01-01T03:55:54.000Z</time>
      </trkpt>
      <trkpt lat="45.30931" lon="5.8879">
        <ele>960</ele>
        <time>2000-01-01T03:56:04.000Z</time>
      </trkpt>
      <trkpt lat="45.30916" lon="5.8879">
        <ele>952.3</ele>
        <time>2000-01-01T03:56:14.000Z</time>
      </trkpt>
      <trkpt lat="45.30894" lon="5.88778">
        <ele>956</ele>
        <time>2000-01-01T03:56:24.000Z</time>
      </trkpt>
      <trkpt lat="45.30887" lon="5.88775">
        <ele>950.9</ele>
        <time>2000-01-01T03:56:34.000Z</time>
      </trkpt>
      <trkpt lat="45.30871" lon="5.88759">
        <ele>955</ele>
        <time>2000-01-01T03:56:44.000Z</time>
      </trkpt>
      <trkpt lat="45.30841" lon="5.88754">
        <ele>954</ele>
        <time>2000-01-01T03:56:54.000Z</time>
      </trkpt>
      <trkpt lat="45.30835" lon="5.88714">
        <ele>954</ele>
        <time>2000-01-01T03:57:04.000Z</time>
      </trkpt>
      <trkpt lat="45.3083" lon="5.88678">
        <ele>953</ele>
        <time>2000-01-01T03:57:14.000Z</time>
      </trkpt>
      <trkpt lat="45.30806" lon="5.8868">
        <ele>952</ele>
        <time>2000-01-01T03:57:24.000Z</time>
      </trkpt>
      <trkpt lat="45.30782" lon="5.88682">
        <ele>947</ele>
        <time>2000-01-01T03:57:34.000Z</time>
      </trkpt>
      <trkpt lat="45.30769" lon="5.88699">
        <ele>946.9</ele>
        <time>2000-01-01T03:57:44.000Z</time>
      </trkpt>
      <trkpt lat="45.30761" lon="5.88742">
        <ele>941</ele>
        <time>2000-01-01T03:57:54.000Z</time>
      </trkpt>
      <trkpt lat="45.3072" lon="5.88773">
        <ele>937</ele>
        <time>2000-01-01T03:58:04.000Z</time>
      </trkpt>
      <trkpt lat="45.30703" lon="5.8877">
        <ele>921.6</ele>
        <time>2000-01-01T03:58:14.000Z</time>
      </trkpt>
      <trkpt lat="45.30695" lon="5.88766">
        <ele>934</ele>
        <time>2000-01-01T03:58:24.000Z</time>
      </trkpt>
      <trkpt lat="45.30675" lon="5.88737">
        <ele>927</ele>
        <time>2000-01-01T03:58:34.000Z</time>
      </trkpt>
      <trkpt lat="45.30661" lon="5.88764">
        <ele>923</ele>
        <time>2000-01-01T03:58:44.000Z</time>
      </trkpt>
      <trkpt lat="45.30647" lon="5.88792">
        <ele>916</ele>
        <time>2000-01-01T03:58:54.000Z</time>
      </trkpt>
      <trkpt lat="45.30619" lon="5.8881">
        <ele>904</ele>
        <time>2000-01-01T03:59:04.000Z</time>
      </trkpt>
      <trkpt lat="45.30564" lon="5.88846">
        <ele>899</ele>
        <time>2000-01-01T03:59:14.000Z</time>
      </trkpt>
      <trkpt lat="45.30548" lon="5.88839">
        <ele>832.9</ele>
        <time>2000-01-01T03:59:24.000Z</time>
      </trkpt>
      <trkpt lat="45.30538" lon="5.88805">
        <ele>899</ele>
        <time>2000-01-01T03:59:34.000Z</time>
      </trkpt>
      <trkpt lat="45.30511" lon="5.88799">
        <ele>889</ele>
        <time>2000-01-01T03:59:44.000Z</time>
      </trkpt>
      <trkpt lat="45.30487" lon="5.88797">
        <ele>880</ele>
        <time>2000-01-01T03:59:54.000Z</time>
      </trkpt>
      <trkpt lat="45.30461" lon="5.88774">
        <ele>880</ele>
        <time>2000-01-01T04:00:04.000Z</time>
      </trkpt>
      <trkpt lat="45.30438" lon="5.88748">
        <ele>894</ele>
        <time>2000-01-01T04:00:14.000Z</time>
      </trkpt>
      <trkpt lat="45.30438" lon="5.88727">
        <ele>906.1</ele>
        <time>2000-01-01T04:00:24.000Z</time>
      </trkpt>
      <trkpt lat="45.30444" lon="5.88725">
        <ele>898</ele>
        <time>2000-01-01T04:00:34.000Z</time>
      </trkpt>
      <trkpt lat="45.30449" lon="5.88733">
        <ele>907.5</ele>
        <time>2000-01-01T04:00:44.000Z</time>
      </trkpt>
      <trkpt lat="45.3046" lon="5.88744">
        <ele>903</ele>
        <time>2000-01-01T04:00:54.000Z</time>
      </trkpt>
      <trkpt lat="45.3047" lon="5.8874">
        <ele>911.1</ele>
        <time>2000-01-01T04:01:04.000Z</time>
      </trkpt>
      <trkpt lat="45.30483" lon="5.88738">
        <ele>923</ele>
        <time>2000-01-01T04:01:14.000Z</time>
      </trkpt>
      <trkpt lat="45.3049" lon="5.88725">
        <ele>914.7</ele>
        <time>2000-01-01T04:01:24.000Z</time>
      </trkpt>
      <trkpt lat="45.30463" lon="5.88703">
        <ele>937</ele>
        <time>2000-01-01T04:01:34.000Z</time>
      </trkpt>
      <trkpt lat="45.30453" lon="5.88643">
        <ele>953</ele>
        <time>2000-01-01T04:01:44.000Z</time>
      </trkpt>
      <trkpt lat="45.30444" lon="5.8861">
        <ele>956</ele>
        <time>2000-01-01T04:01:54.000Z</time>
      </trkpt>
      <trkpt lat="45.30435" lon="5.88579">
        <ele>961</ele>
        <time>2000-01-01T04:02:04.000Z</time>
      </trkpt>
      <trkpt lat="45.30428" lon="5.88515">
        <ele>981</ele>
        <time>2000-01-01T04:02:14.000Z</time>
      </trkpt>
      <trkpt lat="45.3041" lon="5.88497">
        <ele>981</ele>
        <time>2000-01-01T04:02:24.000Z</time>
      </trkpt>
      <trkpt lat="45.30389" lon="5.88504">
        <ele>982</ele>
        <time>2000-01-01T04:02:34.000Z</time>
      </trkpt>
      <trkpt lat="45.30345" lon="5.8848">
        <ele>1001</ele>
        <time>2000-01-01T04:02:44.000Z</time>
      </trkpt>
      <trkpt lat="45.30321" lon="5.8848">
        <ele>1001</ele>
        <time>2000-01-01T04:02:54.000Z</time>
      </trkpt>
      <trkpt lat="45.30298" lon="5.88481">
        <ele>1001</ele>
        <time>2000-01-01T04:03:04.000Z</time>
      </trkpt>
      <trkpt lat="45.30277" lon="5.88488">
        <ele>1001</ele>
        <time>2000-01-01T04:03:14.000Z</time>
      </trkpt>
      <trkpt lat="45.30263" lon="5.88462">
        <ele>1007</ele>
        <time>2000-01-01T04:03:24.000Z</time>
      </trkpt>
      <trkpt lat="45.30228" lon="5.88424">
        <ele>1014</ele>
        <time>2000-01-01T04:03:34.000Z</time>
      </trkpt>
      <trkpt lat="45.30205" lon="5.88399">
        <ele>1017</ele>
        <time>2000-01-01T04:03:44.000Z</time>
      </trkpt>
      <trkpt lat="45.30177" lon="5.88386">
        <ele>1020</ele>
        <time>2000-01-01T04:03:54.000Z</time>
      </trkpt>
      <trkpt lat="45.30152" lon="5.88375">
        <ele>1022</ele>
        <time>2000-01-01T04:04:04.000Z</time>
      </trkpt>
      <trkpt lat="45.30118" lon="5.8837">
        <ele>1024</ele>
        <time>2000-01-01T04:04:14.000Z</time>
      </trkpt>
      <trkpt lat="45.30089" lon="5.8837">
        <ele>1027</ele>
        <time>2000-01-01T04:04:24.000Z</time>
      </trkpt>
      <trkpt lat="45.30072" lon="5.88357">
        <ele>1027</ele>
        <time>2000-01-01T04:04:34.000Z</time>
      </trkpt>
      <trkpt lat="45.30034" lon="5.88321">
        <ele>1028</ele>
        <time>2000-01-01T04:04:44.000Z</time>
      </trkpt>
      <trkpt lat="45.3001" lon="5.88297">
        <ele>1045</ele>
        <time>2000-01-01T04:04:54.000Z</time>
      </trkpt>
      <trkpt lat="45.29994" lon="5.88263">
        <ele>1046</ele>
        <time>2000-01-01T04:05:04.000Z</time>
      </trkpt>
      <trkpt lat="45.29971" lon="5.88253">
        <ele>1046</ele>
        <time>2000-01-01T04:05:14.000Z</time>
      </trkpt>
      <trkpt lat="45.29959" lon="5.88231">
        <ele>1047</ele>
        <time>2000-01-01T04:05:24.000Z</time>
      </trkpt>
      <trkpt lat="45.29949" lon="5.88193">
        <ele>1051</ele>
        <time>2000-01-01T04:05:34.000Z</time>
      </trkpt>
      <trkpt lat="45.29936" lon="5.88147">
        <ele>1053</ele>
        <time>2000-01-01T04:05:44.000Z</time>
      </trkpt>
      <trkpt lat="45.29926" lon="5.88112">
        <ele>1055</ele>
        <time>2000-01-01T04:05:54.000Z</time>
      </trkpt>
      <trkpt lat="45.29912" lon="5.88064">
        <ele>1048</ele>
        <time>2000-01-01T04:06:04.000Z</time>
      </trkpt>
      <trkpt lat="45.299" lon="5.88043">
        <ele>1046.5</ele>
        <time>2000-01-01T04:06:14.000Z</time>
      </trkpt>
      <trkpt lat="45.29869" lon="5.88033">
        <ele>1045</ele>
        <time>2000-01-01T04:06:24.000Z</time>
      </trkpt>
      <trkpt lat="45.29841" lon="5.88016">
        <ele>1043</ele>
        <time>2000-01-01T04:06:34.000Z</time>
      </trkpt>
      <trkpt lat="45.29799" lon="5.87992">
        <ele>1024</ele>
        <time>2000-01-01T04:06:44.000Z</time>
      </trkpt>
      <trkpt lat="45.29765" lon="5.87981">
        <ele>1021</ele>
        <time>2000-01-01T04:06:54.000Z</time>
      </trkpt>
      <trkpt lat="45.29738" lon="5.87972">
        <ele>1002</ele>
        <time>2000-01-01T04:07:04.000Z</time>
      </trkpt>
      <trkpt lat="45.29708" lon="5.87957">
        <ele>992</ele>
        <time>2000-01-01T04:07:14.000Z</time>
      </trkpt>
      <trkpt lat="45.297" lon="5.87934">
        <ele>952.6</ele>
        <time>2000-01-01T04:07:24.000Z</time>
      </trkpt>
      <trkpt lat="45.29692" lon="5.87881">
        <ele>992</ele>
        <time>2000-01-01T04:07:34.000Z</time>
      </trkpt>
      <trkpt lat="45.29671" lon="5.8788">
        <ele>979</ele>
        <time>2000-01-01T04:07:44.000Z</time>
      </trkpt>
      <trkpt lat="45.29657" lon="5.87917">
        <ele>962</ele>
        <time>2000-01-01T04:07:54.000Z</time>
      </trkpt>
      <trkpt lat="45.29642" lon="5.87933">
        <ele>962</ele>
        <time>2000-01-01T04:08:04.000Z</time>
      </trkpt>
      <trkpt lat="45.29632" lon="5.87899">
        <ele>954</ele>
        <time>2000-01-01T04:08:14.000Z</time>
      </trkpt>
      <trkpt lat="45.29621" lon="5.87859">
        <ele>955</ele>
        <time>2000-01-01T04:08:24.000Z</time>
      </trkpt>
      <trkpt lat="45.29609" lon="5.87818">
        <ele>953</ele>
        <time>2000-01-01T04:08:34.000Z</time>
      </trkpt>
      <trkpt lat="45.29602" lon="5.87765">
        <ele>952</ele>
        <time>2000-01-01T04:08:44.000Z</time>
      </trkpt>
      <trkpt lat="45.29599" lon="5.87724">
        <ele>951</ele>
        <time>2000-01-01T04:08:54.000Z</time>
      </trkpt>
      <trkpt lat="45.29588" lon="5.87704">
        <ele>971.1</ele>
        <time>2000-01-01T04:09:04.000Z</time>
      </trkpt>
      <trkpt lat="45.29555" lon="5.87685">
        <ele>951</ele>
        <time>2000-01-01T04:09:14.000Z</time>
      </trkpt>
      <trkpt lat="45.29531" lon="5.8767">
        <ele>949</ele>
        <time>2000-01-01T04:09:24.000Z</time>
      </trkpt>
      <trkpt lat="45.295" lon="5.87652">
        <ele>948</ele>
        <time>2000-01-01T04:09:34.000Z</time>
      </trkpt>
      <trkpt lat="45.2947" lon="5.87636">
        <ele>949</ele>
        <time>2000-01-01T04:09:44.000Z</time>
      </trkpt>
      <trkpt lat="45.2944" lon="5.87619">
        <ele>927</ele>
        <time>2000-01-01T04:09:54.000Z</time>
      </trkpt>
      <trkpt lat="45.29417" lon="5.8761">
        <ele>905</ele>
        <time>2000-01-01T04:10:04.000Z</time>
      </trkpt>
      <trkpt lat="45.29382" lon="5.87578">
        <ele>866</ele>
        <time>2000-01-01T04:10:14.000Z</time>
      </trkpt>
      <trkpt lat="45.29366" lon="5.8754">
        <ele>897</ele>
        <time>2000-01-01T04:10:24.000Z</time>
      </trkpt>
      <trkpt lat="45.29355" lon="5.87497">
        <ele>928</ele>
        <time>2000-01-01T04:10:34.000Z</time>
      </trkpt>
      <trkpt lat="45.29358" lon="5.87488">
        <ele>824.2</ele>
        <time>2000-01-01T04:10:44.000Z</time>
      </trkpt>
      <trkpt lat="45.29389" lon="5.87445">
        <ele>930</ele>
        <time>2000-01-01T04:10:54.000Z</time>
      </trkpt>
      <trkpt lat="45.29382" lon="5.87428">
        <ele>888.9</ele>
        <time>2000-01-01T04:11:04.000Z</time>
      </trkpt>
      <trkpt lat="45.29386" lon="5.87418">
        <ele>924</ele>
        <time>2000-01-01T04:11:14.000Z</time>
      </trkpt>
      <trkpt lat="45.29407" lon="5.87393">
        <ele>919</ele>
        <time>2000-01-01T04:11:24.000Z</time>
      </trkpt>
      <trkpt lat="45.29431" lon="5.87349">
        <ele>920</ele>
        <time>2000-01-01T04:11:34.000Z</time>
      </trkpt>
      <trkpt lat="45.29454" lon="5.87311">
        <ele>920</ele>
        <time>2000-01-01T04:11:44.000Z</time>
      </trkpt>
      <trkpt lat="45.29481" lon="5.87275">
        <ele>920</ele>
        <time>2000-01-01T04:11:54.000Z</time>
      </trkpt>
      <trkpt lat="45.29513" lon="5.87252">
        <ele>926</ele>
        <time>2000-01-01T04:12:04.000Z</time>
      </trkpt>
      <trkpt lat="45.29537" lon="5.87243">
        <ele>928</ele>
        <time>2000-01-01T04:12:14.000Z</time>
      </trkpt>
      <trkpt lat="45.2956" lon="5.87235">
        <ele>931</ele>
        <time>2000-01-01T04:12:24.000Z</time>
      </trkpt>
      <trkpt lat="45.29586" lon="5.87192">
        <ele>937</ele>
        <time>2000-01-01T04:12:34.000Z</time>
      </trkpt>
      <trkpt lat="45.29608" lon="5.87147">
        <ele>943</ele>
        <time>2000-01-01T04:12:44.000Z</time>
      </trkpt>
      <trkpt lat="45.29619" lon="5.87151">
        <ele>937.1</ele>
        <time>2000-01-01T04:12:54.000Z</time>
      </trkpt>
      <trkpt lat="45.29637" lon="5.87147">
        <ele>943</ele>
        <time>2000-01-01T04:13:04.000Z</time>
      </trkpt>
      <trkpt lat="45.29635" lon="5.87114">
        <ele>942</ele>
        <time>2000-01-01T04:13:14.000Z</time>
      </trkpt>
      <trkpt lat="45.29645" lon="5.87092">
        <ele>933.4</ele>
        <time>2000-01-01T04:13:24.000Z</time>
      </trkpt>
      <trkpt lat="45.29687" lon="5.87079">
        <ele>942</ele>
        <time>2000-01-01T04:13:34.000Z</time>
      </trkpt>
      <trkpt lat="45.29702" lon="5.8708">
        <ele>936.2</ele>
        <time>2000-01-01T04:13:44.000Z</time>
      </trkpt>
      <trkpt lat="45.29716" lon="5.87093">
        <ele>954</ele>
        <time>2000-01-01T04:13:54.000Z</time>
      </trkpt>
      <trkpt lat="45.29738" lon="5.87095">
        <ele>954</ele>
        <time>2000-01-01T04:14:04.000Z</time>
      </trkpt>
      <trkpt lat="45.29758" lon="5.87114">
        <ele>969</ele>
        <time>2000-01-01T04:14:14.000Z</time>
      </trkpt>
      <trkpt lat="45.2978" lon="5.87139">
        <ele>972</ele>
        <time>2000-01-01T04:14:24.000Z</time>
      </trkpt>
      <trkpt lat="45.29788" lon="5.87139">
        <ele>971.7</ele>
        <time>2000-01-01T04:14:34.000Z</time>
      </trkpt>
      <trkpt lat="45.29785" lon="5.87103">
        <ele>964</ele>
        <time>2000-01-01T04:14:44.000Z</time>
      </trkpt>
      <trkpt lat="45.29789" lon="5.87085">
        <ele>967.7</ele>
        <time>2000-01-01T04:14:54.000Z</time>
      </trkpt>
      <trkpt lat="45.29816" lon="5.87068">
        <ele>966</ele>
        <time>2000-01-01T04:15:04.000Z</time>
      </trkpt>
      <trkpt lat="45.29857" lon="5.87071">
        <ele>968</ele>
        <time>2000-01-01T04:15:14.000Z</time>
      </trkpt>
      <trkpt lat="45.29881" lon="5.87068">
        <ele>971</ele>
        <time>2000-01-01T04:15:24.000Z</time>
      </trkpt>
      <trkpt lat="45.29907" lon="5.87065">
        <ele>971</ele>
        <time>2000-01-01T04:15:34.000Z</time>
      </trkpt>
      <trkpt lat="45.29914" lon="5.87055">
        <ele>980.5</ele>
        <time>2000-01-01T04:15:44.000Z</time>
      </trkpt>
      <trkpt lat="45.29927" lon="5.87018">
        <ele>978</ele>
        <time>2000-01-01T04:15:54.000Z</time>
      </trkpt>
      <trkpt lat="45.29943" lon="5.8699">
        <ele>979</ele>
        <time>2000-01-01T04:16:04.000Z</time>
      </trkpt>
      <trkpt lat="45.2992" lon="5.86967">
        <ele>978</ele>
        <time>2000-01-01T04:16:14.000Z</time>
      </trkpt>
      <trkpt lat="45.29903" lon="5.86953">
        <ele>978</ele>
        <time>2000-01-01T04:16:24.000Z</time>
      </trkpt>
      <trkpt lat="45.299" lon="5.86927">
        <ele>980.3</ele>
        <time>2000-01-01T04:16:34.000Z</time>
      </trkpt>
      <trkpt lat="45.29892" lon="5.86914">
        <ele>974</ele>
        <time>2000-01-01T04:16:44.000Z</time>
      </trkpt>
      <trkpt lat="45.29876" lon="5.86907">
        <ele>978.2</ele>
        <time>2000-01-01T04:16:54.000Z</time>
      </trkpt>
      <trkpt lat="45.29873" lon="5.86898">
        <ele>977</ele>
        <time>2000-01-01T04:17:04.000Z</time>
      </trkpt>
      <trkpt lat="45.29878" lon="5.86889">
        <ele>978.7</ele>
        <time>2000-01-01T04:17:14.000Z</time>
      </trkpt>
      <trkpt lat="45.299" lon="5.8686">
        <ele>980</ele>
        <time>2000-01-01T04:17:24.000Z</time>
      </trkpt>
      <trkpt lat="45.29908" lon="5.86829">
        <ele>982</ele>
        <time>2000-01-01T04:17:34.000Z</time>
      </trkpt>
      <trkpt lat="45.29904" lon="5.86809">
        <ele>987.3</ele>
        <time>2000-01-01T04:17:44.000Z</time>
      </trkpt>
      <trkpt lat="45.29886" lon="5.86802">
        <ele>980</ele>
        <time>2000-01-01T04:17:54.000Z</time>
      </trkpt>
      <trkpt lat="45.29862" lon="5.86797">
        <ele>979</ele>
        <time>2000-01-01T04:18:04.000Z</time>
      </trkpt>
      <trkpt lat="45.29854" lon="5.86807">
        <ele>979.9</ele>
        <time>2000-01-01T04:18:14.000Z</time>
      </trkpt>
      <trkpt lat="45.29823" lon="5.86818">
        <ele>971</ele>
        <time>2000-01-01T04:18:24.000Z</time>
      </trkpt>
      <trkpt lat="45.29815" lon="5.86815">
        <ele>968.6</ele>
        <time>2000-01-01T04:18:34.000Z</time>
      </trkpt>
      <trkpt lat="45.2978" lon="5.86814">
        <ele>969</ele>
        <time>2000-01-01T04:18:44.000Z</time>
      </trkpt>
      <trkpt lat="45.29749" lon="5.86815">
        <ele>966</ele>
        <time>2000-01-01T04:18:54.000Z</time>
      </trkpt>
      <trkpt lat="45.29728" lon="5.868">
        <ele>958</ele>
        <time>2000-01-01T04:19:04.000Z</time>
      </trkpt>
      <trkpt lat="45.29701" lon="5.868">
        <ele>958</ele>
        <time>2000-01-01T04:19:14.000Z</time>
      </trkpt>
      <trkpt lat="45.2968" lon="5.86803">
        <ele>959</ele>
        <time>2000-01-01T04:19:24.000Z</time>
      </trkpt>
      <trkpt lat="45.29658" lon="5.86794">
        <ele>962</ele>
        <time>2000-01-01T04:19:34.000Z</time>
      </trkpt>
      <trkpt lat="45.2964" lon="5.86775">
        <ele>962</ele>
        <time>2000-01-01T04:19:44.000Z</time>
      </trkpt>
      <trkpt lat="45.29609" lon="5.86765">
        <ele>961</ele>
        <time>2000-01-01T04:19:54.000Z</time>
      </trkpt>
      <trkpt lat="45.29587" lon="5.86759">
        <ele>961</ele>
        <time>2000-01-01T04:20:04.000Z</time>
      </trkpt>
      <trkpt lat="45.29565" lon="5.86749">
        <ele>961</ele>
        <time>2000-01-01T04:20:14.000Z</time>
      </trkpt>
      <trkpt lat="45.29554" lon="5.86718">
        <ele>962</ele>
        <time>2000-01-01T04:20:24.000Z</time>
      </trkpt>
      <trkpt lat="45.29543" lon="5.86686">
        <ele>963</ele>
        <time>2000-01-01T04:20:34.000Z</time>
      </trkpt>
      <trkpt lat="45.2953" lon="5.86648">
        <ele>964</ele>
        <time>2000-01-01T04:20:44.000Z</time>
      </trkpt>
      <trkpt lat="45.29502" lon="5.86636">
        <ele>966</ele>
        <time>2000-01-01T04:20:54.000Z</time>
      </trkpt>
      <trkpt lat="45.29508" lon="5.86602">
        <ele>974</ele>
        <time>2000-01-01T04:21:04.000Z</time>
      </trkpt>
      <trkpt lat="45.29498" lon="5.86591">
        <ele>983</ele>
        <time>2000-01-01T04:21:14.000Z</time>
      </trkpt>
      <trkpt lat="45.29497" lon="5.86583">
        <ele>987.2</ele>
        <time>2000-01-01T04:21:24.000Z</time>
      </trkpt>
      <trkpt lat="45.29505" lon="5.86574">
        <ele>981</ele>
        <time>2000-01-01T04:21:34.000Z</time>
      </trkpt>
      <trkpt lat="45.295" lon="5.86563">
        <ele>992.9</ele>
        <time>2000-01-01T04:21:44.000Z</time>
      </trkpt>
      <trkpt lat="45.29479" lon="5.86554">
        <ele>985</ele>
        <time>2000-01-01T04:21:54.000Z</time>
      </trkpt>
      <trkpt lat="45.29487" lon="5.86534">
        <ele>992.1</ele>
        <time>2000-01-01T04:22:04.000Z</time>
      </trkpt>
      <trkpt lat="45.29503" lon="5.86531">
        <ele>992</ele>
        <time>2000-01-01T04:22:14.000Z</time>
      </trkpt>
      <trkpt lat="45.29506" lon="5.86497">
        <ele>998</ele>
        <time>2000-01-01T04:22:24.000Z</time>
      </trkpt>
      <trkpt lat="45.2951" lon="5.86464">
        <ele>1004</ele>
        <time>2000-01-01T04:22:34.000Z</time>
      </trkpt>
      <trkpt lat="45.29507" lon="5.86456">
        <ele>1012.9</ele>
        <time>2000-01-01T04:22:44.000Z</time>
      </trkpt>
      <trkpt lat="45.29492" lon="5.86433">
        <ele>1008</ele>
        <time>2000-01-01T04:22:54.000Z</time>
      </trkpt>
      <trkpt lat="45.29466" lon="5.86416">
        <ele>1013</ele>
        <time>2000-01-01T04:23:04.000Z</time>
      </trkpt>
      <trkpt lat="45.29425" lon="5.8639">
        <ele>1012</ele>
        <time>2000-01-01T04:23:14.000Z</time>
      </trkpt>
      <trkpt lat="45.29413" lon="5.86374">
        <ele>1004.7</ele>
        <time>2000-01-01T04:23:24.000Z</time>
      </trkpt>
      <trkpt lat="45.29399" lon="5.86338">
        <ele>1011</ele>
        <time>2000-01-01T04:23:34.000Z</time>
      </trkpt>
      <trkpt lat="45.29382" lon="5.86278">
        <ele>1011</ele>
        <time>2000-01-01T04:23:44.000Z</time>
      </trkpt>
      <trkpt lat="45.29377" lon="5.86256">
        <ele>1010.8</ele>
        <time>2000-01-01T04:23:54.000Z</time>
      </trkpt>
      <trkpt lat="45.29373" lon="5.86241">
        <ele>1012</ele>
        <time>2000-01-01T04:24:04.000Z</time>
      </trkpt>
      <trkpt lat="45.29365" lon="5.86232">
        <ele>1014.4</ele>
        <time>2000-01-01T04:24:14.000Z</time>
      </trkpt>
      <trkpt lat="45.29386" lon="5.86208">
        <ele>1015</ele>
        <time>2000-01-01T04:24:24.000Z</time>
      </trkpt>
      <trkpt lat="45.29402" lon="5.86179">
        <ele>1018</ele>
        <time>2000-01-01T04:24:34.000Z</time>
      </trkpt>
      <trkpt lat="45.2942" lon="5.86141">
        <ele>1025</ele>
        <time>2000-01-01T04:24:44.000Z</time>
      </trkpt>
      <trkpt lat="45.29433" lon="5.86122">
        <ele>1036.2</ele>
        <time>2000-01-01T04:24:54.000Z</time>
      </trkpt>
      <trkpt lat="45.29454" lon="5.86083">
        <ele>1041</ele>
        <time>2000-01-01T04:25:04.000Z</time>
      </trkpt>
      <trkpt lat="45.29474" lon="5.86059">
        <ele>1045</ele>
        <time>2000-01-01T04:25:14.000Z</time>
      </trkpt>
      <trkpt lat="45.29504" lon="5.86039">
        <ele>1052</ele>
        <time>2000-01-01T04:25:24.000Z</time>
      </trkpt>
      <trkpt lat="45.29482" lon="5.86006">
        <ele>1055</ele>
        <time>2000-01-01T04:25:34.000Z</time>
      </trkpt>
      <trkpt lat="45.29464" lon="5.85979">
        <ele>1054</ele>
        <time>2000-01-01T04:25:44.000Z</time>
      </trkpt>
      <trkpt lat="45.29458" lon="5.85967">
        <ele>1054.9</ele>
        <time>2000-01-01T04:25:54.000Z</time>
      </trkpt>
      <trkpt lat="45.29452" lon="5.85946">
        <ele>1054</ele>
        <time>2000-01-01T04:26:04.000Z</time>
      </trkpt>
      <trkpt lat="45.29448" lon="5.85908">
        <ele>1054</ele>
        <time>2000-01-01T04:26:14.000Z</time>
      </trkpt>
      <trkpt lat="45.29437" lon="5.85897">
        <ele>1056.1</ele>
        <time>2000-01-01T04:26:24.000Z</time>
      </trkpt>
      <trkpt lat="45.2943" lon="5.85886">
        <ele>1052</ele>
        <time>2000-01-01T04:26:34.000Z</time>
      </trkpt>
      <trkpt lat="45.29426" lon="5.85872">
        <ele>1056</ele>
        <time>2000-01-01T04:26:44.000Z</time>
      </trkpt>
      <trkpt lat="45.29426" lon="5.85858">
        <ele>1052</ele>
        <time>2000-01-01T04:26:54.000Z</time>
      </trkpt>
      <trkpt lat="45.29423" lon="5.85836">
        <ele>1052.2</ele>
        <time>2000-01-01T04:27:04.000Z</time>
      </trkpt>
      <trkpt lat="45.29416" lon="5.85791">
        <ele>1051</ele>
        <time>2000-01-01T04:27:14.000Z</time>
      </trkpt>
      <trkpt lat="45.29411" lon="5.8577">
        <ele>1044.2</ele>
        <time>2000-01-01T04:27:24.000Z</time>
      </trkpt>
      <trkpt lat="45.29398" lon="5.85747">
        <ele>1051</ele>
        <time>2000-01-01T04:27:34.000Z</time>
      </trkpt>
      <trkpt lat="45.29381" lon="5.85723">
        <ele>1045</ele>
        <time>2000-01-01T04:27:44.000Z</time>
      </trkpt>
      <trkpt lat="45.29373" lon="5.85707">
        <ele>1040.8</ele>
        <time>2000-01-01T04:27:54.000Z</time>
      </trkpt>
      <trkpt lat="45.29368" lon="5.8567">
        <ele>1039</ele>
        <time>2000-01-01T04:28:04.000Z</time>
      </trkpt>
      <trkpt lat="45.29369" lon="5.85651">
        <ele>1042</ele>
        <time>2000-01-01T04:28:14.000Z</time>
      </trkpt>
      <trkpt lat="45.29367" lon="5.85635">
        <ele>1038</ele>
        <time>2000-01-01T04:28:24.000Z</time>
      </trkpt>
      <trkpt lat="45.29371" lon="5.85618">
        <ele>1043.1</ele>
        <time>2000-01-01T04:28:34.000Z</time>
      </trkpt>
      <trkpt lat="45.29379" lon="5.85599">
        <ele>1038</ele>
        <time>2000-01-01T04:28:44.000Z</time>
      </trkpt>
      <trkpt lat="45.29379" lon="5.8559">
        <ele>1044.7</ele>
        <time>2000-01-01T04:28:54.000Z</time>
      </trkpt>
      <trkpt lat="45.29377" lon="5.85581">
        <ele>1045</ele>
        <time>2000-01-01T04:29:04.000Z</time>
      </trkpt>
      <trkpt lat="45.29374" lon="5.85494">
        <ele>1040</ele>
        <time>2000-01-01T04:29:14.000Z</time>
      </trkpt>
      <trkpt lat="45.29373" lon="5.85449">
        <ele>1040</ele>
        <time>2000-01-01T04:29:24.000Z</time>
      </trkpt>
      <trkpt lat="45.29373" lon="5.85431">
        <ele>1043</ele>
        <time>2000-01-01T04:29:34.000Z</time>
      </trkpt>
      <trkpt lat="45.29376" lon="5.85414">
        <ele>1040</ele>
        <time>2000-01-01T04:29:44.000Z</time>
      </trkpt>
      <trkpt lat="45.29377" lon="5.85382">
        <ele>1040</ele>
        <time>2000-01-01T04:29:54.000Z</time>
      </trkpt>
      <trkpt lat="45.29381" lon="5.8535">
        <ele>1040</ele>
        <time>2000-01-01T04:30:04.000Z</time>
      </trkpt>
      <trkpt lat="45.29385" lon="5.85339">
        <ele>1042.6</ele>
        <time>2000-01-01T04:30:14.000Z</time>
      </trkpt>
      <trkpt lat="45.2939" lon="5.8533">
        <ele>1035.3</ele>
        <time>2000-01-01T04:30:24.000Z</time>
      </trkpt>
      <trkpt lat="45.29404" lon="5.85309">
        <ele>1031</ele>
        <time>2000-01-01T04:30:34.000Z</time>
      </trkpt>
      <trkpt lat="45.29431" lon="5.8529">
        <ele>1033</ele>
        <time>2000-01-01T04:30:44.000Z</time>
      </trkpt>
      <trkpt lat="45.29444" lon="5.85283">
        <ele>1050.4</ele>
        <time>2000-01-01T04:30:54.000Z</time>
      </trkpt>
      <trkpt lat="45.29451" lon="5.85281">
        <ele>1036</ele>
        <time>2000-01-01T04:31:04.000Z</time>
      </trkpt>
      <trkpt lat="45.29456" lon="5.85277">
        <ele>1052.1</ele>
        <time>2000-01-01T04:31:14.000Z</time>
      </trkpt>
      <trkpt lat="45.29464" lon="5.8526">
        <ele>1038</ele>
        <time>2000-01-01T04:31:24.000Z</time>
      </trkpt>
      <trkpt lat="45.29469" lon="5.85236">
        <ele>1042</ele>
        <time>2000-01-01T04:31:34.000Z</time>
      </trkpt>
      <trkpt lat="45.29472" lon="5.85228">
        <ele>1041</ele>
        <time>2000-01-01T04:31:44.000Z</time>
      </trkpt>
      <trkpt lat="45.29477" lon="5.8522">
        <ele>1041.1</ele>
        <time>2000-01-01T04:31:54.000Z</time>
      </trkpt>
      <trkpt lat="45.29497" lon="5.85203">
        <ele>1047</ele>
        <time>2000-01-01T04:32:04.000Z</time>
      </trkpt>
      <trkpt lat="45.29502" lon="5.85198">
        <ele>1055</ele>
        <time>2000-01-01T04:32:14.000Z</time>
      </trkpt>
      <trkpt lat="45.29509" lon="5.85198">
        <ele>1055.6</ele>
        <time>2000-01-01T04:32:24.000Z</time>
      </trkpt>
      <trkpt lat="45.29534" lon="5.85177">
        <ele>1046</ele>
        <time>2000-01-01T04:32:34.000Z</time>
      </trkpt>
      <trkpt lat="45.2955" lon="5.85158">
        <ele>1058</ele>
        <time>2000-01-01T04:32:44.000Z</time>
      </trkpt>
      <trkpt lat="45.2957" lon="5.85135">
        <ele>1062</ele>
        <time>2000-01-01T04:32:54.000Z</time>
      </trkpt>
      <trkpt lat="45.29581" lon="5.85129">
        <ele>1050.2</ele>
        <time>2000-01-01T04:33:04.000Z</time>
      </trkpt>
      <trkpt lat="45.29609" lon="5.85118">
        <ele>1067</ele>
        <time>2000-01-01T04:33:14.000Z</time>
      </trkpt>
      <trkpt lat="45.29627" lon="5.85112">
        <ele>1065.1</ele>
        <time>2000-01-01T04:33:24.000Z</time>
      </trkpt>
      <trkpt lat="45.29632" lon="5.85108">
        <ele>1068</ele>
        <time>2000-01-01T04:33:34.000Z</time>
      </trkpt>
      <trkpt lat="45.29647" lon="5.8509">
        <ele>1069</ele>
        <time>2000-01-01T04:33:44.000Z</time>
      </trkpt>
      <trkpt lat="45.2965" lon="5.85083">
        <ele>1065.6</ele>
        <time>2000-01-01T04:33:54.000Z</time>
      </trkpt>
      <trkpt lat="45.29648" lon="5.85076">
        <ele>1065.9</ele>
        <time>2000-01-01T04:34:04.000Z</time>
      </trkpt>
      <trkpt lat="45.29645" lon="5.85072">
        <ele>1066.2</ele>
        <time>2000-01-01T04:34:14.000Z</time>
      </trkpt>
      <trkpt lat="45.29639" lon="5.8507">
        <ele>1066</ele>
        <time>2000-01-01T04:34:24.000Z</time>
      </trkpt>
      <trkpt lat="45.2962" lon="5.85065">
        <ele>1070</ele>
        <time>2000-01-01T04:34:34.000Z</time>
      </trkpt>
      <trkpt lat="45.29614" lon="5.85062">
        <ele>1065.1</ele>
        <time>2000-01-01T04:34:44.000Z</time>
      </trkpt>
      <trkpt lat="45.29612" lon="5.85054">
        <ele>1066.1</ele>
        <time>2000-01-01T04:34:54.000Z</time>
      </trkpt>
      <trkpt lat="45.29612" lon="5.85029">
        <ele>1074</ele>
        <time>2000-01-01T04:35:04.000Z</time>
      </trkpt>
      <trkpt lat="45.29617" lon="5.85019">
        <ele>1071.4</ele>
        <time>2000-01-01T04:35:14.000Z</time>
      </trkpt>
      <trkpt lat="45.29632" lon="5.8501">
        <ele>1082</ele>
        <time>2000-01-01T04:35:24.000Z</time>
      </trkpt>
      <trkpt lat="45.29639" lon="5.85006">
        <ele>1073.9</ele>
        <time>2000-01-01T04:35:34.000Z</time>
      </trkpt>
      <trkpt lat="45.29639" lon="5.84994">
        <ele>1092</ele>
        <time>2000-01-01T04:35:44.000Z</time>
      </trkpt>
      <trkpt lat="45.29634" lon="5.84982">
        <ele>1089</ele>
        <time>2000-01-01T04:35:54.000Z</time>
      </trkpt>
      <trkpt lat="45.29629" lon="5.84974">
        <ele>1095.8</ele>
        <time>2000-01-01T04:36:04.000Z</time>
      </trkpt>
      <trkpt lat="45.29619" lon="5.84968">
        <ele>1096.9</ele>
        <time>2000-01-01T04:36:14.000Z</time>
      </trkpt>
      <trkpt lat="45.29586" lon="5.84961">
        <ele>1089</ele>
        <time>2000-01-01T04:36:24.000Z</time>
      </trkpt>
      <trkpt lat="45.29575" lon="5.84956">
        <ele>1096.8</ele>
        <time>2000-01-01T04:36:34.000Z</time>
      </trkpt>
      <trkpt lat="45.29561" lon="5.84944">
        <ele>1096</ele>
        <time>2000-01-01T04:36:44.000Z</time>
      </trkpt>
      <trkpt lat="45.29548" lon="5.84938">
        <ele>1099.7</ele>
        <time>2000-01-01T04:36:54.000Z</time>
      </trkpt>
      <trkpt lat="45.2953" lon="5.84935">
        <ele>1097</ele>
        <time>2000-01-01T04:37:04.000Z</time>
      </trkpt>
      <trkpt lat="45.29523" lon="5.84931">
        <ele>1100.5</ele>
        <time>2000-01-01T04:37:14.000Z</time>
      </trkpt>
      <trkpt lat="45.29523" lon="5.84896">
        <ele>1107</ele>
        <time>2000-01-01T04:37:24.000Z</time>
      </trkpt>
      <trkpt lat="45.29523" lon="5.84861">
        <ele>1118</ele>
        <time>2000-01-01T04:37:34.000Z</time>
      </trkpt>
      <trkpt lat="45.29534" lon="5.84858">
        <ele>1123.7</ele>
        <time>2000-01-01T04:37:44.000Z</time>
      </trkpt>
      <trkpt lat="45.29552" lon="5.84866">
        <ele>1120</ele>
        <time>2000-01-01T04:37:54.000Z</time>
      </trkpt>
      <trkpt lat="45.29574" lon="5.84867">
        <ele>1122</ele>
        <time>2000-01-01T04:38:04.000Z</time>
      </trkpt>
      <trkpt lat="45.29587" lon="5.84867">
        <ele>1134.3</ele>
        <time>2000-01-01T04:38:14.000Z</time>
      </trkpt>
      <trkpt lat="45.29599" lon="5.84861">
        <ele>1122</ele>
        <time>2000-01-01T04:38:24.000Z</time>
      </trkpt>
      <trkpt lat="45.29627" lon="5.84844">
        <ele>1123</ele>
        <time>2000-01-01T04:38:34.000Z</time>
      </trkpt>
      <trkpt lat="45.29654" lon="5.84823">
        <ele>1128</ele>
        <time>2000-01-01T04:38:44.000Z</time>
      </trkpt>
      <trkpt lat="45.29675" lon="5.84801">
        <ele>1144</ele>
        <time>2000-01-01T04:38:54.000Z</time>
      </trkpt>
      <trkpt lat="45.2969" lon="5.84775">
        <ele>1152</ele>
        <time>2000-01-01T04:39:04.000Z</time>
      </trkpt>
      <trkpt lat="45.29705" lon="5.8474">
        <ele>1176</ele>
        <time>2000-01-01T04:39:14.000Z</time>
      </trkpt>
      <trkpt lat="45.29726" lon="5.8475">
        <ele>1180</ele>
        <time>2000-01-01T04:39:24.000Z</time>
      </trkpt>
      <trkpt lat="45.29739" lon="5.84758">
        <ele>1189.5</ele>
        <time>2000-01-01T04:39:34.000Z</time>
      </trkpt>
      <trkpt lat="45.29744" lon="5.84761">
        <ele>1195</ele>
        <time>2000-01-01T04:39:44.000Z</time>
      </trkpt>
      <trkpt lat="45.29751" lon="5.84761">
        <ele>1198.6</ele>
        <time>2000-01-01T04:39:54.000Z</time>
      </trkpt>
      <trkpt lat="45.29772" lon="5.84755">
        <ele>1205</ele>
        <time>2000-01-01T04:40:04.000Z</time>
      </trkpt>
      <trkpt lat="45.29784" lon="5.84755">
        <ele>1200.6</ele>
        <time>2000-01-01T04:40:14.000Z</time>
      </trkpt>
      <trkpt lat="45.29793" lon="5.84758">
        <ele>1205</ele>
        <time>2000-01-01T04:40:24.000Z</time>
      </trkpt>
      <trkpt lat="45.29814" lon="5.84768">
        <ele>1219</ele>
        <time>2000-01-01T04:40:34.000Z</time>
      </trkpt>
      <trkpt lat="45.29831" lon="5.84775">
        <ele>1206</ele>
        <time>2000-01-01T04:40:44.000Z</time>
      </trkpt>
      <trkpt lat="45.29873" lon="5.84783">
        <ele>1222</ele>
        <time>2000-01-01T04:40:54.000Z</time>
      </trkpt>
      <trkpt lat="45.29887" lon="5.8477">
        <ele>1220.1</ele>
        <time>2000-01-01T04:41:04.000Z</time>
      </trkpt>
      <trkpt lat="45.29886" lon="5.84754">
        <ele>1228</ele>
        <time>2000-01-01T04:41:14.000Z</time>
      </trkpt>
      <trkpt lat="45.29877" lon="5.84741">
        <ele>1237.6</ele>
        <time>2000-01-01T04:41:24.000Z</time>
      </trkpt>
      <trkpt lat="45.29845" lon="5.84722">
        <ele>1230</ele>
        <time>2000-01-01T04:41:34.000Z</time>
      </trkpt>
      <trkpt lat="45.29816" lon="5.84696">
        <ele>1232</ele>
        <time>2000-01-01T04:41:44.000Z</time>
      </trkpt>
      <trkpt lat="45.29801" lon="5.84679">
        <ele>1235</ele>
        <time>2000-01-01T04:41:54.000Z</time>
      </trkpt>
      <trkpt lat="45.29793" lon="5.84664">
        <ele>1242</ele>
        <time>2000-01-01T04:42:04.000Z</time>
      </trkpt>
      <trkpt lat="45.29781" lon="5.84644">
        <ele>1233</ele>
        <time>2000-01-01T04:42:14.000Z</time>
      </trkpt>
      <trkpt lat="45.29772" lon="5.84632">
        <ele>1243.1</ele>
        <time>2000-01-01T04:42:24.000Z</time>
      </trkpt>
      <trkpt lat="45.29746" lon="5.84616">
        <ele>1231</ele>
        <time>2000-01-01T04:42:34.000Z</time>
      </trkpt>
      <trkpt lat="45.29723" lon="5.84602">
        <ele>1220</ele>
        <time>2000-01-01T04:42:44.000Z</time>
      </trkpt>
      <trkpt lat="45.29687" lon="5.84586">
        <ele>1212</ele>
        <time>2000-01-01T04:42:54.000Z</time>
      </trkpt>
      <trkpt lat="45.29663" lon="5.84573">
        <ele>1212</ele>
        <time>2000-01-01T04:43:04.000Z</time>
      </trkpt>
      <trkpt lat="45.29641" lon="5.8456">
        <ele>1212</ele>
        <time>2000-01-01T04:43:14.000Z</time>
      </trkpt>
      <trkpt lat="45.29658" lon="5.84546">
        <ele>1212</ele>
        <time>2000-01-01T04:43:24.000Z</time>
      </trkpt>
      <trkpt lat="45.29684" lon="5.84541">
        <ele>1218</ele>
        <time>2000-01-01T04:43:34.000Z</time>
      </trkpt>
      <trkpt lat="45.29708" lon="5.84536">
        <ele>1226</ele>
        <time>2000-01-01T04:43:44.000Z</time>
      </trkpt>
      <trkpt lat="45.29738" lon="5.84542">
        <ele>1236</ele>
        <time>2000-01-01T04:43:54.000Z</time>
      </trkpt>
      <trkpt lat="45.29777" lon="5.84541">
        <ele>1253</ele>
        <time>2000-01-01T04:44:04.000Z</time>
      </trkpt>
      <trkpt lat="45.29804" lon="5.84528">
        <ele>1263</ele>
        <time>2000-01-01T04:44:14.000Z</time>
      </trkpt>
      <trkpt lat="45.29834" lon="5.84515">
        <ele>1275</ele>
        <time>2000-01-01T04:44:24.000Z</time>
      </trkpt>
      <trkpt lat="45.29868" lon="5.8451">
        <ele>1284</ele>
        <time>2000-01-01T04:44:34.000Z</time>
      </trkpt>
      <trkpt lat="45.29899" lon="5.84473">
        <ele>1298</ele>
        <time>2000-01-01T04:44:44.000Z</time>
      </trkpt>
      <trkpt lat="45.29933" lon="5.84451">
        <ele>1309</ele>
        <time>2000-01-01T04:44:54.000Z</time>
      </trkpt>
      <trkpt lat="45.29958" lon="5.84435">
        <ele>1312</ele>
        <time>2000-01-01T04:45:04.000Z</time>
      </trkpt>
      <trkpt lat="45.29987" lon="5.84413">
        <ele>1326</ele>
        <time>2000-01-01T04:45:14.000Z</time>
      </trkpt>
      <trkpt lat="45.30015" lon="5.84392">
        <ele>1332</ele>
        <time>2000-01-01T04:45:24.000Z</time>
      </trkpt>
      <trkpt lat="45.30043" lon="5.84371">
        <ele>1332</ele>
        <time>2000-01-01T04:45:34.000Z</time>
      </trkpt>
      <trkpt lat="45.30064" lon="5.84348">
        <ele>1332</ele>
        <time>2000-01-01T04:45:44.000Z</time>
      </trkpt>
      <trkpt lat="45.30084" lon="5.84328">
        <ele>1331</ele>
        <time>2000-01-01T04:45:54.000Z</time>
      </trkpt>
      <trkpt lat="45.30106" lon="5.84304">
        <ele>1331</ele>
        <time>2000-01-01T04:46:04.000Z</time>
      </trkpt>
      <trkpt lat="45.30126" lon="5.84283">
        <ele>1329</ele>
        <time>2000-01-01T04:46:14.000Z</time>
      </trkpt>
      <trkpt lat="45.30148" lon="5.84242">
        <ele>1330</ele>
        <time>2000-01-01T04:46:24.000Z</time>
      </trkpt>
      <trkpt lat="45.30164" lon="5.84206">
        <ele>1328</ele>
        <time>2000-01-01T04:46:34.000Z</time>
      </trkpt>
      <trkpt lat="45.30178" lon="5.84175">
        <ele>1327</ele>
        <time>2000-01-01T04:46:44.000Z</time>
      </trkpt>
      <trkpt lat="45.302" lon="5.84118">
        <ele>1329</ele>
        <time>2000-01-01T04:46:54.000Z</time>
      </trkpt>
      <trkpt lat="45.30216" lon="5.84102">
        <ele>1332</ele>
        <time>2000-01-01T04:47:04.000Z</time>
      </trkpt>
      <trkpt lat="45.30222" lon="5.84109">
        <ele>1333.3</ele>
        <time>2000-01-01T04:47:14.000Z</time>
      </trkpt>
      <trkpt lat="45.3023" lon="5.8411">
        <ele>1334.6</ele>
        <time>2000-01-01T04:47:24.000Z</time>
      </trkpt>
      <trkpt lat="45.30235" lon="5.84102">
        <ele>1332</ele>
        <time>2000-01-01T04:47:34.000Z</time>
      </trkpt>
      <trkpt lat="45.30236" lon="5.8409">
        <ele>1336</ele>
        <time>2000-01-01T04:47:44.000Z</time>
      </trkpt>
      <trkpt lat="45.30245" lon="5.84089">
        <ele>1337.9</ele>
        <time>2000-01-01T04:47:54.000Z</time>
      </trkpt>
      <trkpt lat="45.30259" lon="5.84093">
        <ele>1335</ele>
        <time>2000-01-01T04:48:04.000Z</time>
      </trkpt>
      <trkpt lat="45.30259" lon="5.84079">
        <ele>1344.8</ele>
        <time>2000-01-01T04:48:14.000Z</time>
      </trkpt>
      <trkpt lat="45.30249" lon="5.84061">
        <ele>1337</ele>
        <time>2000-01-01T04:48:24.000Z</time>
      </trkpt>
      <trkpt lat="45.30247" lon="5.84035">
        <ele>1335.7</ele>
        <time>2000-01-01T04:48:34.000Z</time>
      </trkpt>
      <trkpt lat="45.30281" lon="5.84077">
        <ele>1342</ele>
        <time>2000-01-01T04:48:44.000Z</time>
      </trkpt>
      <trkpt lat="45.30305" lon="5.84062">
        <ele>1358</ele>
        <time>2000-01-01T04:48:54.000Z</time>
      </trkpt>
      <trkpt lat="45.30329" lon="5.84044">
        <ele>1365</ele>
        <time>2000-01-01T04:49:04.000Z</time>
      </trkpt>
      <trkpt lat="45.30334" lon="5.84038">
        <ele>1372.9</ele>
        <time>2000-01-01T04:49:14.000Z</time>
      </trkpt>
      <trkpt lat="45.30343" lon="5.84049">
        <ele>1373</ele>
        <time>2000-01-01T04:49:24.000Z</time>
      </trkpt>
      <trkpt lat="45.3035" lon="5.84045">
        <ele>1367</ele>
        <time>2000-01-01T04:49:34.000Z</time>
      </trkpt>
      <trkpt lat="45.30355" lon="5.84039">
        <ele>1374.6</ele>
        <time>2000-01-01T04:49:44.000Z</time>
      </trkpt>
      <trkpt lat="45.30362" lon="5.84043">
        <ele>1375.3</ele>
        <time>2000-01-01T04:49:54.000Z</time>
      </trkpt>
      <trkpt lat="45.30367" lon="5.84054">
        <ele>1370</ele>
        <time>2000-01-01T04:50:04.000Z</time>
      </trkpt>
      <trkpt lat="45.30377" lon="5.84054">
        <ele>1377.2</ele>
        <time>2000-01-01T04:50:14.000Z</time>
      </trkpt>
      <trkpt lat="45.3041" lon="5.84049">
        <ele>1385</ele>
        <time>2000-01-01T04:50:24.000Z</time>
      </trkpt>
      <trkpt lat="45.30425" lon="5.84051">
        <ele>1392.5</ele>
        <time>2000-01-01T04:50:34.000Z</time>
      </trkpt>
      <trkpt lat="45.30436" lon="5.84049">
        <ele>1385</ele>
        <time>2000-01-01T04:50:44.000Z</time>
      </trkpt>
      <trkpt lat="45.30443" lon="5.84037">
        <ele>1393.7</ele>
        <time>2000-01-01T04:50:54.000Z</time>
      </trkpt>
      <trkpt lat="45.30443" lon="5.84018">
        <ele>1392</ele>
        <time>2000-01-01T04:51:04.000Z</time>
      </trkpt>
      <trkpt lat="45.3048" lon="5.84027">
        <ele>1392</ele>
        <time>2000-01-01T04:51:14.000Z</time>
      </trkpt>
      <trkpt lat="45.3049" lon="5.84034">
        <ele>1397.4</ele>
        <time>2000-01-01T04:51:24.000Z</time>
      </trkpt>
      <trkpt lat="45.30498" lon="5.84047">
        <ele>1394</ele>
        <time>2000-01-01T04:51:34.000Z</time>
      </trkpt>
      <trkpt lat="45.30501" lon="5.84041">
        <ele>1409.3</ele>
        <time>2000-01-01T04:51:44.000Z</time>
      </trkpt>
      <trkpt lat="45.305" lon="5.84017">
        <ele>1395</ele>
        <time>2000-01-01T04:51:54.000Z</time>
      </trkpt>
      <trkpt lat="45.30506" lon="5.84002">
        <ele>1404.8</ele>
        <time>2000-01-01T04:52:04.000Z</time>
      </trkpt>
      <trkpt lat="45.30522" lon="5.83984">
        <ele>1399</ele>
        <time>2000-01-01T04:52:14.000Z</time>
      </trkpt>
      <trkpt lat="45.30529" lon="5.83984">
        <ele>1421.6</ele>
        <time>2000-01-01T04:52:24.000Z</time>
      </trkpt>
      <trkpt lat="45.30537" lon="5.83986">
        <ele>1423.6</ele>
        <time>2000-01-01T04:52:34.000Z</time>
      </trkpt>
      <trkpt lat="45.30541" lon="5.83995">
        <ele>1403</ele>
        <time>2000-01-01T04:52:44.000Z</time>
      </trkpt>
      <trkpt lat="45.3055" lon="5.84025">
        <ele>1408</ele>
        <time>2000-01-01T04:52:54.000Z</time>
      </trkpt>
      <trkpt lat="45.30558" lon="5.8403">
        <ele>1416.9</ele>
        <time>2000-01-01T04:53:04.000Z</time>
      </trkpt>
      <trkpt lat="45.30561" lon="5.8403">
        <ele>1417.4</ele>
        <time>2000-01-01T04:53:14.000Z</time>
      </trkpt>
      <trkpt lat="45.30579" lon="5.84036">
        <ele>1416</ele>
        <time>2000-01-01T04:53:24.000Z</time>
      </trkpt>
      <trkpt lat="45.30587" lon="5.84038">
        <ele>1434.3</ele>
        <time>2000-01-01T04:53:34.000Z</time>
      </trkpt>
      <trkpt lat="45.30594" lon="5.84042">
        <ele>1434.5</ele>
        <time>2000-01-01T04:53:44.000Z</time>
      </trkpt>
      <trkpt lat="45.30601" lon="5.84051">
        <ele>1418</ele>
        <time>2000-01-01T04:53:54.000Z</time>
      </trkpt>
      <trkpt lat="45.30603" lon="5.8406">
        <ele>1433</ele>
        <time>2000-01-01T04:54:04.000Z</time>
      </trkpt>
      <trkpt lat="45.30608" lon="5.84067">
        <ele>1433.1</ele>
        <time>2000-01-01T04:54:14.000Z</time>
      </trkpt>
      <trkpt lat="45.30617" lon="5.84083">
        <ele>1421</ele>
        <time>2000-01-01T04:54:24.000Z</time>
      </trkpt>
      <trkpt lat="45.3062" lon="5.84089">
        <ele>1432.3</ele>
        <time>2000-01-01T04:54:34.000Z</time>
      </trkpt>
      <trkpt lat="45.30618" lon="5.84098">
        <ele>1432.1</ele>
        <time>2000-01-01T04:54:44.000Z</time>
      </trkpt>
      <trkpt lat="45.30602" lon="5.84132">
        <ele>1422</ele>
        <time>2000-01-01T04:54:54.000Z</time>
      </trkpt>
      <trkpt lat="45.30601" lon="5.84142">
        <ele>1431.1</ele>
        <time>2000-01-01T04:55:04.000Z</time>
      </trkpt>
      <trkpt lat="45.30594" lon="5.84167">
        <ele>1424</ele>
        <time>2000-01-01T04:55:14.000Z</time>
      </trkpt>
      <trkpt lat="45.30593" lon="5.84167">
        <ele>1432</ele>
        <time>2000-01-01T04:55:24.000Z</time>
      </trkpt>
      <trkpt lat="45.30593" lon="5.84169">
        <ele>1432.2</ele>
        <time>2000-01-01T04:55:34.000Z</time>
      </trkpt>
      <trkpt lat="45.30592" lon="5.8417">
        <ele>1431.9</ele>
        <time>2000-01-01T04:55:44.000Z</time>
      </trkpt>
      <trkpt lat="45.30592" lon="5.84179">
        <ele>1434.6</ele>
        <time>2000-01-01T04:55:54.000Z</time>
      </trkpt>
      <trkpt lat="45.30595" lon="5.84181">
        <ele>1436</ele>
        <time>2000-01-01T04:56:04.000Z</time>
      </trkpt>
      <trkpt lat="45.30602" lon="5.8418">
        <ele>1431</ele>
        <time>2000-01-01T04:56:14.000Z</time>
      </trkpt>
      <trkpt lat="45.30622" lon="5.84169">
        <ele>1431</ele>
        <time>2000-01-01T04:56:24.000Z</time>
      </trkpt>
      <trkpt lat="45.30648" lon="5.84159">
        <ele>1431</ele>
        <time>2000-01-01T04:56:34.000Z</time>
      </trkpt>
      <trkpt lat="45.30665" lon="5.84154">
        <ele>1441</ele>
        <time>2000-01-01T04:56:44.000Z</time>
      </trkpt>
      <trkpt lat="45.30676" lon="5.84145">
        <ele>1431</ele>
        <time>2000-01-01T04:56:54.000Z</time>
      </trkpt>
      <trkpt lat="45.30695" lon="5.84133">
        <ele>1443</ele>
        <time>2000-01-01T04:57:04.000Z</time>
      </trkpt>
      <trkpt lat="45.30721" lon="5.84122">
        <ele>1445</ele>
        <time>2000-01-01T04:57:14.000Z</time>
      </trkpt>
      <trkpt lat="45.30726" lon="5.84121">
        <ele>1456.3</ele>
        <time>2000-01-01T04:57:24.000Z</time>
      </trkpt>
      <trkpt lat="45.30731" lon="5.84124">
        <ele>1456.8</ele>
        <time>2000-01-01T04:57:34.000Z</time>
      </trkpt>
      <trkpt lat="45.30731" lon="5.84135">
        <ele>1457.1</ele>
        <time>2000-01-01T04:57:44.000Z</time>
      </trkpt>
      <trkpt lat="45.30722" lon="5.84167">
        <ele>1454</ele>
        <time>2000-01-01T04:57:54.000Z</time>
      </trkpt>
      <trkpt lat="45.30712" lon="5.84198">
        <ele>1456</ele>
        <time>2000-01-01T04:58:04.000Z</time>
      </trkpt>
      <trkpt lat="45.307" lon="5.84231">
        <ele>1458</ele>
        <time>2000-01-01T04:58:14.000Z</time>
      </trkpt>
      <trkpt lat="45.30713" lon="5.84224">
        <ele>1466.6</ele>
        <time>2000-01-01T04:58:24.000Z</time>
      </trkpt>
      <trkpt lat="45.30739" lon="5.84231">
        <ele>1468</ele>
        <time>2000-01-01T04:58:34.000Z</time>
      </trkpt>
      <trkpt lat="45.30747" lon="5.84227">
        <ele>1472.3</ele>
        <time>2000-01-01T04:58:44.000Z</time>
      </trkpt>
      <trkpt lat="45.30773" lon="5.8421">
        <ele>1476</ele>
        <time>2000-01-01T04:58:54.000Z</time>
      </trkpt>
      <trkpt lat="45.30797" lon="5.84209">
        <ele>1476</ele>
        <time>2000-01-01T04:59:04.000Z</time>
      </trkpt>
      <trkpt lat="45.30806" lon="5.84205">
        <ele>1486.4</ele>
        <time>2000-01-01T04:59:14.000Z</time>
      </trkpt>
      <trkpt lat="45.30825" lon="5.84208">
        <ele>1490</ele>
        <time>2000-01-01T04:59:24.000Z</time>
      </trkpt>
      <trkpt lat="45.30835" lon="5.84199">
        <ele>1503.7</ele>
        <time>2000-01-01T04:59:34.000Z</time>
      </trkpt>
      <trkpt lat="45.30851" lon="5.84208">
        <ele>1492</ele>
        <time>2000-01-01T04:59:44.000Z</time>
      </trkpt>
      <trkpt lat="45.30849" lon="5.8419">
        <ele>1503.7</ele>
        <time>2000-01-01T04:59:54.000Z</time>
      </trkpt>
      <trkpt lat="45.30851" lon="5.84171">
        <ele>1492</ele>
        <time>2000-01-01T05:00:04.000Z</time>
      </trkpt>
      <trkpt lat="45.3085" lon="5.84155">
        <ele>1498.9</ele>
        <time>2000-01-01T05:00:14.000Z</time>
      </trkpt>
      <trkpt lat="45.30852" lon="5.84138">
        <ele>1492</ele>
        <time>2000-01-01T05:00:24.000Z</time>
      </trkpt>
      <trkpt lat="45.30849" lon="5.84121">
        <ele>1502.5</ele>
        <time>2000-01-01T05:00:34.000Z</time>
      </trkpt>
      <trkpt lat="45.30823" lon="5.84067">
        <ele>1489</ele>
        <time>2000-01-01T05:00:44.000Z</time>
      </trkpt>
      <trkpt lat="45.30812" lon="5.84048">
        <ele>1488</ele>
        <time>2000-01-01T05:00:54.000Z</time>
      </trkpt>
      <trkpt lat="45.30801" lon="5.8404">
        <ele>1487</ele>
        <time>2000-01-01T05:01:04.000Z</time>
      </trkpt>
      <trkpt lat="45.30797" lon="5.84026">
        <ele>1486.9</ele>
        <time>2000-01-01T05:01:14.000Z</time>
      </trkpt>
      <trkpt lat="45.30787" lon="5.84015">
        <ele>1479</ele>
        <time>2000-01-01T05:01:24.000Z</time>
      </trkpt>
      <trkpt lat="45.30769" lon="5.84">
        <ele>1483</ele>
        <time>2000-01-01T05:01:34.000Z</time>
      </trkpt>
      <trkpt lat="45.30757" lon="5.83981">
        <ele>1492</ele>
        <time>2000-01-01T05:01:44.000Z</time>
      </trkpt>
      <trkpt lat="45.3072" lon="5.83951">
        <ele>1487</ele>
        <time>2000-01-01T05:01:54.000Z</time>
      </trkpt>
      <trkpt lat="45.30695" lon="5.83932">
        <ele>1488</ele>
        <time>2000-01-01T05:02:04.000Z</time>
      </trkpt>
      <trkpt lat="45.30663" lon="5.8391">
        <ele>1485</ele>
        <time>2000-01-01T05:02:14.000Z</time>
      </trkpt>
      <trkpt lat="45.3064" lon="5.83889">
        <ele>1483</ele>
        <time>2000-01-01T05:02:24.000Z</time>
      </trkpt>
      <trkpt lat="45.30611" lon="5.83862">
        <ele>1481</ele>
        <time>2000-01-01T05:02:34.000Z</time>
      </trkpt>
      <trkpt lat="45.30585" lon="5.83838">
        <ele>1480</ele>
        <time>2000-01-01T05:02:44.000Z</time>
      </trkpt>
      <trkpt lat="45.30567" lon="5.83819">
        <ele>1476</ele>
        <time>2000-01-01T05:02:54.000Z</time>
      </trkpt>
      <trkpt lat="45.30545" lon="5.83789">
        <ele>1478</ele>
        <time>2000-01-01T05:03:04.000Z</time>
      </trkpt>
      <trkpt lat="45.30514" lon="5.8375">
        <ele>1481</ele>
        <time>2000-01-01T05:03:14.000Z</time>
      </trkpt>
      <trkpt lat="45.3049" lon="5.83747">
        <ele>1481</ele>
        <time>2000-01-01T05:03:24.000Z</time>
      </trkpt>
      <trkpt lat="45.30466" lon="5.8374">
        <ele>1480</ele>
        <time>2000-01-01T05:03:34.000Z</time>
      </trkpt>
      <trkpt lat="45.30441" lon="5.83736">
        <ele>1479</ele>
        <time>2000-01-01T05:03:44.000Z</time>
      </trkpt>
      <trkpt lat="45.30414" lon="5.83731">
        <ele>1464</ele>
        <time>2000-01-01T05:03:54.000Z</time>
      </trkpt>
      <trkpt lat="45.30384" lon="5.83726">
        <ele>1461</ele>
        <time>2000-01-01T05:04:04.000Z</time>
      </trkpt>
      <trkpt lat="45.30352" lon="5.83719">
        <ele>1451</ele>
        <time>2000-01-01T05:04:14.000Z</time>
      </trkpt>
      <trkpt lat="45.30326" lon="5.83714">
        <ele>1441</ele>
        <time>2000-01-01T05:04:24.000Z</time>
      </trkpt>
      <trkpt lat="45.30305" lon="5.83706">
        <ele>1438</ele>
        <time>2000-01-01T05:04:34.000Z</time>
      </trkpt>
      <trkpt lat="45.30278" lon="5.83696">
        <ele>1437</ele>
        <time>2000-01-01T05:04:44.000Z</time>
      </trkpt>
      <trkpt lat="45.30258" lon="5.83687">
        <ele>1437</ele>
        <time>2000-01-01T05:04:54.000Z</time>
      </trkpt>
      <trkpt lat="45.30242" lon="5.8369">
        <ele>1443.8</ele>
        <time>2000-01-01T05:05:04.000Z</time>
      </trkpt>
      <trkpt lat="45.30201" lon="5.83706">
        <ele>1437</ele>
        <time>2000-01-01T05:05:14.000Z</time>
      </trkpt>
      <trkpt lat="45.30179" lon="5.83709">
        <ele>1443</ele>
        <time>2000-01-01T05:05:24.000Z</time>
      </trkpt>
      <trkpt lat="45.30158" lon="5.83707">
        <ele>1452</ele>
        <time>2000-01-01T05:05:34.000Z</time>
      </trkpt>
      <trkpt lat="45.30139" lon="5.83703">
        <ele>1452</ele>
        <time>2000-01-01T05:05:44.000Z</time>
      </trkpt>
      <trkpt lat="45.30122" lon="5.83697">
        <ele>1454.3</ele>
        <time>2000-01-01T05:05:54.000Z</time>
      </trkpt>
      <trkpt lat="45.30104" lon="5.83698">
        <ele>1454</ele>
        <time>2000-01-01T05:06:04.000Z</time>
      </trkpt>
      <trkpt lat="45.30063" lon="5.83721">
        <ele>1457</ele>
        <time>2000-01-01T05:06:14.000Z</time>
      </trkpt>
      <trkpt lat="45.30019" lon="5.83734">
        <ele>1459</ele>
        <time>2000-01-01T05:06:24.000Z</time>
      </trkpt>
      <trkpt lat="45.30003" lon="5.83737">
        <ele>1453.2</ele>
        <time>2000-01-01T05:06:34.000Z</time>
      </trkpt>
      <trkpt lat="45.29985" lon="5.83737">
        <ele>1456</ele>
        <time>2000-01-01T05:06:44.000Z</time>
      </trkpt>
      <trkpt lat="45.29974" lon="5.83734">
        <ele>1455.7</ele>
        <time>2000-01-01T05:06:54.000Z</time>
      </trkpt>
      <trkpt lat="45.29951" lon="5.83717">
        <ele>1461</ele>
        <time>2000-01-01T05:07:04.000Z</time>
      </trkpt>
      <trkpt lat="45.29939" lon="5.83708">
        <ele>1460</ele>
        <time>2000-01-01T05:07:14.000Z</time>
      </trkpt>
      <trkpt lat="45.29924" lon="5.83702">
        <ele>1467</ele>
        <time>2000-01-01T05:07:24.000Z</time>
      </trkpt>
      <trkpt lat="45.29889" lon="5.83681">
        <ele>1469</ele>
        <time>2000-01-01T05:07:34.000Z</time>
      </trkpt>
      <trkpt lat="45.29864" lon="5.83673">
        <ele>1469</ele>
        <time>2000-01-01T05:07:44.000Z</time>
      </trkpt>
      <trkpt lat="45.29833" lon="5.83664">
        <ele>1470</ele>
        <time>2000-01-01T05:07:54.000Z</time>
      </trkpt>
      <trkpt lat="45.29816" lon="5.83657">
        <ele>1479.2</ele>
        <time>2000-01-01T05:08:04.000Z</time>
      </trkpt>
      <trkpt lat="45.2978" lon="5.83635">
        <ele>1474</ele>
        <time>2000-01-01T05:08:14.000Z</time>
      </trkpt>
      <trkpt lat="45.2975" lon="5.83609">
        <ele>1475</ele>
        <time>2000-01-01T05:08:24.000Z</time>
      </trkpt>
      <trkpt lat="45.29737" lon="5.83589">
        <ele>1478</ele>
        <time>2000-01-01T05:08:34.000Z</time>
      </trkpt>
      <trkpt lat="45.2972" lon="5.83559">
        <ele>1483</ele>
        <time>2000-01-01T05:08:44.000Z</time>
      </trkpt>
      <trkpt lat="45.29707" lon="5.83533">
        <ele>1488</ele>
        <time>2000-01-01T05:08:54.000Z</time>
      </trkpt>
      <trkpt lat="45.297" lon="5.83507">
        <ele>1500</ele>
        <time>2000-01-01T05:09:04.000Z</time>
      </trkpt>
      <trkpt lat="45.29698" lon="5.83494">
        <ele>1507.1</ele>
        <time>2000-01-01T05:09:14.000Z</time>
      </trkpt>
      <trkpt lat="45.29691" lon="5.83482">
        <ele>1502</ele>
        <time>2000-01-01T05:09:24.000Z</time>
      </trkpt>
      <trkpt lat="45.29682" lon="5.83469">
        <ele>1507.5</ele>
        <time>2000-01-01T05:09:34.000Z</time>
      </trkpt>
      <trkpt lat="45.29668" lon="5.83452">
        <ele>1498</ele>
        <time>2000-01-01T05:09:44.000Z</time>
      </trkpt>
      <trkpt lat="45.29653" lon="5.83446">
        <ele>1493</ele>
        <time>2000-01-01T05:09:54.000Z</time>
      </trkpt>
      <trkpt lat="45.29639" lon="5.83445">
        <ele>1495</ele>
        <time>2000-01-01T05:10:04.000Z</time>
      </trkpt>
      <trkpt lat="45.2963" lon="5.83449">
        <ele>1488</ele>
        <time>2000-01-01T05:10:14.000Z</time>
      </trkpt>
      <trkpt lat="45.29615" lon="5.83453">
        <ele>1483</ele>
        <time>2000-01-01T05:10:24.000Z</time>
      </trkpt>
      <trkpt lat="45.29606" lon="5.83452">
        <ele>1483.5</ele>
        <time>2000-01-01T05:10:34.000Z</time>
      </trkpt>
      <trkpt lat="45.29586" lon="5.83445">
        <ele>1474</ele>
        <time>2000-01-01T05:10:44.000Z</time>
      </trkpt>
      <trkpt lat="45.29573" lon="5.83438">
        <ele>1467.7</ele>
        <time>2000-01-01T05:10:54.000Z</time>
      </trkpt>
      <trkpt lat="45.29566" lon="5.83429">
        <ele>1469</ele>
        <time>2000-01-01T05:11:04.000Z</time>
      </trkpt>
      <trkpt lat="45.2956" lon="5.83418">
        <ele>1467.7</ele>
        <time>2000-01-01T05:11:14.000Z</time>
      </trkpt>
      <trkpt lat="45.29555" lon="5.83405">
        <ele>1469</ele>
        <time>2000-01-01T05:11:24.000Z</time>
      </trkpt>
      <trkpt lat="45.29552" lon="5.834">
        <ele>1465.9</ele>
        <time>2000-01-01T05:11:34.000Z</time>
      </trkpt>
      <trkpt lat="45.29545" lon="5.83397">
        <ele>1464.1</ele>
        <time>2000-01-01T05:11:44.000Z</time>
      </trkpt>
      <trkpt lat="45.29524" lon="5.83397">
        <ele>1460</ele>
        <time>2000-01-01T05:11:54.000Z</time>
      </trkpt>
      <trkpt lat="45.29518" lon="5.83402">
        <ele>1459</ele>
        <time>2000-01-01T05:12:04.000Z</time>
      </trkpt>
      <trkpt lat="45.29509" lon="5.83417">
        <ele>1452</ele>
        <time>2000-01-01T05:12:14.000Z</time>
      </trkpt>
      <trkpt lat="45.29486" lon="5.83437">
        <ele>1445</ele>
        <time>2000-01-01T05:12:24.000Z</time>
      </trkpt>
      <trkpt lat="45.29477" lon="5.83452">
        <ele>1431.2</ele>
        <time>2000-01-01T05:12:34.000Z</time>
      </trkpt>
      <trkpt lat="45.29488" lon="5.83452">
        <ele>1444</ele>
        <time>2000-01-01T05:12:44.000Z</time>
      </trkpt>
      <trkpt lat="45.29493" lon="5.83457">
        <ele>1434</ele>
        <time>2000-01-01T05:12:54.000Z</time>
      </trkpt>
      <trkpt lat="45.29492" lon="5.83463">
        <ele>1433.7</ele>
        <time>2000-01-01T05:13:04.000Z</time>
      </trkpt>
      <trkpt lat="45.29483" lon="5.83469">
        <ele>1439</ele>
        <time>2000-01-01T05:13:14.000Z</time>
      </trkpt>
      <trkpt lat="45.29472" lon="5.83468">
        <ele>1429.8</ele>
        <time>2000-01-01T05:13:24.000Z</time>
      </trkpt>
      <trkpt lat="45.29456" lon="5.83493">
        <ele>1426</ele>
        <time>2000-01-01T05:13:34.000Z</time>
      </trkpt>
      <trkpt lat="45.29458" lon="5.83507">
        <ele>1422.9</ele>
        <time>2000-01-01T05:13:44.000Z</time>
      </trkpt>
      <trkpt lat="45.29446" lon="5.83525">
        <ele>1426</ele>
        <time>2000-01-01T05:13:54.000Z</time>
      </trkpt>
      <trkpt lat="45.29445" lon="5.83536">
        <ele>1419.4</ele>
        <time>2000-01-01T05:14:04.000Z</time>
      </trkpt>
      <trkpt lat="45.29455" lon="5.83542">
        <ele>1419.8</ele>
        <time>2000-01-01T05:14:14.000Z</time>
      </trkpt>
      <trkpt lat="45.29495" lon="5.83545">
        <ele>1426</ele>
        <time>2000-01-01T05:14:24.000Z</time>
      </trkpt>
      <trkpt lat="45.2949" lon="5.83564">
        <ele>1415.9</ele>
        <time>2000-01-01T05:14:34.000Z</time>
      </trkpt>
      <trkpt lat="45.29458" lon="5.8359">
        <ele>1410</ele>
        <time>2000-01-01T05:14:44.000Z</time>
      </trkpt>
      <trkpt lat="45.29434" lon="5.83609">
        <ele>1404</ele>
        <time>2000-01-01T05:14:54.000Z</time>
      </trkpt>
      <trkpt lat="45.29404" lon="5.8364">
        <ele>1397</ele>
        <time>2000-01-01T05:15:04.000Z</time>
      </trkpt>
      <trkpt lat="45.29395" lon="5.83653">
        <ele>1391.3</ele>
        <time>2000-01-01T05:15:14.000Z</time>
      </trkpt>
      <trkpt lat="45.29354" lon="5.83663">
        <ele>1368</ele>
        <time>2000-01-01T05:15:24.000Z</time>
      </trkpt>
      <trkpt lat="45.29325" lon="5.83661">
        <ele>1358</ele>
        <time>2000-01-01T05:15:34.000Z</time>
      </trkpt>
      <trkpt lat="45.29312" lon="5.83644">
        <ele>1367.5</ele>
        <time>2000-01-01T05:15:44.000Z</time>
      </trkpt>
      <trkpt lat="45.293" lon="5.83631">
        <ele>1349</ele>
        <time>2000-01-01T05:15:54.000Z</time>
      </trkpt>
      <trkpt lat="45.2929" lon="5.83624">
        <ele>1363.2</ele>
        <time>2000-01-01T05:16:04.000Z</time>
      </trkpt>
      <trkpt lat="45.29292" lon="5.83635">
        <ele>1328</ele>
        <time>2000-01-01T05:16:14.000Z</time>
      </trkpt>
      <trkpt lat="45.29278" lon="5.83635">
        <ele>1359.3</ele>
        <time>2000-01-01T05:16:24.000Z</time>
      </trkpt>
      <trkpt lat="45.29272" lon="5.83645">
        <ele>1328</ele>
        <time>2000-01-01T05:16:34.000Z</time>
      </trkpt>
      <trkpt lat="45.29264" lon="5.83647">
        <ele>1353</ele>
        <time>2000-01-01T05:16:44.000Z</time>
      </trkpt>
      <trkpt lat="45.29258" lon="5.83625">
        <ele>1323</ele>
        <time>2000-01-01T05:16:54.000Z</time>
      </trkpt>
      <trkpt lat="45.29233" lon="5.83613">
        <ele>1320</ele>
        <time>2000-01-01T05:17:04.000Z</time>
      </trkpt>
      <trkpt lat="45.29218" lon="5.83603">
        <ele>1334.8</ele>
        <time>2000-01-01T05:17:14.000Z</time>
      </trkpt>
      <trkpt lat="45.29208" lon="5.83606">
        <ele>1313</ele>
        <time>2000-01-01T05:17:24.000Z</time>
      </trkpt>
      <trkpt lat="45.29198" lon="5.83618">
        <ele>1330.1</ele>
        <time>2000-01-01T05:17:34.000Z</time>
      </trkpt>
      <trkpt lat="45.29197" lon="5.83628">
        <ele>1313</ele>
        <time>2000-01-01T05:17:44.000Z</time>
      </trkpt>
      <trkpt lat="45.29181" lon="5.83632">
        <ele>1326.9</ele>
        <time>2000-01-01T05:17:54.000Z</time>
      </trkpt>
      <trkpt lat="45.2915" lon="5.83634">
        <ele>1303</ele>
        <time>2000-01-01T05:18:04.000Z</time>
      </trkpt>
      <trkpt lat="45.29141" lon="5.83634">
        <ele>1308.5</ele>
        <time>2000-01-01T05:18:14.000Z</time>
      </trkpt>
      <trkpt lat="45.29133" lon="5.8363">
        <ele>1307.5</ele>
        <time>2000-01-01T05:18:24.000Z</time>
      </trkpt>
      <trkpt lat="45.2911" lon="5.8362">
        <ele>1294</ele>
        <time>2000-01-01T05:18:34.000Z</time>
      </trkpt>
      <trkpt lat="45.2909" lon="5.83607">
        <ele>1284</ele>
        <time>2000-01-01T05:18:44.000Z</time>
      </trkpt>
      <trkpt lat="45.29056" lon="5.83608">
        <ele>1280</ele>
        <time>2000-01-01T05:18:54.000Z</time>
      </trkpt>
      <trkpt lat="45.29043" lon="5.83607">
        <ele>1279.5</ele>
        <time>2000-01-01T05:19:04.000Z</time>
      </trkpt>
      <trkpt lat="45.29036" lon="5.83609">
        <ele>1271</ele>
        <time>2000-01-01T05:19:14.000Z</time>
      </trkpt>
      <trkpt lat="45.29015" lon="5.83624">
        <ele>1256</ele>
        <time>2000-01-01T05:19:24.000Z</time>
      </trkpt>
      <trkpt lat="45.28985" lon="5.83636">
        <ele>1243</ele>
        <time>2000-01-01T05:19:34.000Z</time>
      </trkpt>
      <trkpt lat="45.2896" lon="5.83639">
        <ele>1243</ele>
        <time>2000-01-01T05:19:44.000Z</time>
      </trkpt>
      <trkpt lat="45.28946" lon="5.83643">
        <ele>1249.1</ele>
        <time>2000-01-01T05:19:54.000Z</time>
      </trkpt>
      <trkpt lat="45.28934" lon="5.83653">
        <ele>1240</ele>
        <time>2000-01-01T05:20:04.000Z</time>
      </trkpt>
      <trkpt lat="45.28932" lon="5.83672">
        <ele>1243.3</ele>
        <time>2000-01-01T05:20:14.000Z</time>
      </trkpt>
      <trkpt lat="45.2891" lon="5.83689">
        <ele>1238</ele>
        <time>2000-01-01T05:20:24.000Z</time>
      </trkpt>
      <trkpt lat="45.28906" lon="5.83702">
        <ele>1229.5</ele>
        <time>2000-01-01T05:20:34.000Z</time>
      </trkpt>
      <trkpt lat="45.28898" lon="5.83715">
        <ele>1229</ele>
        <time>2000-01-01T05:20:44.000Z</time>
      </trkpt>
      <trkpt lat="45.28861" lon="5.83728">
        <ele>1220</ele>
        <time>2000-01-01T05:20:54.000Z</time>
      </trkpt>
      <trkpt lat="45.28854" lon="5.83734">
        <ele>1221.5</ele>
        <time>2000-01-01T05:21:04.000Z</time>
      </trkpt>
      <trkpt lat="45.28843" lon="5.83761">
        <ele>1206</ele>
        <time>2000-01-01T05:21:14.000Z</time>
      </trkpt>
      <trkpt lat="45.28842" lon="5.83769">
        <ele>1210.4</ele>
        <time>2000-01-01T05:21:24.000Z</time>
      </trkpt>
      <trkpt lat="45.28845" lon="5.838">
        <ele>1204</ele>
        <time>2000-01-01T05:21:34.000Z</time>
      </trkpt>
      <trkpt lat="45.28853" lon="5.8381">
        <ele>1203.7</ele>
        <time>2000-01-01T05:21:44.000Z</time>
      </trkpt>
      <trkpt lat="45.28859" lon="5.8382">
        <ele>1194</ele>
        <time>2000-01-01T05:21:54.000Z</time>
      </trkpt>
      <trkpt lat="45.28868" lon="5.83825">
        <ele>1202.3</ele>
        <time>2000-01-01T05:22:04.000Z</time>
      </trkpt>
      <trkpt lat="45.28879" lon="5.83828">
        <ele>1188</ele>
        <time>2000-01-01T05:22:14.000Z</time>
      </trkpt>
      <trkpt lat="45.28894" lon="5.83835">
        <ele>1185.1</ele>
        <time>2000-01-01T05:22:24.000Z</time>
      </trkpt>
      <trkpt lat="45.28909" lon="5.83851">
        <ele>1173</ele>
        <time>2000-01-01T05:22:34.000Z</time>
      </trkpt>
      <trkpt lat="45.28927" lon="5.83874">
        <ele>1169</ele>
        <time>2000-01-01T05:22:44.000Z</time>
      </trkpt>
      <trkpt lat="45.28935" lon="5.83875">
        <ele>1176</ele>
        <time>2000-01-01T05:22:54.000Z</time>
      </trkpt>
      <trkpt lat="45.28945" lon="5.83869">
        <ele>1177.1</ele>
        <time>2000-01-01T05:23:04.000Z</time>
      </trkpt>
      <trkpt lat="45.28957" lon="5.83906">
        <ele>1164</ele>
        <time>2000-01-01T05:23:14.000Z</time>
      </trkpt>
      <trkpt lat="45.28967" lon="5.83948">
        <ele>1152</ele>
        <time>2000-01-01T05:23:24.000Z</time>
      </trkpt>
      <trkpt lat="45.28977" lon="5.84004">
        <ele>1134</ele>
        <time>2000-01-01T05:23:34.000Z</time>
      </trkpt>
      <trkpt lat="45.28974" lon="5.84031">
        <ele>1128</ele>
        <time>2000-01-01T05:23:44.000Z</time>
      </trkpt>
      <trkpt lat="45.28976" lon="5.84039">
        <ele>1130.7</ele>
        <time>2000-01-01T05:23:54.000Z</time>
      </trkpt>
      <trkpt lat="45.28984" lon="5.84069">
        <ele>1118</ele>
        <time>2000-01-01T05:24:04.000Z</time>
      </trkpt>
      <trkpt lat="45.2897" lon="5.84108">
        <ele>1109</ele>
        <time>2000-01-01T05:24:14.000Z</time>
      </trkpt>
      <trkpt lat="45.28958" lon="5.84133">
        <ele>1101</ele>
        <time>2000-01-01T05:24:24.000Z</time>
      </trkpt>
      <trkpt lat="45.28933" lon="5.8416">
        <ele>1094</ele>
        <time>2000-01-01T05:24:34.000Z</time>
      </trkpt>
      <trkpt lat="45.28911" lon="5.84167">
        <ele>1094</ele>
        <time>2000-01-01T05:24:44.000Z</time>
      </trkpt>
      <trkpt lat="45.28879" lon="5.84155">
        <ele>1097</ele>
        <time>2000-01-01T05:24:54.000Z</time>
      </trkpt>
      <trkpt lat="45.28855" lon="5.84164">
        <ele>1101</ele>
        <time>2000-01-01T05:25:04.000Z</time>
      </trkpt>
      <trkpt lat="45.28827" lon="5.84178">
        <ele>1100</ele>
        <time>2000-01-01T05:25:14.000Z</time>
      </trkpt>
      <trkpt lat="45.28786" lon="5.84198">
        <ele>1100</ele>
        <time>2000-01-01T05:25:24.000Z</time>
      </trkpt>
      <trkpt lat="45.28778" lon="5.84208">
        <ele>1101.6</ele>
        <time>2000-01-01T05:25:34.000Z</time>
      </trkpt>
      <trkpt lat="45.28759" lon="5.84204">
        <ele>1101</ele>
        <time>2000-01-01T05:25:44.000Z</time>
      </trkpt>
      <trkpt lat="45.28728" lon="5.84223">
        <ele>1096</ele>
        <time>2000-01-01T05:25:54.000Z</time>
      </trkpt>
      <trkpt lat="45.28723" lon="5.84239">
        <ele>1104.8</ele>
        <time>2000-01-01T05:26:04.000Z</time>
      </trkpt>
      <trkpt lat="45.28718" lon="5.84249">
        <ele>1092</ele>
        <time>2000-01-01T05:26:14.000Z</time>
      </trkpt>
      <trkpt lat="45.28714" lon="5.84264">
        <ele>1095.3</ele>
        <time>2000-01-01T05:26:24.000Z</time>
      </trkpt>
      <trkpt lat="45.28701" lon="5.84281">
        <ele>1092</ele>
        <time>2000-01-01T05:26:34.000Z</time>
      </trkpt>
      <trkpt lat="45.28667" lon="5.84293">
        <ele>1098</ele>
        <time>2000-01-01T05:26:44.000Z</time>
      </trkpt>
      <trkpt lat="45.28637" lon="5.8429">
        <ele>1100</ele>
        <time>2000-01-01T05:26:54.000Z</time>
      </trkpt>
      <trkpt lat="45.28616" lon="5.84297">
        <ele>1100</ele>
        <time>2000-01-01T05:27:04.000Z</time>
      </trkpt>
      <trkpt lat="45.28586" lon="5.84317">
        <ele>1089</ele>
        <time>2000-01-01T05:27:14.000Z</time>
      </trkpt>
      <trkpt lat="45.28545" lon="5.84343">
        <ele>1084</ele>
        <time>2000-01-01T05:27:24.000Z</time>
      </trkpt>
      <trkpt lat="45.28519" lon="5.8436">
        <ele>1084</ele>
        <time>2000-01-01T05:27:34.000Z</time>
      </trkpt>
      <trkpt lat="45.2848" lon="5.84376">
        <ele>1084</ele>
        <time>2000-01-01T05:27:44.000Z</time>
      </trkpt>
      <trkpt lat="45.28467" lon="5.84377">
        <ele>1087.8</ele>
        <time>2000-01-01T05:27:54.000Z</time>
      </trkpt>
      <trkpt lat="45.28434" lon="5.84391">
        <ele>1080</ele>
        <time>2000-01-01T05:28:04.000Z</time>
      </trkpt>
      <trkpt lat="45.28425" lon="5.84401">
        <ele>1084.1</ele>
        <time>2000-01-01T05:28:14.000Z</time>
      </trkpt>
      <trkpt lat="45.28384" lon="5.84417">
        <ele>1077</ele>
        <time>2000-01-01T05:28:24.000Z</time>
      </trkpt>
      <trkpt lat="45.28357" lon="5.84419">
        <ele>1080</ele>
        <time>2000-01-01T05:28:34.000Z</time>
      </trkpt>
      <trkpt lat="45.28316" lon="5.84411">
        <ele>1081</ele>
        <time>2000-01-01T05:28:44.000Z</time>
      </trkpt>
      <trkpt lat="45.28291" lon="5.84411">
        <ele>1083</ele>
        <time>2000-01-01T05:28:54.000Z</time>
      </trkpt>
      <trkpt lat="45.28254" lon="5.84396">
        <ele>1082</ele>
        <time>2000-01-01T05:29:04.000Z</time>
      </trkpt>
      <trkpt lat="45.2823" lon="5.84411">
        <ele>1081</ele>
        <time>2000-01-01T05:29:14.000Z</time>
      </trkpt>
      <trkpt lat="45.28197" lon="5.84416">
        <ele>1076</ele>
        <time>2000-01-01T05:29:24.000Z</time>
      </trkpt>
      <trkpt lat="45.28171" lon="5.8442">
        <ele>1075</ele>
        <time>2000-01-01T05:29:34.000Z</time>
      </trkpt>
      <trkpt lat="45.28134" lon="5.84408">
        <ele>1075</ele>
        <time>2000-01-01T05:29:44.000Z</time>
      </trkpt>
      <trkpt lat="45.2811" lon="5.84405">
        <ele>1069</ele>
        <time>2000-01-01T05:29:54.000Z</time>
      </trkpt>
      <trkpt lat="45.28085" lon="5.84403">
        <ele>1064</ele>
        <time>2000-01-01T05:30:04.000Z</time>
      </trkpt>
      <trkpt lat="45.28082" lon="5.84391">
        <ele>1035.5</ele>
        <time>2000-01-01T05:30:14.000Z</time>
      </trkpt>
      <trkpt lat="45.28073" lon="5.84352">
        <ele>1060</ele>
        <time>2000-01-01T05:30:24.000Z</time>
      </trkpt>
      <trkpt lat="45.28062" lon="5.84325">
        <ele>1052</ele>
        <time>2000-01-01T05:30:34.000Z</time>
      </trkpt>
      <trkpt lat="45.28043" lon="5.84293">
        <ele>1051</ele>
        <time>2000-01-01T05:30:44.000Z</time>
      </trkpt>
      <trkpt lat="45.28013" lon="5.84265">
        <ele>1042</ele>
        <time>2000-01-01T05:30:54.000Z</time>
      </trkpt>
      <trkpt lat="45.28011" lon="5.84276">
        <ele>1003.4</ele>
        <time>2000-01-01T05:31:04.000Z</time>
      </trkpt>
      <trkpt lat="45.28012" lon="5.84311">
        <ele>1039</ele>
        <time>2000-01-01T05:31:14.000Z</time>
      </trkpt>
      <trkpt lat="45.28021" lon="5.84351">
        <ele>1036</ele>
        <time>2000-01-01T05:31:24.000Z</time>
      </trkpt>
      <trkpt lat="45.28016" lon="5.84384">
        <ele>997</ele>
        <time>2000-01-01T05:31:34.000Z</time>
      </trkpt>
      <trkpt lat="45.28011" lon="5.84418">
        <ele>993</ele>
        <time>2000-01-01T05:31:44.000Z</time>
      </trkpt>
      <trkpt lat="45.28019" lon="5.84463">
        <ele>998</ele>
        <time>2000-01-01T05:31:54.000Z</time>
      </trkpt>
      <trkpt lat="45.28035" lon="5.84493">
        <ele>1003</ele>
        <time>2000-01-01T05:32:04.000Z</time>
      </trkpt>
      <trkpt lat="45.28053" lon="5.84527">
        <ele>1013</ele>
        <time>2000-01-01T05:32:14.000Z</time>
      </trkpt>
      <trkpt lat="45.28077" lon="5.84562">
        <ele>1019</ele>
        <time>2000-01-01T05:32:24.000Z</time>
      </trkpt>
      <trkpt lat="45.2809" lon="5.84571">
        <ele>1019.5</ele>
        <time>2000-01-01T05:32:34.000Z</time>
      </trkpt>
      <trkpt lat="45.28102" lon="5.84569">
        <ele>1024</ele>
        <time>2000-01-01T05:32:44.000Z</time>
      </trkpt>
      <trkpt lat="45.28119" lon="5.84555">
        <ele>1024</ele>
        <time>2000-01-01T05:32:54.000Z</time>
      </trkpt>
      <trkpt lat="45.2813" lon="5.84548">
        <ele>1026.8</ele>
        <time>2000-01-01T05:33:04.000Z</time>
      </trkpt>
      <trkpt lat="45.28139" lon="5.84549">
        <ele>1024</ele>
        <time>2000-01-01T05:33:14.000Z</time>
      </trkpt>
      <trkpt lat="45.28171" lon="5.84579">
        <ele>1024</ele>
        <time>2000-01-01T05:33:24.000Z</time>
      </trkpt>
      <trkpt lat="45.28196" lon="5.84587">
        <ele>1024</ele>
        <time>2000-01-01T05:33:34.000Z</time>
      </trkpt>
      <trkpt lat="45.28219" lon="5.84594">
        <ele>1031</ele>
        <time>2000-01-01T05:33:44.000Z</time>
      </trkpt>
      <trkpt lat="45.28248" lon="5.84594">
        <ele>1035</ele>
        <time>2000-01-01T05:33:54.000Z</time>
      </trkpt>
      <trkpt lat="45.28282" lon="5.84583">
        <ele>1039</ele>
        <time>2000-01-01T05:34:04.000Z</time>
      </trkpt>
      <trkpt lat="45.28301" lon="5.84573">
        <ele>1039</ele>
        <time>2000-01-01T05:34:14.000Z</time>
      </trkpt>
      <trkpt lat="45.28313" lon="5.84571">
        <ele>1036.9</ele>
        <time>2000-01-01T05:34:24.000Z</time>
      </trkpt>
      <trkpt lat="45.28352" lon="5.84572">
        <ele>1048</ele>
        <time>2000-01-01T05:34:34.000Z</time>
      </trkpt>
      <trkpt lat="45.28385" lon="5.8457">
        <ele>1047</ele>
        <time>2000-01-01T05:34:44.000Z</time>
      </trkpt>
      <trkpt lat="45.28416" lon="5.84588">
        <ele>1047</ele>
        <time>2000-01-01T05:34:54.000Z</time>
      </trkpt>
      <trkpt lat="45.28423" lon="5.84586">
        <ele>1026.1</ele>
        <time>2000-01-01T05:35:04.000Z</time>
      </trkpt>
      <trkpt lat="45.28437" lon="5.84576">
        <ele>1047</ele>
        <time>2000-01-01T05:35:14.000Z</time>
      </trkpt>
      <trkpt lat="45.28465" lon="5.84569">
        <ele>1057</ele>
        <time>2000-01-01T05:35:24.000Z</time>
      </trkpt>
      <trkpt lat="45.28507" lon="5.84558">
        <ele>1057</ele>
        <time>2000-01-01T05:35:34.000Z</time>
      </trkpt>
      <trkpt lat="45.28514" lon="5.84558">
        <ele>1043.7</ele>
        <time>2000-01-01T05:35:44.000Z</time>
      </trkpt>
      <trkpt lat="45.28523" lon="5.84561">
        <ele>1044.1</ele>
        <time>2000-01-01T05:35:54.000Z</time>
      </trkpt>
      <trkpt lat="45.28554" lon="5.84586">
        <ele>1050</ele>
        <time>2000-01-01T05:36:04.000Z</time>
      </trkpt>
      <trkpt lat="45.28577" lon="5.84605">
        <ele>1044</ele>
        <time>2000-01-01T05:36:14.000Z</time>
      </trkpt>
      <trkpt lat="45.28619" lon="5.84629">
        <ele>1040</ele>
        <time>2000-01-01T05:36:24.000Z</time>
      </trkpt>
      <trkpt lat="45.2863" lon="5.84629">
        <ele>1030.5</ele>
        <time>2000-01-01T05:36:34.000Z</time>
      </trkpt>
      <trkpt lat="45.28648" lon="5.84626">
        <ele>1032</ele>
        <time>2000-01-01T05:36:44.000Z</time>
      </trkpt>
      <trkpt lat="45.28674" lon="5.84625">
        <ele>1030</ele>
        <time>2000-01-01T05:36:54.000Z</time>
      </trkpt>
      <trkpt lat="45.28702" lon="5.84625">
        <ele>1026</ele>
        <time>2000-01-01T05:37:04.000Z</time>
      </trkpt>
      <trkpt lat="45.28721" lon="5.84623">
        <ele>1025</ele>
        <time>2000-01-01T05:37:14.000Z</time>
      </trkpt>
      <trkpt lat="45.28738" lon="5.84616">
        <ele>1025.3</ele>
        <time>2000-01-01T05:37:24.000Z</time>
      </trkpt>
      <trkpt lat="45.28779" lon="5.84613">
        <ele>1022</ele>
        <time>2000-01-01T05:37:34.000Z</time>
      </trkpt>
      <trkpt lat="45.28805" lon="5.84623">
        <ele>1017</ele>
        <time>2000-01-01T05:37:44.000Z</time>
      </trkpt>
      <trkpt lat="45.28823" lon="5.84628">
        <ele>1015.2</ele>
        <time>2000-01-01T05:37:54.000Z</time>
      </trkpt>
      <trkpt lat="45.28865" lon="5.84635">
        <ele>1005</ele>
        <time>2000-01-01T05:38:04.000Z</time>
      </trkpt>
      <trkpt lat="45.28893" lon="5.84637">
        <ele>1001</ele>
        <time>2000-01-01T05:38:14.000Z</time>
      </trkpt>
      <trkpt lat="45.28918" lon="5.84639">
        <ele>998</ele>
        <time>2000-01-01T05:38:24.000Z</time>
      </trkpt>
      <trkpt lat="45.28934" lon="5.84654">
        <ele>998</ele>
        <time>2000-01-01T05:38:34.000Z</time>
      </trkpt>
      <trkpt lat="45.28931" lon="5.84668">
        <ele>993.9</ele>
        <time>2000-01-01T05:38:44.000Z</time>
      </trkpt>
      <trkpt lat="45.28918" lon="5.84674">
        <ele>998</ele>
        <time>2000-01-01T05:38:54.000Z</time>
      </trkpt>
      <trkpt lat="45.28897" lon="5.8468">
        <ele>998</ele>
        <time>2000-01-01T05:39:04.000Z</time>
      </trkpt>
      <trkpt lat="45.28874" lon="5.84715">
        <ele>987</ele>
        <time>2000-01-01T05:39:14.000Z</time>
      </trkpt>
      <trkpt lat="45.28868" lon="5.84722">
        <ele>991.8</ele>
        <time>2000-01-01T05:39:24.000Z</time>
      </trkpt>
      <trkpt lat="45.2885" lon="5.84738">
        <ele>987</ele>
        <time>2000-01-01T05:39:34.000Z</time>
      </trkpt>
      <trkpt lat="45.28848" lon="5.84748">
        <ele>989.9</ele>
        <time>2000-01-01T05:39:44.000Z</time>
      </trkpt>
      <trkpt lat="45.28851" lon="5.84757">
        <ele>983.1</ele>
        <time>2000-01-01T05:39:54.000Z</time>
      </trkpt>
      <trkpt lat="45.2886" lon="5.84759">
        <ele>984</ele>
        <time>2000-01-01T05:40:04.000Z</time>
      </trkpt>
      <trkpt lat="45.28872" lon="5.84759">
        <ele>981</ele>
        <time>2000-01-01T05:40:14.000Z</time>
      </trkpt>
      <trkpt lat="45.28891" lon="5.84765">
        <ele>982</ele>
        <time>2000-01-01T05:40:24.000Z</time>
      </trkpt>
      <trkpt lat="45.289" lon="5.84771">
        <ele>979.9</ele>
        <time>2000-01-01T05:40:34.000Z</time>
      </trkpt>
      <trkpt lat="45.2892" lon="5.84787">
        <ele>973</ele>
        <time>2000-01-01T05:40:44.000Z</time>
      </trkpt>
      <trkpt lat="45.28926" lon="5.84798">
        <ele>978.8</ele>
        <time>2000-01-01T05:40:54.000Z</time>
      </trkpt>
      <trkpt lat="45.28931" lon="5.84797">
        <ele>979</ele>
        <time>2000-01-01T05:41:04.000Z</time>
      </trkpt>
      <trkpt lat="45.28939" lon="5.84797">
        <ele>973</ele>
        <time>2000-01-01T05:41:14.000Z</time>
      </trkpt>
      <trkpt lat="45.28955" lon="5.84783">
        <ele>975</ele>
        <time>2000-01-01T05:41:24.000Z</time>
      </trkpt>
      <trkpt lat="45.28964" lon="5.84777">
        <ele>981.3</ele>
        <time>2000-01-01T05:41:34.000Z</time>
      </trkpt>
      <trkpt lat="45.28974" lon="5.84773">
        <ele>978</ele>
        <time>2000-01-01T05:41:44.000Z</time>
      </trkpt>
      <trkpt lat="45.29004" lon="5.84774">
        <ele>983</ele>
        <time>2000-01-01T05:41:54.000Z</time>
      </trkpt>
      <trkpt lat="45.29021" lon="5.84774">
        <ele>988.8</ele>
        <time>2000-01-01T05:42:04.000Z</time>
      </trkpt>
      <trkpt lat="45.29029" lon="5.84788">
        <ele>980</ele>
        <time>2000-01-01T05:42:14.000Z</time>
      </trkpt>
      <trkpt lat="45.29038" lon="5.84808">
        <ele>988.6</ele>
        <time>2000-01-01T05:42:24.000Z</time>
      </trkpt>
      <trkpt lat="45.29036" lon="5.84848">
        <ele>978</ele>
        <time>2000-01-01T05:42:34.000Z</time>
      </trkpt>
      <trkpt lat="45.29024" lon="5.84882">
        <ele>966</ele>
        <time>2000-01-01T05:42:44.000Z</time>
      </trkpt>
      <trkpt lat="45.29023" lon="5.84914">
        <ele>964</ele>
        <time>2000-01-01T05:42:54.000Z</time>
      </trkpt>
      <trkpt lat="45.29017" lon="5.8497">
        <ele>961</ele>
        <time>2000-01-01T05:43:04.000Z</time>
      </trkpt>
      <trkpt lat="45.29015" lon="5.8501">
        <ele>961</ele>
        <time>2000-01-01T05:43:14.000Z</time>
      </trkpt>
      <trkpt lat="45.29012" lon="5.85069">
        <ele>961</ele>
        <time>2000-01-01T05:43:24.000Z</time>
      </trkpt>
      <trkpt lat="45.29004" lon="5.85076">
        <ele>961.3</ele>
        <time>2000-01-01T05:43:34.000Z</time>
      </trkpt>
      <trkpt lat="45.29002" lon="5.85105">
        <ele>956</ele>
        <time>2000-01-01T05:43:44.000Z</time>
      </trkpt>
      <trkpt lat="45.28999" lon="5.85117">
        <ele>945.3</ele>
        <time>2000-01-01T05:43:54.000Z</time>
      </trkpt>
      <trkpt lat="45.29018" lon="5.85134">
        <ele>956</ele>
        <time>2000-01-01T05:44:04.000Z</time>
      </trkpt>
      <trkpt lat="45.2903" lon="5.85136">
        <ele>957.5</ele>
        <time>2000-01-01T05:44:14.000Z</time>
      </trkpt>
      <trkpt lat="45.29029" lon="5.85153">
        <ele>955</ele>
        <time>2000-01-01T05:44:24.000Z</time>
      </trkpt>
      <trkpt lat="45.29046" lon="5.8518">
        <ele>955</ele>
        <time>2000-01-01T05:44:34.000Z</time>
      </trkpt>
      <trkpt lat="45.29064" lon="5.85216">
        <ele>948</ele>
        <time>2000-01-01T05:44:44.000Z</time>
      </trkpt>
      <trkpt lat="45.29074" lon="5.85227">
        <ele>951.6</ele>
        <time>2000-01-01T05:44:54.000Z</time>
      </trkpt>
      <trkpt lat="45.29078" lon="5.85234">
        <ele>951.6</ele>
        <time>2000-01-01T05:45:04.000Z</time>
      </trkpt>
      <trkpt lat="45.29077" lon="5.85246">
        <ele>947</ele>
        <time>2000-01-01T05:45:14.000Z</time>
      </trkpt>
      <trkpt lat="45.29069" lon="5.85256">
        <ele>952.9</ele>
        <time>2000-01-01T05:45:24.000Z</time>
      </trkpt>
      <trkpt lat="45.29058" lon="5.85261">
        <ele>947</ele>
        <time>2000-01-01T05:45:34.000Z</time>
      </trkpt>
      <trkpt lat="45.29026" lon="5.85268">
        <ele>949</ele>
        <time>2000-01-01T05:45:44.000Z</time>
      </trkpt>
      <trkpt lat="45.29008" lon="5.85273">
        <ele>950.3</ele>
        <time>2000-01-01T05:45:54.000Z</time>
      </trkpt>
      <trkpt lat="45.28983" lon="5.85274">
        <ele>951</ele>
        <time>2000-01-01T05:46:04.000Z</time>
      </trkpt>
      <trkpt lat="45.28968" lon="5.85276">
        <ele>943.1</ele>
        <time>2000-01-01T05:46:14.000Z</time>
      </trkpt>
      <trkpt lat="45.2896" lon="5.85291">
        <ele>951</ele>
        <time>2000-01-01T05:46:24.000Z</time>
      </trkpt>
      <trkpt lat="45.28957" lon="5.853">
        <ele>943.6</ele>
        <time>2000-01-01T05:46:34.000Z</time>
      </trkpt>
      <trkpt lat="45.28943" lon="5.85317">
        <ele>947</ele>
        <time>2000-01-01T05:46:44.000Z</time>
      </trkpt>
      <trkpt lat="45.28932" lon="5.85339">
        <ele>940</ele>
        <time>2000-01-01T05:46:54.000Z</time>
      </trkpt>
      <trkpt lat="45.2892" lon="5.85356">
        <ele>945.7</ele>
        <time>2000-01-01T05:47:04.000Z</time>
      </trkpt>
      <trkpt lat="45.2891" lon="5.85363">
        <ele>932</ele>
        <time>2000-01-01T05:47:14.000Z</time>
      </trkpt>
      <trkpt lat="45.28901" lon="5.85365">
        <ele>936.8</ele>
        <time>2000-01-01T05:47:24.000Z</time>
      </trkpt>
      <trkpt lat="45.28876" lon="5.8536">
        <ele>923</ele>
        <time>2000-01-01T05:47:34.000Z</time>
      </trkpt>
      <trkpt lat="45.28861" lon="5.85343">
        <ele>923</ele>
        <time>2000-01-01T05:47:44.000Z</time>
      </trkpt>
      <trkpt lat="45.28851" lon="5.85343">
        <ele>930.6</ele>
        <time>2000-01-01T05:47:54.000Z</time>
      </trkpt>
      <trkpt lat="45.28848" lon="5.85353">
        <ele>931.2</ele>
        <time>2000-01-01T05:48:04.000Z</time>
      </trkpt>
      <trkpt lat="45.28851" lon="5.85367">
        <ele>923</ele>
        <time>2000-01-01T05:48:14.000Z</time>
      </trkpt>
      <trkpt lat="45.28859" lon="5.85383">
        <ele>933.7</ele>
        <time>2000-01-01T05:48:24.000Z</time>
      </trkpt>
      <trkpt lat="45.28866" lon="5.85395">
        <ele>927</ele>
        <time>2000-01-01T05:48:34.000Z</time>
      </trkpt>
      <trkpt lat="45.28864" lon="5.85401">
        <ele>934.2</ele>
        <time>2000-01-01T05:48:44.000Z</time>
      </trkpt>
      <trkpt lat="45.28861" lon="5.85406">
        <ele>933.9</ele>
        <time>2000-01-01T05:48:54.000Z</time>
      </trkpt>
      <trkpt lat="45.28852" lon="5.8541">
        <ele>927</ele>
        <time>2000-01-01T05:49:04.000Z</time>
      </trkpt>
      <trkpt lat="45.28832" lon="5.85405">
        <ele>922</ele>
        <time>2000-01-01T05:49:14.000Z</time>
      </trkpt>
      <trkpt lat="45.28799" lon="5.85404">
        <ele>913</ele>
        <time>2000-01-01T05:49:24.000Z</time>
      </trkpt>
      <trkpt lat="45.28772" lon="5.85403">
        <ele>913</ele>
        <time>2000-01-01T05:49:34.000Z</time>
      </trkpt>
      <trkpt lat="45.28729" lon="5.85396">
        <ele>910</ele>
        <time>2000-01-01T05:49:44.000Z</time>
      </trkpt>
      <trkpt lat="45.28686" lon="5.85387">
        <ele>908</ele>
        <time>2000-01-01T05:49:54.000Z</time>
      </trkpt>
      <trkpt lat="45.28663" lon="5.85383">
        <ele>908</ele>
        <time>2000-01-01T05:50:04.000Z</time>
      </trkpt>
      <trkpt lat="45.28639" lon="5.85379">
        <ele>898</ele>
        <time>2000-01-01T05:50:14.000Z</time>
      </trkpt>
      <trkpt lat="45.28629" lon="5.85381">
        <ele>903</ele>
        <time>2000-01-01T05:50:24.000Z</time>
      </trkpt>
      <trkpt lat="45.2861" lon="5.85388">
        <ele>898</ele>
        <time>2000-01-01T05:50:34.000Z</time>
      </trkpt>
      <trkpt lat="45.28573" lon="5.85412">
        <ele>896</ele>
        <time>2000-01-01T05:50:44.000Z</time>
      </trkpt>
      <trkpt lat="45.28557" lon="5.85436">
        <ele>894</ele>
        <time>2000-01-01T05:50:54.000Z</time>
      </trkpt>
      <trkpt lat="45.28535" lon="5.85489">
        <ele>893</ele>
        <time>2000-01-01T05:51:04.000Z</time>
      </trkpt>
      <trkpt lat="45.28527" lon="5.85523">
        <ele>892</ele>
        <time>2000-01-01T05:51:14.000Z</time>
      </trkpt>
      <trkpt lat="45.28513" lon="5.85567">
        <ele>889</ele>
        <time>2000-01-01T05:51:24.000Z</time>
      </trkpt>
      <trkpt lat="45.28499" lon="5.85599">
        <ele>887</ele>
        <time>2000-01-01T05:51:34.000Z</time>
      </trkpt>
      <trkpt lat="45.28485" lon="5.85624">
        <ele>882</ele>
        <time>2000-01-01T05:51:44.000Z</time>
      </trkpt>
      <trkpt lat="45.28456" lon="5.85653">
        <ele>884</ele>
        <time>2000-01-01T05:51:54.000Z</time>
      </trkpt>
      <trkpt lat="45.2845" lon="5.8571">
        <ele>887</ele>
        <time>2000-01-01T05:52:04.000Z</time>
      </trkpt>
      <trkpt lat="45.28457" lon="5.8573">
        <ele>924.8</ele>
        <time>2000-01-01T05:52:14.000Z</time>
      </trkpt>
      <trkpt lat="45.28469" lon="5.85759">
        <ele>917</ele>
        <time>2000-01-01T05:52:24.000Z</time>
      </trkpt>
      <trkpt lat="45.28493" lon="5.85803">
        <ele>933</ele>
        <time>2000-01-01T05:52:34.000Z</time>
      </trkpt>
      <trkpt lat="45.2851" lon="5.85835">
        <ele>933</ele>
        <time>2000-01-01T05:52:44.000Z</time>
      </trkpt>
      <trkpt lat="45.28526" lon="5.85862">
        <ele>942</ele>
        <time>2000-01-01T05:52:54.000Z</time>
      </trkpt>
      <trkpt lat="45.28544" lon="5.85892">
        <ele>943</ele>
        <time>2000-01-01T05:53:04.000Z</time>
      </trkpt>
      <trkpt lat="45.28563" lon="5.85925">
        <ele>947</ele>
        <time>2000-01-01T05:53:14.000Z</time>
      </trkpt>
      <trkpt lat="45.28573" lon="5.85936">
        <ele>956.2</ele>
        <time>2000-01-01T05:53:24.000Z</time>
      </trkpt>
      <trkpt lat="45.28582" lon="5.85937">
        <ele>953</ele>
        <time>2000-01-01T05:53:34.000Z</time>
      </trkpt>
      <trkpt lat="45.28592" lon="5.85929">
        <ele>966.6</ele>
        <time>2000-01-01T05:53:44.000Z</time>
      </trkpt>
      <trkpt lat="45.28603" lon="5.85925">
        <ele>964</ele>
        <time>2000-01-01T05:53:54.000Z</time>
      </trkpt>
      <trkpt lat="45.28637" lon="5.85923">
        <ele>975</ele>
        <time>2000-01-01T05:54:04.000Z</time>
      </trkpt>
      <trkpt lat="45.28683" lon="5.85917">
        <ele>981</ele>
        <time>2000-01-01T05:54:14.000Z</time>
      </trkpt>
      <trkpt lat="45.28716" lon="5.85913">
        <ele>978</ele>
        <time>2000-01-01T05:54:24.000Z</time>
      </trkpt>
      <trkpt lat="45.28749" lon="5.85909">
        <ele>979</ele>
        <time>2000-01-01T05:54:34.000Z</time>
      </trkpt>
      <trkpt lat="45.28773" lon="5.85922">
        <ele>980</ele>
        <time>2000-01-01T05:54:44.000Z</time>
      </trkpt>
      <trkpt lat="45.28802" lon="5.85936">
        <ele>979</ele>
        <time>2000-01-01T05:54:54.000Z</time>
      </trkpt>
      <trkpt lat="45.28831" lon="5.85951">
        <ele>979</ele>
        <time>2000-01-01T05:55:04.000Z</time>
      </trkpt>
      <trkpt lat="45.2887" lon="5.85967">
        <ele>978</ele>
        <time>2000-01-01T05:55:14.000Z</time>
      </trkpt>
      <trkpt lat="45.28897" lon="5.85978">
        <ele>973</ele>
        <time>2000-01-01T05:55:24.000Z</time>
      </trkpt>
      <trkpt lat="45.28933" lon="5.8599">
        <ele>969</ele>
        <time>2000-01-01T05:55:34.000Z</time>
      </trkpt>
      <trkpt lat="45.28968" lon="5.85996">
        <ele>972</ele>
        <time>2000-01-01T05:55:44.000Z</time>
      </trkpt>
      <trkpt lat="45.28986" lon="5.85998">
        <ele>978.6</ele>
        <time>2000-01-01T05:55:54.000Z</time>
      </trkpt>
      <trkpt lat="45.29024" lon="5.86001">
        <ele>975</ele>
        <time>2000-01-01T05:56:04.000Z</time>
      </trkpt>
      <trkpt lat="45.29056" lon="5.86006">
        <ele>976</ele>
        <time>2000-01-01T05:56:14.000Z</time>
      </trkpt>
      <trkpt lat="45.29071" lon="5.86009">
        <ele>987.1</ele>
        <time>2000-01-01T05:56:24.000Z</time>
      </trkpt>
      <trkpt lat="45.2908" lon="5.86013">
        <ele>978</ele>
        <time>2000-01-01T05:56:34.000Z</time>
      </trkpt>
      <trkpt lat="45.29113" lon="5.86033">
        <ele>986</ele>
        <time>2000-01-01T05:56:44.000Z</time>
      </trkpt>
      <trkpt lat="45.29118" lon="5.86034">
        <ele>993.2</ele>
        <time>2000-01-01T05:56:54.000Z</time>
      </trkpt>
      <trkpt lat="45.29125" lon="5.86033">
        <ele>993.6</ele>
        <time>2000-01-01T05:57:04.000Z</time>
      </trkpt>
      <trkpt lat="45.29162" lon="5.8602">
        <ele>989</ele>
        <time>2000-01-01T05:57:14.000Z</time>
      </trkpt>
      <trkpt lat="45.29148" lon="5.85991">
        <ele>993</ele>
        <time>2000-01-01T05:57:24.000Z</time>
      </trkpt>
      <trkpt lat="45.29162" lon="5.85988">
        <ele>996.9</ele>
        <time>2000-01-01T05:57:34.000Z</time>
      </trkpt>
      <trkpt lat="45.29166" lon="5.85988">
        <ele>997.1</ele>
        <time>2000-01-01T05:57:44.000Z</time>
      </trkpt>
      <trkpt lat="45.2917" lon="5.85994">
        <ele>994</ele>
        <time>2000-01-01T05:57:54.000Z</time>
      </trkpt>
      <trkpt lat="45.29175" lon="5.86013">
        <ele>1000.4</ele>
        <time>2000-01-01T05:58:04.000Z</time>
      </trkpt>
      <trkpt lat="45.29182" lon="5.86024">
        <ele>997</ele>
        <time>2000-01-01T05:58:14.000Z</time>
      </trkpt>
      <trkpt lat="45.2919" lon="5.86036">
        <ele>1001.2</ele>
        <time>2000-01-01T05:58:24.000Z</time>
      </trkpt>
      <trkpt lat="45.29219" lon="5.86068">
        <ele>1002</ele>
        <time>2000-01-01T05:58:34.000Z</time>
      </trkpt>
      <trkpt lat="45.29246" lon="5.86092">
        <ele>1004</ele>
        <time>2000-01-01T05:58:44.000Z</time>
      </trkpt>
      <trkpt lat="45.29268" lon="5.86112">
        <ele>1004</ele>
        <time>2000-01-01T05:58:54.000Z</time>
      </trkpt>
      <trkpt lat="45.29303" lon="5.86141">
        <ele>1014</ele>
        <time>2000-01-01T05:59:04.000Z</time>
      </trkpt>
      <trkpt lat="45.29328" lon="5.86161">
        <ele>1013</ele>
        <time>2000-01-01T05:59:14.000Z</time>
      </trkpt>
      <trkpt lat="45.2934" lon="5.86191">
        <ele>1013</ele>
        <time>2000-01-01T05:59:24.000Z</time>
      </trkpt>
      <trkpt lat="45.2935" lon="5.86223">
        <ele>1013</ele>
        <time>2000-01-01T05:59:34.000Z</time>
      </trkpt>
      <trkpt lat="45.29365" lon="5.86232">
        <ele>1013</ele>
        <time>2000-01-01T05:59:44.000Z</time>
      </trkpt>
    </trkseg>
  </trk>
</gpx>